[[{"header":{"parameterUnit":"m.s-1","parameterCategory":1,"la1":30.6,"la2":28.766,"lo1":-90.7593,"lo2":-88.6598,"dy":0.0162,"dx":0.0183,"nx":116,"ny":114,"refTime":"2024-03-02T18:00:00:Z","depth":0,"parameterNumber":2,"parameterNumberName":"U-component_of_WINDS"},"data":[0.0,0.0,0.0,0.0,0.0,0.0,0.0,0.0,0.0,0.0,0.0,0.0,0.0,0.0,0.0,0.0,0.0,0.0,0.0,0.0,0.0,0.0,0.0,0.0,0.0,0.0,0.0,0.0,0.0,0.0,0.0,0.0,0.0,0.0,0.0,0.0,0.0,0.0,0.0,0.0,0.0,0.0,0.0,0.0,0.0,0.0,0.0,0.0,0.0,0.0,0.0,0.0,0.0,0.0,0.0,0.0,0.0,0.0,0.0,0.0,0.0,0.0,0.0,0.0,0.0,0.0,0.0,0.0,0.0,0.0,0.0,0.0,0.0,0.0,0.0,0.0,0.0,0.0,0.0,0.0,0.0,0.0,0.0,0.0,0.0,0.0,0.0,0.0,0.0,0.0,0.0,0.0,0.0,0.0,0.0,0.0,0.0,0.0,0.0,0.0,0.0,0.0,0.0,0.0,0.0,0.0,0.0,0.0,0.0,0.0,0.0,0.0,0.0,0.0,0.0,0.0,0.0,0.0,0.0,0.0,0.0,0.0,0.0,0.0,0.0,0.0,0.0,0.0,0.0,0.0,0.0,0.0,0.0,0.0,0.0,0.0,0.0,0.0,0.0,0.0,0.0,0.0,0.0,0.0,0.0,0.0,0.0,0.0,0.0,0.0,0.0,0.0,0.0,0.0,0.0,0.0,0.0,0.0,0.0,0.0,0.0,0.0,0.0,0.0,0.0,0.0,0.0,0.0,0.0,0.0,0.0,0.0,0.0,0.0,0.0,0.0,0.0,0.0,0.0,0.0,0.0,0.0,0.0,0.0,0.0,0.0,0.0,0.0,0.0,0.0,0.0,0.0,0.0,0.0,0.0,0.0,0.0,0.0,0.0,0.0,0.0,0.0,0.0,0.0,0.0,0.0,0.0,0.0,0.0,0.0,0.0,0.0,0.0,0.0,0.0,0.0,0.0,0.0,0.0,0.0,0.0,0.0,0.0,0.0,0.0,0.0,0.0,0.0,0.0,0.0,0.0,0.0,0.0,0.0,0.0,0.0,0.0,0.0,0.0,0.0,0.0,0.0,0.0,0.0,0.0,0.0,0.0,0.0,0.0,0.0,0.0,0.0,0.0,0.0,0.0,0.0,0.0,0.0,0.0,0.0,0.0,0.0,0.0,0.0,0.0,0.0,0.0,0.0,0.0,0.0,0.0,0.0,0.0,0.0,0.0,0.0,0.0,0.0,0.0,0.0,0.0,0.0,0.0,0.0,0.0,0.0,0.0,0.0,0.0,0.0,0.0,0.0,0.0,0.0,0.0,0.0,0.0,0.0,0.0,0.0,0.0,0.0,0.0,0.0,0.0,0.0,0.0,0.0,0.0,0.0,0.0,0.0,0.0,0.0,0.0,0.0,0.0,0.0,0.0,0.0,0.0,0.0,0.0,0.0,0.0,0.0,0.0,0.0,0.0,0.0,0.0,0.0,0.0,0.0,0.0,0.0,0.0,0.0,0.0,0.0,0.0,0.0,0.0,0.0,0.0,0.0,0.0,0.0,0.0,0.0,0.0,0.0,0.0,0.0,0.0,0.0,0.0,0.0,0.0,0.0,0.0,0.0,0.0,0.0,0.0,0.0,0.0,0.0,0.0,0.0,0.0,0.0,0.0,0.0,0.0,0.0,0.0,0.0,0.0,0.0,0.0,0.0,0.0,0.0,0.0,0.0,0.0,0.0,0.0,0.0,0.0,0.0,0.0,0.0,0.0,0.0,0.0,0.0,0.0,0.0,0.0,0.0,0.0,0.0,0.0,0.0,0.0,0.0,0.0,0.0,0.0,0.0,0.0,0.0,0.0,0.0,0.0,0.0,0.0,0.0,0.0,0.0,0.0,0.0,0.0,0.0,0.0,0.0,0.0,0.0,0.0,0.0,0.0,0.0,0.0,0.0,0.0,0.0,0.0,0.0,0.0,0.0,0.0,0.0,0.0,0.0,0.0,0.0,0.0,0.0,0.0,0.0,0.0,0.0,0.0,0.0,0.0,0.0,0.0,0.0,0.0,0.0,0.0,0.0,0.0,0.0,0.0,0.0,0.0,0.0,0.0,0.0,0.0,0.0,0.0,0.0,0.0,0.0,0.0,0.0,0.0,0.0,0.0,0.0,0.0,0.0,0.0,0.0,0.0,0.0,0.0,0.0,0.0,0.0,0.0,0.0,0.0,0.0,0.0,0.0,0.0,0.0,0.0,0.0,0.0,0.0,0.0,0.0,0.0,0.0,0.0,0.0,0.0,0.0,0.0,0.0,0.0,0.0,0.0,0.0,0.0,0.0,0.0,0.0,0.0,0.0,0.0,0.0,0.0,0.0,0.0,0.0,0.0,0.0,0.0,0.0,0.0,0.0,0.0,0.0,0.0,0.0,0.0,0.0,0.0,0.0,0.0,0.0,0.0,0.0,0.0,0.0,0.0,0.0,0.0,0.0,0.0,0.0,0.0,0.0,0.0,0.0,0.0,0.0,0.0,0.0,0.0,0.0,0.0,0.0,0.0,0.0,0.0,0.0,0.0,0.0,0.0,0.0,0.0,0.0,0.0,0.0,0.0,0.0,0.0,0.0,0.0,0.0,0.0,0.0,0.0,0.0,0.0,0.0,0.0,0.0,0.0,0.0,0.0,0.0,0.0,0.0,0.0,0.0,0.0,0.0,0.0,0.0,0.0,0.0,0.0,0.0,0.0,0.0,0.0,0.0,0.0,0.0,0.0,0.0,0.0,0.0,0.0,0.0,0.0,0.0,0.0,0.0,0.0,0.0,0.0,0.0,0.0,0.0,0.0,0.0,0.0,0.0,0.0,0.0,0.0,0.0,0.0,0.0,0.0,0.0,0.0,0.0,0.0,0.0,0.0,0.0,0.0,0.0,0.0,0.0,0.0,0.0,0.0,0.0,0.0,0.0,0.0,0.0,0.0,0.0,0.0,0.0,0.0,0.0,0.0,0.0,0.0,0.0,0.0,0.0,0.0,0.0,0.0,0.0,0.0,0.0,0.0,0.0,0.0,0.0,0.0,0.0,0.0,0.0,0.0,0.0,0.0,0.0,0.0,0.0,0.0,0.0,0.0,0.0,0.0,0.0,0.0,0.0,0.0,0.0,0.0,0.0,0.0,0.0,0.0,0.0,0.0,0.0,0.0,0.0,0.0,0.0,0.0,0.0,0.0,0.0,0.0,0.0,0.0,0.0,0.0,0.0,0.0,0.0,0.0,0.0,0.0,0.0,0.0,0.0,0.0,0.0,0.0,0.0,0.0,0.0,0.0,0.0,0.0,0.0,0.0,0.0,0.0,0.0,0.0,0.0,0.0,0.0,0.0,0.0,0.0,0.0,0.0,0.0,0.0,0.0,0.0,0.0,0.0,0.0,0.0,0.0,0.0,0.0,0.0,0.0,0.0,0.0,0.0,0.0,0.0,0.0,0.0,0.0,0.0,0.0,0.0,0.0,0.0,0.0,0.0,0.0,0.0,0.0,0.0,0.0,0.0,0.0,0.0,0.0,0.0,0.0,0.0,0.0,0.0,0.0,0.0,0.0,0.0,0.0,0.0,0.0,0.0,0.0,0.0,0.0,0.0,0.0,0.0,0.0,0.0,0.0,0.0,0.0,0.0,0.0,0.0,0.0,0.0,0.0,0.0,0.0,0.0,0.0,0.0,0.0,0.0,0.0,0.0,0.0,0.0,0.0,0.0,0.0,0.0,0.0,0.0,0.0,0.0,0.0,0.0,0.0,0.0,0.0,0.0,0.0,0.0,0.0,0.0,0.0,0.0,0.0,0.0,0.0,0.0,0.0,0.0,0.0,0.0,0.0,0.0,0.0,0.0,0.0,0.0,0.0,0.0,0.0,0.0,0.0,0.0,0.0,0.0,0.0,0.0,0.0,0.0,0.0,0.0,0.0,0.0,0.0,0.0,0.0,0.0,0.0,0.0,0.0,0.0,0.0,0.0,0.0,0.0,0.0,0.0,0.0,0.0,0.0,0.0,0.0,0.0,0.0,0.0,0.0,0.0,0.0,0.0,0.0,0.0,0.0,0.0,0.0,0.0,0.0,0.0,0.0,0.0,0.0,0.0,0.0,0.0,0.0,0.0,0.0,0.0,0.0,0.0,0.0,0.0,0.0,0.0,0.0,0.0,0.0,0.0,0.0,0.0,0.0,0.0,0.0,0.0,0.0,0.0,0.0,0.0,0.0,0.0,0.0,0.0,0.0,0.0,0.0,0.0,0.0,0.0,0.0,0.0,0.0,0.0,0.0,0.0,0.0,0.0,0.0,0.0,0.0,0.0,0.0,0.0,0.0,0.0,0.0,0.0,0.0,0.0,0.0,0.0,0.0,0.0,0.0,0.0,0.0,0.0,0.0,0.0,0.0,0.0,0.0,0.0,0.0,0.0,0.0,0.0,0.0,0.0,0.0,0.0,0.0,0.0,0.0,0.0,0.0,0.0,0.0,0.0,0.0,0.0,0.0,0.0,0.0,0.0,0.0,0.0,0.0,0.0,0.0,0.0,0.0,0.0,0.0,0.0,0.0,0.0,0.0,0.0,0.0,0.0,0.0,0.0,0.0,0.0,0.0,0.0,0.0,0.0,0.0,0.0,0.0,0.0,0.0,0.0,0.0,0.0,0.0,0.0,0.0,0.0,0.0,0.0,0.0,0.0,0.0,0.0,0.0,0.0,0.0,0.0,0.0,0.0,0.0,0.0,0.0,0.0,0.0,0.0,0.0,0.0,0.0,0.0,0.0,0.0,0.0,0.0,0.0,0.0,0.0,0.0,0.0,0.0,0.0,0.0,0.0,0.0,0.0,0.0,0.0,0.0,0.0,0.0,0.0,0.0,0.0,0.0,0.0,0.0,0.0,0.0,0.0,0.0,0.0,0.0,0.0,0.0,0.0,0.0,0.0,0.0,0.0,0.0,0.0,0.0,0.0,0.0,0.0,0.0,0.0,0.0,0.0,0.0,0.0,0.0,0.0,0.0,0.0,0.0,0.0,0.0,0.0,0.0,0.0,0.0,0.0,0.0,0.0,0.0,0.0,0.0,0.0,0.0,0.0,0.0,0.0,0.0,0.0,0.0,0.0,0.0,0.0,0.0,0.0,0.0,0.0,0.0,0.0,0.0,0.0,0.0,0.0,0.0,0.0,0.0,0.0,0.0,0.0,0.0,0.0,0.0,0.0,0.0,0.0,0.0,0.0,0.0,0.0,0.0,0.0,0.0,0.0,0.0,0.0,0.0,0.0,0.0,0.0,0.0,0.0,0.0,0.0,0.0,0.0,0.0,0.0,0.0,0.0,0.0,0.0,0.0,0.0,0.0,0.0,0.0,0.0,0.0,0.0,0.0,0.0,0.0,0.0,0.0,0.0,0.0,0.0,0.0,0.0,0.0,0.0,0.0,0.0,0.0,0.0,0.0,0.0,0.0,0.0,0.0,0.0,0.0,0.0,0.0,0.0,0.0,0.0,0.0,0.0,0.0,0.0,0.0,0.0,0.0,0.0,0.0,0.0,0.0,0.0,0.0,0.0,0.0,0.0,0.0,0.0,0.0,0.0,0.0,0.0,0.0,0.0,0.0,0.0,0.0,0.0,0.0,0.0,0.0,0.0,0.0,0.0,0.0,0.0,0.0,0.0,0.0,0.0,0.0,0.0,0.0,0.0,0.0,0.0,0.0,0.0,0.0,0.0,0.0,0.0,0.0,0.0,0.0,0.0,0.0,0.0,0.0,0.0,0.0,0.0,0.0,0.0,0.0,0.0,0.0,0.0,0.0,0.0,0.0,0.0,0.0,0.0,0.0,0.0,0.0,0.0,0.0,0.0,0.0,0.0,0.0,0.0,0.0,0.0,0.0,0.0,0.0,0.0,0.0,0.0,0.0,0.0,0.0,0.0,0.0,0.0,0.0,0.0,0.0,0.0,0.0,0.0,0.0,0.0,0.0,0.0,0.0,0.0,0.0,0.0,0.0,0.0,0.0,0.0,0.0,0.0,0.0,0.0,0.0,0.0,0.0,0.0,0.0,0.0,0.0,0.0,0.0,0.0,0.0,0.0,0.0,0.0,0.0,0.0,0.0,0.0,0.0,0.0,0.0,0.0,-0.4902,0.0,0.0,0.0,0.0,0.0,0.0,0.0,0.0,0.0,0.0,0.0,0.0,0.0,0.0,0.0,0.0,0.0,0.0,0.0,0.0,0.0,0.0,0.0,0.0,0.0,0.0,0.0,-0.5429,-0.5429,-0.5429,-0.5224,0.0,0.0,0.0,0.0,-0.4716,-0.475,-0.4829,-0.4957,-0.5015,-0.5414,-0.6113,-0.5351,-0.4835,-0.4542,0.0,0.0,0.0,0.0,0.0,0.0,0.0,0.0,0.0,0.0,0.0,0.0,0.0,0.0,0.0,0.0,0.0,0.0,0.0,0.0,0.0,0.0,0.0,0.0,0.0,0.0,0.0,0.0,0.0,0.0,0.0,0.0,0.0,0.0,0.0,0.0,0.0,0.0,0.0,0.0,0.0,0.0,0.0,0.0,0.0,0.0,0.0,0.0,0.0,0.0,0.0,0.0,0.0,0.0,0.0,0.0,0.0,0.0,0.0,0.0,0.0,0.0,0.0,0.0,0.0,0.0,0.0,0.0,0.0,0.0,0.0,-0.5272,0.0,0.0,0.0,0.0,0.0,0.0,0.0,0.0,0.0,0.0,0.0,0.0,0.0,0.0,0.0,0.0,0.0,0.0,0.0,0.0,0.0,0.0,0.0,-0.5742,-0.603,-0.6058,-0.598,-0.5923,-0.5953,-0.5429,-0.5155,-0.5224,-0.493,-0.4672,-0.4466,-0.4614,-0.4811,-0.5027,-0.5617,-0.6349,-0.7201,-0.7201,-0.7001,-0.66,-0.5845,0.0,0.0,0.0,0.0,0.0,0.0,0.0,0.0,0.0,0.0,0.0,0.0,0.0,0.0,0.0,0.0,0.0,0.0,0.0,0.0,0.0,0.0,0.0,0.0,0.0,0.0,0.0,0.0,0.0,0.0,0.0,0.0,0.0,0.0,0.0,0.0,0.0,0.0,0.0,0.0,0.0,0.0,0.0,0.0,0.0,0.0,0.0,0.0,0.0,0.0,0.0,0.0,0.0,0.0,0.0,0.0,0.0,0.0,0.0,0.0,0.0,0.0,0.0,0.0,-0.6593,-0.6954,-0.6954,-0.6749,-0.6375,-0.5873,-0.5425,-0.515,0.0,0.0,0.0,0.0,0.0,0.0,0.0,0.0,0.0,0.0,0.0,0.0,0.0,0.0,0.0,0.0,0.0,0.0,0.0,0.0,0.0,0.0,-0.665,-0.6984,-0.7101,-0.6684,-0.6452,-0.6568,-0.5709,-0.5337,-0.5693,-0.5282,-0.506,-0.5074,-0.5605,-0.5882,-0.5922,-0.7552,-0.8792,-0.9653,-0.9653,-0.988,-1.0187,-0.7582,-0.67,-0.7055,0.0,0.0,0.0,0.0,0.0,0.0,0.0,0.0,0.0,0.0,0.0,0.0,0.0,0.0,0.0,0.0,0.0,0.0,0.0,0.0,0.0,0.0,0.0,0.0,0.0,0.0,0.0,0.0,0.0,0.0,0.0,0.0,0.0,0.0,0.0,0.0,0.0,0.0,0.0,0.0,0.0,-0.5647,-0.6623,0.0,0.0,0.0,0.0,0.0,0.0,0.0,0.0,0.0,0.0,0.0,0.0,0.0,0.0,-0.5858,-0.6301,-0.6272,-0.5835,-0.6152,-0.6328,-0.6404,-0.6404,-0.6447,-0.6496,-0.6262,0.0,-0.5847,-0.5546,0.0,0.0,0.0,0.0,0.0,0.0,0.0,0.0,0.0,0.0,0.0,0.0,0.0,0.0,0.0,0.0,0.0,0.0,0.0,0.0,0.0,-0.7624,-0.8238,-0.7986,-0.8661,-0.855,-0.73,-0.7251,-0.6679,-0.53,-0.54,-0.5336,-0.4981,-0.5711,-0.6671,-0.7846,-0.9309,-1.0428,-1.1102,-1.1102,-1.1323,-1.1663,-1.0207,-0.9085,-0.8156,-0.7181,0.0,0.0,0.0,0.0,0.0,0.0,0.0,0.0,0.0,0.0,0.0,0.0,0.0,0.0,0.0,0.0,0.0,0.0,0.0,0.0,0.0,0.0,0.0,0.0,0.0,0.0,0.0,0.0,0.0,0.0,0.0,0.0,0.0,0.0,0.0,0.0,0.0,0.0,0.0,-0.5687,-0.6032,-0.6076,-0.574,-0.5499,0.0,0.0,0.0,0.0,0.0,0.0,0.0,0.0,0.0,-0.63,-0.6175,-0.612,-0.6154,-0.6538,-0.662,-0.6441,-0.6742,-0.6972,-0.7014,-0.7014,-0.7048,-0.7099,-0.6992,-0.6808,-0.6583,-0.6116,-0.609,-0.6365,0.0,0.0,0.0,0.0,0.0,-0.578,0.0,0.0,0.0,0.0,0.0,0.0,0.0,0.0,0.0,0.0,0.0,0.0,-0.7223,-0.8408,-0.922,-0.9433,-1.0043,-0.9852,-0.8491,-0.8352,-0.7446,-0.5503,-0.5566,-0.5487,-0.5138,-0.6297,-0.7873,-0.9884,-1.0862,-1.167,-1.2325,-1.2245,-1.2412,-1.2746,-1.2378,-1.1276,-0.9639,-0.8645,-0.7606,-0.6514,0.0,0.0,0.0,0.0,0.0,0.0,0.0,0.0,0.0,0.0,0.0,0.0,0.0,0.0,0.0,0.0,0.0,0.0,0.0,0.0,0.0,0.0,0.0,0.0,0.0,0.0,0.0,0.0,0.0,0.0,0.0,0.0,0.0,0.0,0.0,0.0,0.0,-0.5837,-0.6036,-0.5548,-0.5608,-0.5633,0.0,0.0,0.0,0.0,0.0,0.0,-0.6438,-0.6313,-0.6358,-0.6685,-0.6444,-0.639,-0.6583,-0.68,-0.7004,-0.7112,-0.7377,-0.7563,-0.7712,-0.7712,-0.7712,-0.7702,-0.755,-0.7417,-0.7238,-0.6683,-0.649,-0.6515,-0.6651,-0.6746,-0.682,-0.6999,-0.6579,-0.5975,0.0,0.0,0.0,0.0,0.0,0.0,0.0,0.0,0.0,0.0,0.0,-0.7253,-0.8818,-0.8823,-0.9619,-1.1828,-0.9938,-0.9168,-1.0461,-0.8132,-0.6822,-0.7078,-0.5888,-0.5477,-0.6013,-0.8,-0.994,-1.1772,-1.2071,-1.2654,-1.3507,-1.3234,-1.3447,-1.3975,-1.34,-1.2766,-1.1997,-0.9983,-0.9104,-0.8858,-0.6914,0.0,0.0,0.0,0.0,0.0,0.0,0.0,0.0,0.0,0.0,0.0,0.0,0.0,0.0,0.0,0.0,0.0,0.0,0.0,0.0,0.0,0.0,0.0,0.0,0.0,0.0,0.0,0.0,0.0,0.0,0.0,0.0,0.0,0.0,0.0,0.0,0.0,0.0,-0.5467,-0.5456,0.0,0.0,0.0,0.0,-0.5168,-0.5906,-0.6271,-0.6029,-0.6201,-0.6428,-0.6685,-0.6936,-0.716,-0.7357,-0.7475,-0.7628,-0.7767,-0.778,-0.7868,-0.7968,-0.7968,-0.7968,-0.7961,-0.7855,-0.7784,-0.7719,-0.6999,-0.6904,-0.7251,-0.7134,-0.7421,-0.782,-0.7165,-0.6875,-0.6726,0.0,0.0,0.0,0.0,0.0,0.0,0.0,0.0,-0.4803,-0.555,-0.7017,-0.8075,-0.83,-0.9668,-1.0822,-1.1514,-1.1621,-1.1589,-1.1492,-1.0282,-0.9086,-0.8018,-0.7019,-0.7088,-0.8395,-0.9704,-1.1049,-1.2469,-1.2926,-1.3427,-1.3928,-1.3821,-1.3988,-1.4355,-1.4148,-1.3928,-1.3607,-1.173,-1.0388,-0.9412,-0.8134,-0.7022,0.0,0.0,0.0,0.0,0.0,0.0,0.0,0.0,0.0,0.0,0.0,0.0,0.0,0.0,0.0,0.0,0.0,0.0,0.0,0.0,0.0,0.0,0.0,0.0,0.0,0.0,0.0,0.0,0.0,0.0,0.0,0.0,0.0,0.0,0.0,0.0,0.0,-0.5665,-0.5999,0.0,-0.5696,-0.606,-0.6252,-0.603,-0.6465,-0.6731,-0.6691,-0.6892,-0.7109,-0.7407,-0.7516,-0.7645,-0.7801,-0.7855,-0.786,-0.7911,-0.7911,-0.7938,-0.7988,-0.7988,-0.7988,-0.7985,-0.7931,-0.7911,-0.788,-0.7567,-0.7372,-0.7339,-0.7178,-0.7181,-0.7258,-0.7074,-0.6899,-0.6745,0.0,0.0,0.0,0.0,0.0,0.0,0.0,0.0,-0.4804,-0.5539,-0.7146,-0.8179,-0.8072,-0.9896,-1.1357,-1.188,-1.258,-1.2795,-1.2364,-1.1319,-1.0053,-0.8596,-0.81,-0.8553,-0.9976,-1.1069,-1.21,-1.3085,-1.3547,-1.3948,-1.4229,-1.4229,-1.4389,-1.4669,-1.4669,-1.4669,-1.4539,-1.2854,-1.1546,-1.0474,-0.9097,-0.8043,-0.716,0.0,0.0,0.0,0.0,0.0,0.0,0.0,0.0,0.0,0.0,0.0,0.0,0.0,0.0,0.0,0.0,0.0,0.0,0.0,0.0,0.0,0.0,0.0,0.0,0.0,0.0,0.0,0.0,0.0,0.0,0.0,0.0,0.0,0.0,0.0,-0.6067,-0.5966,-0.6532,-0.677,-0.6409,-0.6641,-0.6794,-0.6702,-0.6983,-0.7217,-0.7314,-0.7465,-0.7634,-0.7879,-0.7889,-0.7887,-0.7988,-0.7988,-0.7988,-0.7988,-0.7988,-0.7988,-0.7988,-0.7988,-0.7988,-0.7988,-0.7988,-0.7988,-0.7982,-0.788,-0.7773,-0.7577,-0.7373,-0.7193,-0.7166,-0.7216,-0.7139,-0.6932,0.0,0.0,0.0,0.0,0.0,0.0,0.0,-0.4482,-0.489,-0.51,-0.6423,-0.7602,-0.8275,-0.9431,-1.1032,-1.3141,-1.2559,-1.2386,-1.318,-1.1002,-0.9432,-0.8805,-0.9056,-0.9639,-1.0571,-1.2008,-1.3034,-1.3558,-1.3933,-1.4255,-1.4536,-1.4536,-1.4696,-1.5022,-1.5022,-1.5028,-1.4925,-1.3357,-1.2568,-1.2178,-0.9815,-0.878,-0.847,0.0,0.0,0.0,0.0,0.0,0.0,0.0,0.0,0.0,0.0,0.0,0.0,0.0,0.0,0.0,0.0,0.0,0.0,0.0,0.0,0.0,0.0,0.0,0.0,0.0,0.0,0.0,0.0,0.0,0.0,0.0,0.0,0.0,-0.514,-0.6061,-0.6614,-0.6375,-0.6996,-0.7214,-0.6627,-0.7105,-0.7343,-0.7142,-0.7451,-0.7678,-0.7811,-0.7818,-0.7885,-0.7985,-0.7988,-0.7988,-0.7988,-0.7988,-0.7988,-0.7988,-0.7988,-0.7988,-0.7988,-0.7988,-0.7988,-0.7988,-0.7988,-0.7988,-0.7988,-0.7988,-0.7988,-0.7961,-0.7726,-0.7614,-0.7614,-0.7614,-0.7516,-0.7363,0.0,0.0,0.0,0.0,0.0,0.0,-0.4242,-0.4942,-0.5472,-0.5525,-0.7274,-0.8253,-0.7542,-0.8777,-1.0337,-1.1911,-1.1218,-1.1516,-1.3385,-1.1116,-0.9224,-0.8201,-0.9062,-0.9759,-1.0178,-1.1478,-1.2463,-1.3151,-1.4222,-1.4807,-1.4843,-1.4843,-1.4997,-1.5277,-1.5277,-1.5391,-1.5525,-1.4904,-1.4479,-1.4017,-1.1345,-0.9965,-0.9416,0.0,0.0,0.0,0.0,0.0,0.0,0.0,0.0,0.0,0.0,0.0,0.0,0.0,0.0,0.0,0.0,0.0,0.0,0.0,0.0,0.0,0.0,0.0,0.0,0.0,0.0,0.0,0.0,0.0,0.0,0.0,0.0,-0.623,-0.6118,-0.663,-0.7071,-0.7214,-0.7702,-0.8009,-0.7842,-0.8018,-0.8116,-0.797,-0.8038,-0.8055,-0.7931,-0.7928,-0.7944,-0.7988,-0.7988,-0.7988,-0.7988,-0.7988,-0.7988,-0.7988,-0.7988,-0.7988,-0.7988,-0.7988,-0.7988,-0.7988,-0.7988,-0.7988,-0.7988,-0.7988,-0.7988,-0.7982,-0.7901,-0.787,-0.787,-0.787,-0.7821,-0.7651,0.0,0.0,0.0,0.0,0.0,0.0,-0.4509,-0.5215,-0.562,-0.5387,-0.707,-0.7878,-0.6746,-0.8664,-1.0251,-1.084,-1.1219,-1.1769,-1.2465,-1.0501,-0.9094,-0.8577,-0.9235,-0.9759,-1.0069,-1.1074,-1.2031,-1.3012,-1.38,-1.4514,-1.5189,-1.5189,-1.5297,-1.5578,-1.5578,-1.5671,-1.5724,-1.4448,-1.4481,-1.51,-1.2238,-1.0821,-1.03,-0.9351,-0.8161,-0.6991,-0.6728,-0.6728,-0.6845,-0.6761,0.0,0.0,0.0,0.0,0.0,0.0,0.0,0.0,0.0,0.0,0.0,0.0,0.0,0.0,0.0,0.0,0.0,0.0,0.0,0.0,0.0,0.0,0.0,0.0,-0.6502,-0.7041,-0.7248,-0.7339,-0.7536,-0.7845,-0.8113,-0.8344,-0.8353,-0.8435,-0.8448,-0.8367,-0.836,-0.8292,-0.8143,-0.8136,-0.8106,-0.7992,-0.7988,-0.8022,-0.8136,-0.8022,-0.8022,-0.8136,-0.8019,-0.7988,-0.7988,-0.7988,-0.7988,0.0,-0.7988,-0.7988,-0.7988,-0.7988,-0.7988,0.0,0.0,0.0,0.0,0.0,-0.7848,-0.7689,0.0,0.0,0.0,0.0,0.0,0.0,-0.4728,-0.5348,-0.559,-0.5107,-0.6419,-0.706,-0.6187,-0.8771,-1.0434,-1.0036,-1.1692,-1.2282,-1.1082,-0.9788,-0.9297,-0.9703,-0.9733,-0.9962,-1.0362,-1.088,-1.1784,-1.31,-1.31,-1.3918,-1.5444,-1.5444,-1.5585,-1.5784,-1.5784,-1.5784,-1.5635,-1.3307,-1.3692,-1.5561,-1.3,-1.1719,-1.1247,-1.0269,-0.9248,-0.8292,-0.8264,-0.8069,-0.7707,-0.723,0.0,0.0,0.0,0.0,0.0,0.0,0.0,0.0,0.0,0.0,0.0,0.0,0.0,0.0,0.0,0.0,0.0,0.0,0.0,0.0,0.0,0.0,0.0,0.0,-0.7255,-0.7712,-0.8269,-0.8058,-0.7987,-0.8262,-0.8361,-0.837,-0.8496,-0.8523,-0.8526,-0.8509,-0.8492,-0.8421,-0.833,0.0,0.0,0.0,0.0,-0.8133,-0.832,-0.8133,-0.8133,-0.832,-0.8113,-0.7988,-0.7988,-0.7988,-0.7988,-0.7988,-0.7988,-0.7988,-0.7988,-0.7988,-0.7988,-0.7988,-0.7988,-0.7988,-0.7975,-0.7885,-0.7756,0.0,0.0,0.0,0.0,0.0,0.0,0.0,-0.4787,-0.5538,-0.6073,-0.5958,-0.7156,-0.7694,-0.6821,-0.8249,-0.9428,-0.9877,-1.011,-1.0446,-1.0956,-1.0955,-1.0976,-1.1107,-1.1329,-1.145,-1.1399,-1.15,-1.2293,-1.3726,-1.3726,-1.4426,-1.5698,-1.5698,-1.5724,-1.5784,-1.5784,-1.5784,-1.5784,-1.5248,-1.5343,-1.573,-1.5184,-1.4139,-1.292,-1.2467,-1.0916,-0.8922,-0.8794,-0.8274,-0.7664,-0.8003,-0.7853,-0.7537,-0.7875,-0.7237,0.0,0.0,0.0,0.0,0.0,0.0,0.0,0.0,0.0,0.0,0.0,0.0,0.0,0.0,0.0,0.0,0.0,0.0,0.0,-0.7207,-0.7791,-0.8228,-0.8408,-0.8391,-0.8374,-0.8435,-0.855,-0.8635,-0.8662,-0.8777,-0.8801,-0.8676,-0.8554,-0.8421,-0.833,-0.815,0.0,-0.7992,-0.816,-0.8241,-0.8323,-0.8241,-0.8241,-0.832,0.0,0.0,-0.7988,-0.7988,-0.7988,-0.7988,-0.7988,-0.7988,-0.7988,-0.7988,-0.7988,-0.7988,-0.7988,-0.7988,-0.7985,-0.7958,-0.7928,-0.7884,0.0,0.0,0.0,0.0,0.0,0.0,-0.5022,-0.5558,-0.5983,-0.6082,-0.7015,-0.75,-0.7131,-0.8141,-0.8852,-0.891,-0.9051,-0.9662,-1.0922,-1.101,-1.1253,-1.1781,-1.1792,-1.1794,-1.1811,-1.1778,-1.2502,-1.3926,-1.3926,-1.4214,-1.4854,-1.5486,-1.5439,-1.4902,-1.5534,-1.5784,-1.5778,-1.5099,-1.5242,-1.573,-1.5092,-1.4348,-1.3572,-1.2748,-1.1657,-1.0334,-0.8861,-0.8517,-0.8628,-0.8072,-0.7701,-0.7472,-0.7595,-0.7282,-0.6881,0.0,0.0,0.0,0.0,0.0,0.0,0.0,0.0,0.0,0.0,0.0,0.0,0.0,0.0,-0.5833,-0.6281,0.0,-0.7322,-0.7841,-0.8245,-0.854,-0.8689,-0.871,-0.8682,-0.8604,-0.8662,-0.874,-0.8818,-0.8838,-0.8851,-0.8828,-0.8754,-0.8648,-0.8499,-0.8343,-0.8262,-0.8262,-0.8265,-0.834,-0.8489,-0.8343,-0.8357,-0.8374,-0.8147,-0.7988,-0.7988,-0.7988,-0.7988,-0.7988,-0.7988,-0.7988,-0.7988,-0.7988,-0.7988,-0.7988,-0.7988,-0.7988,-0.7988,-0.7988,-0.7941,-0.7867,0.0,0.0,0.0,0.0,0.0,0.0,0.0,-0.5524,-0.5807,-0.6079,-0.6734,-0.7193,-0.725,-0.808,-0.8453,-0.804,-0.8588,-0.9513,-1.073,-1.0948,-1.1398,-1.2267,-1.2358,-1.2479,-1.2668,-1.2431,-1.2958,-1.4262,-1.4022,-1.4022,-1.4268,-1.5045,-1.4902,-1.3926,-1.4949,-1.5439,-1.5391,-1.4609,-1.4704,-1.5337,-1.4316,-1.3734,-1.3392,-1.2334,-1.1896,-1.158,-0.9063,-0.8842,-0.9426,-0.7933,-0.7292,-0.7065,-0.6932,-0.7098,-0.7332,-0.7446,-0.7363,0.0,0.0,0.0,0.0,0.0,0.0,0.0,0.0,0.0,-0.5311,-0.5675,-0.6017,-0.6451,-0.7105,-0.7421,-0.7808,-0.8421,-0.8655,-0.8798,-0.8865,-0.8885,-0.8838,-0.8771,-0.8754,-0.8791,-0.8831,-0.8865,-0.8871,-0.8841,-0.8841,-0.8828,-0.8672,-0.855,-0.8469,-0.8442,-0.8384,-0.8469,-0.871,-0.8445,-0.837,-0.8479,-0.818,-0.7988,-0.7988,-0.7988,-0.7988,-0.7988,-0.7988,-0.8137,-0.8382,-0.8088,-0.7988,-0.7988,-0.7988,-0.7988,-0.7988,-0.7988,-0.8108,-0.8191,0.0,0.0,0.0,0.0,0.0,0.0,0.0,0.0,-0.5903,-0.6455,-0.7071,-0.737,-0.7152,-0.7639,-0.8104,-0.8319,-0.9117,-0.9771,-1.0166,-1.1664,-1.2726,-1.3069,-1.4316,-1.5098,-1.5337,-1.4268,-1.4316,-1.5588,-1.4459,-1.4459,-1.5581,-1.4561,-1.4022,-1.3926,-1.407,-1.4118,-1.4166,-1.5146,-1.4997,-1.4118,-1.3968,-1.3199,-1.2091,-1.1945,-1.1896,-1.1721,-1.0162,-0.9397,-0.9017,-0.7951,-0.738,-0.7139,-0.7424,-0.7426,-0.7603,-0.8594,-0.8269,-0.7692,-0.7954,-0.6649,-0.5249,-0.5356,-0.5209,-0.5299,0.0,0.0,-0.642,-0.6809,-0.7088,-0.7326,-0.7672,-0.7974,-0.8282,-0.8628,-0.8815,-0.8865,-0.8881,-0.8885,-0.8875,-0.8861,-0.8858,-0.8811,-0.8747,-0.8804,-0.8828,-0.8747,-0.8737,-0.8669,-0.8516,-0.8489,-0.8425,-0.835,-0.8533,-0.8676,-0.871,-0.8543,-0.8465,-0.8479,-0.818,-0.7988,-0.7988,-0.7988,-0.7988,-0.7988,-0.7988,-0.8676,-0.9706,-0.8482,-0.7988,-0.7988,-0.7988,-0.7988,-0.7988,-0.7988,-0.8764,-0.9575,0.0,0.0,0.0,0.0,0.0,0.0,0.0,0.0,0.0,-0.6278,-0.6592,-0.6817,-0.7028,-0.7095,-0.7335,-0.7826,-0.8056,-0.8669,-0.9799,-1.1376,-1.2546,-1.3164,-1.4737,-1.5705,-1.5778,-1.5289,-1.5289,-1.5784,-1.5289,-1.4902,-1.4704,-1.4902,-1.4609,-1.3926,-1.4657,-1.4997,-1.5045,-1.5581,-1.5045,-1.3968,-1.4704,-1.3295,-1.0898,-1.2078,-1.1857,-1.0853,-1.043,-1.043,0.0,-0.8473,-0.7773,-0.7675,-0.7299,-0.7342,-0.7689,-0.8675,-0.8221,-0.7275,-0.6917,-0.6169,-0.5542,-0.5607,-0.5766,-0.6044,-0.6549,-0.6702,-0.6841,-0.72,-0.7461,-0.7719,-0.8024,-0.8252,-0.8462,0.0,-0.8838,-0.8851,-0.8818,-0.8804,-0.8774,-0.8682,-0.8672,-0.8682,-0.871,-0.8767,-0.8777,-0.8716,-0.8794,-0.8815,-0.875,-0.8662,-0.8628,-0.8659,-0.8693,-0.8754,-0.8842,-0.8693,-0.857,-0.8479,-0.8272,-0.8126,-0.7988,-0.7988,-0.7988,-0.7988,-0.7988,-0.8333,-0.8775,-0.8233,-0.7988,-0.7988,-0.7988,-0.8482,-0.9069,-0.8283,-0.8333,-0.8775,0.0,0.0,0.0,0.0,0.0,0.0,0.0,0.0,0.0,0.0,-0.6068,-0.6211,-0.6593,-0.6473,-0.6587,-0.7196,-0.7219,-0.7716,-0.8892,-1.0825,-1.2081,-1.2491,-1.4485,-1.5625,-1.5705,-1.5744,-1.5784,-1.5784,-1.5784,-1.5337,-1.4459,-1.4997,-1.48,-1.392,-1.4465,-1.4711,-1.4711,-1.4711,-1.398,-1.2952,-1.422,-1.2737,-0.9948,-1.1995,-1.1701,-1.023,-1.019,-1.0584,-1.0762,-0.8585,-0.7915,-0.7888,-0.7311,-0.7476,-0.8013,-0.8926,-0.8294,-0.717,-0.6285,-0.5884,-0.5783,-0.5945,-0.6322,-0.6678,-0.6763,-0.6983,-0.7244,-0.7502,-0.7726,-0.7957,-0.8221,-0.8353,-0.8486,-0.8679,-0.8804,-0.8835,-0.8726,-0.871,-0.8638,-0.8445,-0.8387,-0.8404,-0.8513,-0.8598,-0.8648,-0.8648,-0.8791,-0.8821,-0.8821,-0.8811,-0.8804,-0.8817,-0.8808,-0.8825,-0.8881,-0.8788,-0.8632,-0.8479,-0.8388,-0.8187,-0.7988,-0.7988,-0.8187,-0.8531,-0.8137,-0.8187,-0.8531,-0.8137,-0.7988,-0.7988,-0.7988,-0.8577,-0.9316,-0.8382,-0.8233,-0.8482,0.0,0.0,0.0,0.0,0.0,0.0,0.0,0.0,0.0,0.0,0.0,0.0,0.0,-0.5728,-0.5979,-0.6586,-0.7154,-0.7411,-0.7197,-1.0146,-1.1521,-1.0695,-1.3492,-1.5169,-1.5404,-1.5685,-1.5784,-1.5784,-1.5784,-1.5784,-1.573,-1.4513,-1.3926,-1.383,-1.2576,-1.1999,-1.1999,-1.1999,-1.1263,-1.0243,-1.1507,-1.0881,-0.933,-1.1373,-1.1409,-1.0279,-0.9457,-0.9316,-0.9341,-0.7991,-0.7525,-0.7536,-0.7736,-0.8047,-0.8576,-0.9589,-0.8972,-0.7782,-0.6917,-0.6146,-0.5735,-0.6347,-0.679,-0.7152,-0.7499,-0.7678,-0.7828,-0.7938,-0.7978,-0.8079,-0.8241,-0.8327,-0.8374,-0.8662,-0.8713,-0.8716,-0.871,-0.871,-0.8604,-0.8364,-0.8143,-0.8005,0.0,-0.8319,-0.8489,-0.8489,-0.8632,-0.8716,-0.8716,-0.8801,-0.8811,-0.8723,-0.8801,-0.8878,-0.8885,-0.8788,-0.8632,-0.8479,-0.8388,-0.8187,-0.7988,-0.7988,-0.8726,-0.985,-0.8581,-0.8726,-0.985,-0.8531,-0.7988,-0.7988,-0.7988,-0.8038,-0.8038,-0.8041,-0.8821,-0.9752,0.0,0.0,0.0,0.0,0.0,0.0,0.0,0.0,0.0,0.0,0.0,0.0,0.0,0.0,0.0,0.0,-0.6313,-0.6615,-0.7333,-0.9294,-1.039,-1.0252,-1.2716,-1.4093,-1.4186,-1.4665,-1.5057,-1.5257,-1.5257,-1.5351,-1.5545,-1.5111,-1.4967,-1.514,-1.4711,-1.4465,-1.4465,-1.4465,-1.3641,-1.2357,-1.3256,-1.2191,-1.0303,-1.1934,-1.127,-0.95,0.0,-0.9709,-0.9438,-0.8184,-0.785,-0.7911,-0.7572,-0.7832,-0.8216,-0.7986,-0.7715,-0.7321,-0.6356,-0.6275,-0.6573,-0.7013,-0.7329,-0.7641,-0.7796,-0.788,-0.7928,-0.7978,-0.7837,-0.7763,-0.7814,-0.7902,-0.7997,-0.8096,-0.8448,-0.8642,-0.8445,-0.8499,-0.8411,-0.8011,-0.8011,0.0,0.0,0.0,0.0,-0.8469,-0.8625,-0.8754,-0.8801,-0.8854,-0.8861,-0.8807,-0.8858,-0.8885,-0.8885,-0.8834,-0.8784,-0.8632,-0.8387,-0.8187,-0.7988,-0.7988,-0.8237,-0.8627,-0.8187,-0.8237,-0.8627,-0.8187,-0.7988,-0.7988,-0.7988,-0.7988,-0.7988,-0.7988,-0.8283,-0.8627,0.0,0.0,0.0,0.0,0.0,0.0,0.0,0.0,0.0,0.0,0.0,0.0,0.0,0.0,0.0,0.0,0.0,-0.6206,-0.6993,-0.8409,-0.936,-0.9616,-1.1484,-1.2639,-1.2807,-1.318,-1.3614,-1.4057,-1.395,-1.4157,-1.4616,-1.4502,-1.4609,-1.4852,-1.4495,-1.4346,-1.4307,-1.3939,-1.3128,-1.2131,-1.301,-1.2087,-1.0345,-1.1421,-1.0621,0.0,-0.9101,-0.9051,-0.8805,-0.8019,-0.7997,-0.8177,-0.7666,-0.7822,-0.8062,-0.7281,-0.7081,-0.7026,-0.6376,-0.6637,-0.717,-0.7522,-0.7794,-0.7987,-0.7978,-0.7988,-0.7961,-0.7853,-0.7919,-0.7937,-0.7825,-0.784,-0.8061,-0.8648,-0.8852,-0.8955,-0.8925,-0.9006,-0.878,-0.7982,-0.788,-0.7891,0.0,0.0,0.0,-0.8459,-0.8574,-0.8743,-0.9001,-0.8912,-0.8905,-0.9015,-0.8908,-0.8885,-0.8885,-0.8885,-0.8807,-0.8706,-0.8411,-0.8218,-0.8119,-0.8015,-0.7988,-0.7988,-0.7988,-0.7988,-0.7988,-0.7988,-0.7988,-0.7988,-0.7988,-0.7988,-0.7988,-0.7988,-0.7988,-0.7988,0.0,0.0,0.0,0.0,0.0,0.0,0.0,0.0,0.0,0.0,0.0,0.0,0.0,0.0,0.0,0.0,0.0,0.0,-0.6203,-0.7532,-0.8448,-0.8728,-0.9873,-1.0735,-1.1269,-1.1309,-1.1602,-1.2211,-1.1986,-1.2265,-1.3113,-1.2871,-1.2904,-1.3094,-1.2166,-1.1734,-1.1663,-1.0709,-1.0107,-0.9881,-1.0791,-1.0509,-0.9565,-0.9919,-0.9532,-0.8671,-0.7839,-0.7504,-0.7471,-0.7504,-0.7909,-0.8315,-0.7977,-0.7975,-0.8029,-0.7465,-0.7113,-0.6917,-0.6919,-0.7187,-0.7529,-0.7907,-0.8167,-0.8231,-0.8035,-0.7985,-0.7933,-0.7685,-0.8154,-0.8533,0.0,0.0,-0.8497,-1.0,-0.9816,-0.9564,-0.9849,-1.0032,-0.9621,0.0,0.0,0.0,0.0,0.0,0.0,-0.8482,0.0,-0.8699,-0.9197,-0.9028,-0.9011,-0.9207,-0.9015,-0.8885,-0.8885,-0.8885,-0.8807,-0.8706,-0.8428,-0.8337,-0.8316,-0.8166,-0.8095,-0.8088,-0.8187,-0.8187,-0.8088,-0.8095,-0.8052,-0.8002,-0.8008,-0.8008,-0.8002,-0.8002,-0.7995,-0.7988,0.0,0.0,0.0,0.0,0.0,0.0,0.0,0.0,0.0,0.0,0.0,0.0,0.0,0.0,0.0,0.0,0.0,0.0,-0.6188,-0.6935,-0.7504,-0.7811,-0.8745,-0.9426,-0.9764,-1.0197,-1.0635,-1.1035,-1.1182,-1.1443,-1.1848,-1.2024,-1.2288,-1.2538,-1.2258,-1.2139,-1.2139,-1.1858,-1.1458,-1.0948,-1.0798,-1.0443,-0.99,-0.9567,-0.9031,-0.8482,-0.8248,-0.7732,-0.7208,-0.7639,-0.7999,-0.816,-0.7621,-0.728,-0.7098,-0.7137,-0.7122,-0.7066,-0.7252,-0.7719,-0.8225,-0.834,-0.8319,-0.831,-0.8221,-0.7953,-0.7766,-0.7986,-0.7835,-0.7739,0.0,0.0,0.0,-0.8367,-0.8525,0.0,-0.8704,-0.8918,0.0,-0.8292,0.0,-0.8286,-0.8218,-0.8306,0.0,0.0,-0.8821,-0.8971,-0.9306,-0.9181,-0.9173,-0.9207,-0.9015,-0.8885,-0.8885,-0.8885,-0.8807,-0.871,-0.8635,-0.8482,-0.832,-0.9221,-0.9576,-0.9558,-1.0485,-1.0386,-0.9517,-0.9592,-0.9105,-0.8221,-0.833,-0.8306,-0.8211,-0.8211,-0.814,-0.7988,0.0,0.0,0.0,0.0,0.0,0.0,0.0,0.0,0.0,0.0,0.0,0.0,0.0,0.0,0.0,0.0,0.0,0.0,0.0,-0.6266,-0.664,-0.7082,-0.7464,-0.7776,-0.8045,-0.8498,-0.8838,-0.9032,-0.9327,-0.9599,-0.9864,-1.006,-1.0294,-1.0588,-1.0842,-1.0922,-1.0936,-1.1096,-1.0889,0.0,0.0,-0.9419,-0.9064,-0.8472,-0.8039,-0.7782,-0.7782,-0.7471,-0.7076,-0.7355,-0.7527,-0.7626,-0.7621,-0.7262,-0.6985,-0.7454,-0.7405,-0.7333,-0.7746,-0.8211,-0.8567,-0.8499,-0.8421,-0.8361,-0.8295,-0.8038,-0.7897,-0.8094,-0.8091,-0.8075,-0.8241,-0.7983,0.0,0.0,0.0,0.0,-0.9034,-0.9291,-0.9202,0.0,-0.8533,0.0,-0.8564,-0.8693,-0.8903,0.0,-0.8993,-0.9096,-0.9462,-0.9337,-0.9309,-0.9309,-0.911,-0.9001,-0.8885,-0.8885,-0.8841,-0.8811,-0.8743,-0.8938,-0.9436,-0.9988,-1.0604,-1.123,0.0,-1.1565,-1.1064,-1.1125,-1.0722,-1.0087,-1.0186,-1.0262,-1.0229,-0.9966,-0.9546,-0.9018,0.0,0.0,0.0,0.0,0.0,0.0,0.0,0.0,0.0,0.0,0.0,0.0,0.0,0.0,0.0,0.0,0.0,0.0,0.0,0.0,-0.5898,-0.6453,-0.6251,-0.627,-0.6546,-0.6774,-0.6886,-0.6886,-0.7229,-0.7511,-0.7732,-0.7772,-0.7949,-0.8241,-0.8698,-0.8918,-0.8938,-0.9225,-0.9158,-0.8818,-0.8337,-0.7983,-0.7672,0.0,-0.6966,-0.7006,-0.7046,-0.7044,-0.6996,-0.6933,-0.6927,-0.7038,-0.7631,-0.7492,-0.727,-0.795,-0.7864,-0.7685,-0.8326,-0.8625,-0.8703,-0.855,-0.8482,-0.8428,-0.8261,-0.8186,-0.8126,-0.8096,-0.85,-0.883,-0.8657,-0.8356,-0.8546,-0.9931,0.0,-0.933,-0.972,-0.9991,-0.9813,-0.88,-0.8747,-0.8821,-0.8954,-0.91,-0.9303,-0.9588,-0.9249,-0.9151,-0.9615,-0.9493,-0.9401,-0.9381,-0.9289,-0.9093,-0.8967,-0.8967,-0.8902,-0.8881,-0.8985,-0.9704,-1.092,-1.084,-1.1628,-1.3048,0.0,0.0,-1.2725,-1.2756,-1.2516,-1.2219,-1.2451,-1.2511,-1.25,-1.2133,-1.1458,-1.0681,0.0,0.0,0.0,0.0,0.0,0.0,0.0,0.0,0.0,0.0,-0.6067,-0.5638,0.0,0.0,0.0,0.0,0.0,0.0,0.0,0.0,0.0,-0.5834,-0.5818,-0.5943,-0.6263,-0.6317,-0.6344,-0.6344,-0.662,-0.6787,-0.6827,-0.7046,-0.7186,-0.7239,-0.7339,-0.7386,-0.7386,-0.7439,-0.7315,-0.7041,-0.6961,-0.6867,-0.6814,-0.6707,0.0,0.0,-0.7323,-0.7025,-0.6584,-0.6949,-0.707,-0.7034,-0.6942,-0.7109,-0.7458,-0.7876,-0.8093,-0.8197,-0.857,-0.8781,-0.8807,-0.871,-0.8486,-0.8334,-0.8436,-0.8044,0.0,-0.8373,-0.841,-0.8439,-0.872,-0.8722,-0.8671,-0.8739,-0.8758,-0.8773,-0.8632,-0.8811,-0.8947,0.0,-0.8927,-0.9142,0.0,0.0,0.0,0.0,0.0,-0.9578,-0.9774,-0.9649,-0.951,-0.9384,-0.9289,-0.9197,-0.9173,-0.9173,-0.9055,-0.894,-1.0235,-1.0844,-1.0977,-1.3164,-1.4287,-1.449,0.0,0.0,-1.4393,-1.4504,-1.3237,-1.127,-1.2597,-1.237,-1.1327,-1.2167,-1.246,-1.2287,0.0,0.0,0.0,0.0,0.0,0.0,0.0,-0.676,-0.7283,-0.7869,-0.7582,-0.7066,-0.644,-0.6017,-0.5773,0.0,0.0,0.0,0.0,0.0,0.0,0.0,-0.5491,-0.5574,-0.5732,-0.6035,-0.6041,-0.5732,0.0,-0.6224,-0.593,-0.6206,-0.632,-0.6327,-0.65,-0.6593,-0.6593,-0.6593,-0.6512,-0.6385,-0.6385,-0.6472,-0.6606,0.0,0.0,0.0,-0.7383,-0.7195,-0.6781,-0.6815,-0.6911,-0.6982,-0.6919,-0.7187,-0.758,-0.8028,-0.8265,-0.8411,-0.8554,-0.876,-0.8811,-0.8557,-0.8313,-0.8199,-0.84,0.0,0.0,-0.8594,-0.8606,-0.8576,-0.8751,-0.8691,0.0,-0.8695,-0.8383,-0.8221,-0.8583,-0.8473,0.0,-0.8682,-0.9042,-0.933,0.0,0.0,0.0,0.0,0.0,0.0,-0.9815,-0.9686,-0.954,-0.9388,-0.9367,-0.9198,-0.9042,-0.9195,-0.9161,-0.8885,-0.9801,-1.0904,-1.2194,-1.3351,-1.4723,-1.6291,-1.6575,0.0,-1.6043,-1.5928,-1.5227,-1.4247,-1.4868,-1.4792,-1.4387,-1.4635,-1.443,-1.3979,0.0,0.0,0.0,0.0,0.0,0.0,0.0,-0.7435,-0.81,-0.8971,-0.9031,-0.8611,-0.7586,-0.6881,-0.6398,0.0,0.0,0.0,0.0,0.0,0.0,0.0,0.0,0.0,0.0,0.0,0.0,0.0,-0.5867,0.0,0.0,0.0,0.0,0.0,-0.5976,-0.6062,-0.6008,-0.6008,-0.6041,0.0,0.0,-0.6291,0.0,0.0,0.0,0.0,0.0,-0.7321,-0.7053,-0.6906,-0.6926,-0.7067,-0.7222,-0.7457,-0.777,-0.8238,-0.8477,-0.8573,-0.8497,-0.8659,-0.875,-0.8367,-0.8106,-0.8019,-0.833,-0.8175,0.0,-0.8678,-0.8804,-0.8804,-0.8804,-0.8675,-0.8663,0.0,-0.8473,-0.8264,-0.8786,-0.8512,-0.8355,0.0,-0.9032,0.0,0.0,0.0,0.0,0.0,0.0,0.0,-1.0244,-1.0169,-1.0125,-1.0,-0.9586,-0.9286,-0.903,-0.9283,-0.9266,-0.9035,-0.9851,-1.1324,-1.3384,-1.3747,-1.5282,-1.7555,-1.7094,0.0,0.0,-1.6987,-1.6874,-1.6846,-1.6879,-1.7013,-1.7081,-1.6892,-1.6362,-1.5667,0.0,0.0,0.0,0.0,0.0,0.0,0.0,-0.7945,-0.8998,-0.988,-0.9766,-0.9459,-0.9051,-0.8023,-0.707,0.0,0.0,0.0,0.0,0.0,0.0,0.0,0.0,0.0,0.0,0.0,0.0,0.0,0.0,0.0,0.0,0.0,0.0,0.0,0.0,0.0,-0.5373,-0.5373,0.0,0.0,0.0,0.0,0.0,0.0,0.0,0.0,0.0,-0.7284,-0.7067,-0.7469,-0.754,-0.7512,-0.7836,-0.7936,-0.8034,-0.8387,0.0,0.0,-0.8591,-0.8503,-0.8482,-0.8364,-0.7953,-0.7756,-0.8273,0.0,-0.7937,-0.8667,-0.8804,-0.8804,-0.8804,-0.8976,-0.9091,-0.9002,-0.9406,-0.9478,-0.8803,-0.8988,-0.9019,-0.8553,0.0,0.0,0.0,0.0,0.0,0.0,0.0,0.0,0.0,-1.1928,-1.1943,-1.1927,-1.0274,-0.9435,-0.9547,-0.9439,-0.9367,-0.9398,-1.2369,-1.3631,-1.3573,-1.6314,-1.7548,-1.7582,0.0,0.0,0.0,-1.7515,-1.6759,-1.5701,-1.7022,-1.6719,-1.5707,-1.6749,-1.7236,-1.7298,0.0,0.0,0.0,0.0,0.0,0.0,-0.7399,-0.813,-0.9018,-1.0251,-1.0311,-1.0057,-0.9559,-0.8925,-0.8029,-0.6787,0.0,0.0,0.0,0.0,0.0,0.0,0.0,0.0,0.0,0.0,0.0,-0.5997,0.0,0.0,0.0,0.0,0.0,0.0,0.0,0.0,0.0,-0.5293,0.0,0.0,0.0,0.0,0.0,0.0,0.0,0.0,0.0,0.0,-0.7238,-0.6919,-0.6996,-0.7288,-0.7414,-0.7665,-0.7979,-0.8143,-0.8422,-0.8559,-0.8206,-0.8275,-0.8425,-0.8191,-0.8104,-0.8137,-0.8369,0.0,-0.8337,-0.8727,-0.8804,-0.8804,-0.8804,-0.8871,-0.9051,-0.9382,-0.9178,-0.9035,-0.9158,-0.873,-0.8431,-0.8594,0.0,0.0,0.0,0.0,0.0,0.0,0.0,0.0,0.0,-1.2412,-1.1888,-1.1656,-1.0989,-1.0217,-0.9391,-0.9456,-0.9473,-0.9439,-1.1787,-1.3112,-1.3548,-1.5762,-1.7044,-1.7582,0.0,0.0,0.0,-1.7447,-1.7101,-1.6751,-1.7173,-1.7101,-1.6757,-1.7239,-1.7482,-1.7549,0.0,0.0,0.0,0.0,0.0,-0.6566,-0.7622,-0.8196,-0.8992,-1.0291,-1.0385,-1.0204,-0.9846,-0.9211,-0.8438,-0.7502,-0.6994,0.0,0.0,0.0,0.0,0.0,0.0,0.0,0.0,0.0,-0.6277,-0.6432,-0.6432,-0.6498,0.0,0.0,0.0,0.0,0.0,0.0,0.0,0.0,0.0,0.0,0.0,0.0,0.0,0.0,0.0,0.0,0.0,0.0,0.0,0.0,0.0,-0.723,-0.7321,-0.7657,-0.8069,-0.8157,-0.8329,-0.842,-0.8008,-0.8087,-0.8231,-0.8024,-0.8079,-0.8245,0.0,0.0,-0.8528,-0.8749,-0.8804,-0.8804,-0.8804,-0.8804,-0.8971,-0.9472,-0.9115,-0.8991,-0.9523,-0.8998,-0.8724,0.0,0.0,0.0,0.0,0.0,0.0,0.0,0.0,0.0,0.0,-1.3595,-1.287,-1.2744,-1.1868,-1.1139,-1.0564,-0.9891,-0.9717,-1.0066,-1.1787,-1.294,-1.3548,-1.5592,-1.693,-1.7582,0.0,0.0,0.0,-1.7414,-1.7454,-1.7562,-1.7414,-1.7454,-1.7582,-1.7582,-1.7582,-1.7582,0.0,0.0,0.0,0.0,0.0,0.0,-0.7379,-0.823,-0.9118,-1.0007,-0.9873,-0.98,-1.008,-0.8791,-0.8032,-0.8362,-0.7535,0.0,0.0,0.0,0.0,0.0,0.0,0.0,0.0,0.0,-0.6459,-0.6993,-0.6993,-0.7161,-0.7493,-0.7493,0.0,0.0,0.0,0.0,0.0,0.0,0.0,0.0,0.0,0.0,0.0,0.0,0.0,0.0,0.0,0.0,0.0,0.0,0.0,0.0,0.0,-0.8119,-0.843,-0.8553,-0.8599,-0.8519,-0.8255,-0.8022,-0.7818,-0.7814,-0.7782,-0.7866,-0.8141,-0.8197,-0.8317,-0.871,-0.8804,-0.8804,-0.8804,-0.8804,-0.8878,-0.9171,-0.9464,-0.9728,-0.9882,-1.0162,0.0,0.0,0.0,0.0,0.0,0.0,0.0,0.0,0.0,0.0,0.0,-1.5987,-1.5774,-1.6012,-1.2978,-1.2075,-1.3628,-1.0805,-1.0124,-1.1483,-1.3336,-1.3966,-1.3603,-1.6599,-1.7822,0.0,0.0,0.0,0.0,-1.7582,-1.7582,-1.7582,-1.7582,-1.7582,-1.7582,-1.7582,-1.7582,-1.7582,0.0,0.0,0.0,0.0,0.0,0.0,0.0,-0.7471,-0.8167,-0.8838,-0.8871,-0.8898,-0.9192,-0.8425,-0.7945,-0.8039,-0.7406,0.0,0.0,0.0,0.0,0.0,0.0,0.0,0.0,0.0,-0.7162,-0.735,-0.7519,-0.7666,-0.7782,-0.7591,-0.7276,-0.6874,0.0,0.0,0.0,0.0,0.0,0.0,0.0,0.0,0.0,0.0,0.0,0.0,0.0,0.0,0.0,0.0,0.0,0.0,0.0,0.0,0.0,-0.8342,-0.8518,-0.8533,-0.8291,-0.819,-0.8222,-0.8222,-0.8413,-0.8603,-0.8487,-0.8676,-0.8869,-0.8805,-0.8804,-0.8804,-0.8804,-0.8804,-0.9031,-0.9697,-0.9913,-1.0054,0.0,0.0,0.0,0.0,0.0,0.0,0.0,0.0,0.0,0.0,0.0,0.0,0.0,-1.6801,-1.6854,-1.5983,-1.474,-1.3467,-1.2071,-1.214,-1.148,-1.0124,-1.3769,-1.4783,-1.3603,-1.6641,0.0,0.0,0.0,0.0,0.0,-1.7582,-1.7582,-1.7582,-1.7582,-1.7582,-1.7582,-1.7582,-1.7582,-1.7582,0.0,0.0,0.0,0.0,0.0,0.0,0.0,-0.6941,-0.7497,-0.7993,-0.8053,-0.8255,-0.8751,-0.8052,-0.7699,-0.807,-0.7413,0.0,0.0,0.0,0.0,0.0,0.0,0.0,-0.7,-0.7201,-0.7491,-0.7832,-0.811,-0.8238,-0.8232,-0.8176,-0.7796,-0.7174,-0.688,-0.6593,0.0,0.0,0.0,0.0,0.0,0.0,-0.6847,0.0,0.0,0.0,0.0,0.0,0.0,0.0,0.0,0.0,0.0,0.0,0.0,0.0,-0.8192,-0.8342,-0.836,-0.8355,-0.8341,-0.8341,-0.8584,-0.8794,-0.859,-0.881,-0.8998,-0.8844,-0.8804,-0.8804,-0.8804,-0.8804,-0.8985,-0.9532,-0.9684,-0.985,0.0,0.0,0.0,0.0,0.0,0.0,0.0,0.0,0.0,0.0,0.0,0.0,0.0,0.0,-1.7597,-1.6696,-1.5827,-1.4843,-1.3676,-1.3558,-1.2906,-1.1725,-1.4604,-1.5314,-1.4169,-1.6706,0.0,0.0,0.0,0.0,0.0,-1.7582,-1.7582,-1.7582,-1.7582,-1.7582,-1.7582,-1.7582,-1.7582,-1.7582,0.0,0.0,0.0,0.0,0.0,0.0,0.0,-0.66,-0.7068,-0.7383,-0.7424,-0.7752,-0.8584,-0.7666,-0.7361,-0.8228,0.0,0.0,0.0,0.0,0.0,0.0,0.0,0.0,-0.7,-0.7046,-0.7502,-0.8368,-0.8697,-0.8871,-0.8878,-0.9118,-0.8664,-0.7571,-0.7228,-0.6901,-0.6593,0.0,0.0,0.0,-0.6519,-0.662,0.0,0.0,0.0,0.0,0.0,0.0,0.0,0.0,0.0,0.0,0.0,0.0,0.0,0.0,0.0,0.0,0.0,-0.8376,-0.8229,-0.8243,-0.8417,-0.857,-0.8446,-0.8616,0.0,-0.8804,-0.8804,-0.8811,-0.8831,-0.8824,-0.8831,-0.8891,-0.9098,-0.9291,0.0,0.0,0.0,0.0,0.0,0.0,0.0,0.0,0.0,0.0,0.0,0.0,0.0,0.0,-1.7962,-1.7962,-1.6417,-1.6174,-1.7417,-1.5006,-1.4293,-1.5257,-1.567,-1.5534,-1.507,-1.6813,0.0,0.0,0.0,0.0,0.0,-1.7582,-1.7569,-1.7555,-1.7575,-1.7569,-1.7555,-1.7575,-1.7582,-1.7582,0.0,0.0,0.0,0.0,0.0,0.0,0.0,0.0,0.0,0.0,-0.6814,-0.6961,-0.7373,-0.7166,-0.7086,0.0,0.0,0.0,0.0,0.0,0.0,0.0,0.0,0.0,-0.7,-0.7459,-0.7799,-0.8012,-0.9005,-0.9479,-0.9479,-0.9546,-0.9192,-0.847,-0.7925,-0.7273,-0.66,-0.6754,0.0,0.0,-0.68,-0.69,0.0,0.0,0.0,0.0,-0.7,-0.7214,0.0,0.0,0.0,0.0,0.0,0.0,0.0,0.0,-0.7544,-0.7669,-0.798,0.0,-0.8391,-0.8598,-0.8705,-0.8743,0.0,-0.8763,-0.8804,-0.8804,-0.8804,-0.8878,-0.9071,-0.8931,-0.9025,-0.9699,-0.9837,-0.9834,0.0,0.0,0.0,0.0,0.0,0.0,0.0,0.0,0.0,0.0,0.0,0.0,0.0,0.0,-1.7695,-1.7695,-1.7292,-1.6711,-1.5902,-1.6402,-1.5702,-1.3804,-1.6082,-1.6477,-1.5382,-1.6903,0.0,0.0,0.0,0.0,-1.7582,-1.7582,-1.7507,-1.7326,-1.7495,-1.7442,-1.7333,-1.7502,-1.7582,-1.7582,0.0,0.0,0.0,0.0,0.0,0.0,0.0,0.0,0.0,0.0,0.0,0.0,0.0,0.0,0.0,0.0,0.0,0.0,0.0,0.0,0.0,0.0,0.0,-0.7,-0.7,-0.7482,-0.7916,-0.8305,-0.9239,-0.9753,-0.988,-0.988,-0.9499,-0.8778,-0.8043,-0.7368,-0.68,-0.6933,-0.6833,-0.6613,-0.6886,0.0,0.0,0.0,0.0,0.0,-0.6874,-0.7122,0.0,-0.7651,-0.7882,-0.8083,0.0,0.0,0.0,0.0,-0.7261,-0.7328,-0.7635,-0.806,-0.8435,-0.8571,-0.8711,-0.8804,-0.8804,-0.8804,-0.8804,-0.8804,-0.8804,-0.8851,-0.8984,-0.8998,-0.9131,-0.961,-0.9702,0.0,0.0,0.0,0.0,0.0,0.0,0.0,0.0,0.0,0.0,0.0,0.0,0.0,0.0,0.0,-1.7729,-1.7589,-1.7722,-1.7343,-1.6446,-1.7199,-1.6823,-1.531,-1.6823,-1.7134,-1.6264,-1.7193,0.0,0.0,0.0,0.0,-1.7582,-1.7582,-1.7488,-1.7414,-1.7522,-1.7482,-1.742,-1.7522,-1.7582,-1.7582,0.0,0.0,0.0,0.0,0.0,0.0,0.0,0.0,0.0,0.0,0.0,0.0,0.0,0.0,0.0,0.0,0.0,0.0,0.0,0.0,0.0,0.0,-0.7,-0.7046,-0.714,-0.7408,-0.798,-0.8804,-0.9532,-0.9987,-1.0187,-1.0321,-0.982,-0.8771,-0.794,-0.7348,-0.7,-0.7,-0.686,-0.6673,-0.6906,0.0,0.0,0.0,0.0,0.0,0.0,0.0,0.0,-0.7692,-0.8049,-0.8328,-0.7892,0.0,0.0,0.0,0.0,0.0,-0.7464,-0.8,-0.8456,-0.8409,-0.8591,-0.8804,-0.8804,-0.8804,-0.8804,-0.8804,-0.8804,-0.8838,-0.8925,-0.9111,0.0,0.0,0.0,0.0,0.0,0.0,0.0,0.0,0.0,0.0,0.0,0.0,0.0,0.0,0.0,0.0,0.0,0.0,0.0,-1.7589,-1.7842,-1.7829,-1.7522,-1.7562,-1.7562,-1.7515,-1.7515,-1.7361,-1.7139,-1.7335,-1.7393,0.0,0.0,0.0,-1.7515,-1.7515,-1.7462,-1.7388,-1.7482,-1.7488,-1.7455,-1.7549,-1.7582,-1.7582,0.0,0.0,0.0,0.0,0.0,0.0,0.0,0.0,0.0,0.0,0.0,0.0,0.0,0.0,0.0,0.0,0.0,0.0,0.0,0.0,0.0,-0.7,-0.7,-0.7239,-0.7759,-0.7812,-0.8145,-0.8804,-1.014,-1.072,-1.0539,-1.129,-1.0601,-0.8778,-0.8119,-0.7526,-0.7,-0.7,-0.6973,-0.694,-0.698,0.0,0.0,0.0,0.0,0.0,0.0,0.0,0.0,-0.7228,-0.7702,-0.8255,-0.7393,0.0,0.0,0.0,0.0,0.0,-0.7686,-0.829,-0.8684,-0.8462,-0.8591,-0.8804,-0.8804,-0.8804,-0.8804,-0.8804,-0.8804,-0.8958,-0.9459,-0.9586,-0.986,0.0,0.0,0.0,0.0,0.0,0.0,0.0,0.0,0.0,0.0,0.0,0.0,0.0,0.0,0.0,0.0,0.0,0.0,-1.7582,-1.7629,-1.7515,-1.7266,-1.7514,-1.7514,-1.7266,-1.7266,-1.7112,-1.6774,-1.682,-1.6954,0.0,0.0,-1.7266,-1.7266,-1.7266,-1.6971,-1.6576,-1.7072,-1.7112,-1.6901,-1.7402,-1.7582,-1.7582,0.0,0.0,0.0,0.0,0.0,0.0,0.0,0.0,0.0,0.0,0.0,0.0,0.0,0.0,0.0,0.0,0.0,0.0,0.0,0.0,-0.7146,-0.7473,-0.7355,-0.7475,-0.7899,-0.8372,-0.8978,-0.9782,-1.0742,-1.1323,-1.1496,-1.1303,-1.0265,-0.8557,-0.8099,-0.7572,-0.7,-0.7,-0.7,-0.7,0.0,0.0,0.0,0.0,0.0,0.0,0.0,0.0,0.0,0.0,-0.7493,-0.8029,-0.7448,0.0,0.0,0.0,0.0,0.0,-0.7339,-0.7852,-0.8352,-0.8564,-0.9065,-0.9519,-0.9519,-0.9519,-0.9519,-0.9519,-0.9519,-0.9599,-0.9866,0.0,-1.0916,-1.1821,0.0,0.0,0.0,0.0,0.0,0.0,0.0,0.0,0.0,0.0,0.0,0.0,0.0,0.0,0.0,0.0,0.0,0.0,-1.7481,-1.7333,-1.7199,-1.7121,-1.7041,-1.6907,-1.6907,-1.684,-1.6707,-1.6707,-1.678,-1.6907,0.0,-1.6907,-1.6907,-1.6907,-1.6754,-1.6533,-1.68,-1.6827,-1.676,-1.7188,-1.7501,-1.7582,0.0,0.0,0.0,0.0,0.0,0.0,0.0,0.0,0.0,0.0,0.0,0.0,0.0,0.0,0.0,0.0,0.0,0.0,0.0,-0.7,-0.7239,-0.7772,-0.7752,-0.794,-0.8405,-0.9004,-0.9846,-1.0901,-1.145,-1.1931,-1.2278,-1.1142,-0.9842,-0.8489,-0.8065,-0.7572,-0.7,-0.7,-0.7,-0.7,0.0,0.0,0.0,0.0,0.0,0.0,0.0,0.0,0.0,0.0,0.0,0.0,0.0,0.0,0.0,-0.7346,-0.716,-0.7161,-0.7301,-0.7706,-0.8232,-0.8751,-0.9337,-0.9913,-1.0296,-1.0321,-1.0294,-1.0575,-1.0628,-1.0608,0.0,-1.1216,0.0,0.0,0.0,0.0,0.0,0.0,0.0,0.0,0.0,0.0,0.0,0.0,0.0,0.0,0.0,0.0,0.0,0.0,0.0,0.0,-1.7213,-1.7065,-1.6998,-1.672,-1.6607,-1.6607,-1.6607,-1.6567,-1.65,-1.65,-1.654,-1.6607,-1.6607,-1.6607,-1.6607,-1.6607,-1.6567,-1.6506,-1.658,-1.6647,-1.6734,-1.7012,-1.7188,-1.7388,0.0,0.0,0.0,0.0,0.0,0.0,0.0,0.0,0.0,0.0,0.0,0.0,0.0,0.0,0.0,0.0,0.0,0.0,0.0,-0.7,-0.7168,-0.7511,-0.804,-0.8831,-0.9903,-0.976,-1.0378,-1.1812,-1.2402,-1.2569,-1.2278,-1.1142,-0.995,-0.8751,-0.8159,-0.7572,-0.7,-0.7,-0.7,-0.7,-0.7,0.0,0.0,0.0,0.0,0.0,0.0,0.0,0.0,0.0,0.0,0.0,0.0,0.0,-0.7899,-0.7859,-0.7662,-0.7578,-0.8147,-0.8504,-0.8818,-0.9104,-0.9024,-0.9325,-1.0929,-1.0915,-1.0868,-1.1917,-1.2144,-1.2064,0.0,-1.2478,0.0,0.0,0.0,0.0,0.0,0.0,0.0,0.0,0.0,0.0,0.0,0.0,0.0,0.0,0.0,0.0,0.0,0.0,0.0,0.0,0.0,-1.6607,-1.6388,-1.6319,-1.6355,-1.6355,-1.6355,-1.6159,-1.5844,-1.5844,-1.6039,-1.6355,-1.6355,-1.6355,-1.6355,-1.6355,-1.6146,-1.5919,-1.6192,-1.6466,-1.6707,-1.6734,-1.6747,-1.6807,0.0,0.0,0.0,0.0,0.0,0.0,0.0,0.0,0.0,0.0,0.0,0.0,0.0,0.0,0.0,0.0,0.0,0.0,0.0,-0.7,-0.7321,-0.8027,-0.8076,-0.8731,-1.0057,-1.0541,-1.1403,-1.2705,-1.2926,-1.2786,-1.2278,-1.1142,-0.9963,-0.8784,-0.8172,-0.7672,-0.731,-0.708,-0.7128,-0.7303,-0.7073,-0.674,0.0,0.0,0.0,0.0,0.0,0.0,0.0,0.0,-0.6868,-0.7308,-0.7326,-0.7749,-0.813,-0.7756,-0.7584,-0.7538,-0.7772,-0.8322,-0.8831,-0.8918,-0.9271,-0.9987,-1.1383,-1.153,-1.1692,-1.2665,-1.3006,-1.3067,0.0,0.0,0.0,0.0,0.0,0.0,0.0,0.0,0.0,0.0,0.0,0.0,0.0,0.0,0.0,0.0,0.0,0.0,0.0,0.0,0.0,0.0,0.0,-1.6386,-1.6321,-1.6086,-1.5999,-1.5999,-1.5999,-1.5939,-1.5784,-1.5784,-1.5892,-1.5999,-1.5999,-1.5999,-1.5999,-1.5999,-1.5925,-1.5791,-1.5952,-1.6179,-1.6433,-1.6433,-1.6553,-1.672,0.0,0.0,0.0,0.0,0.0,0.0,0.0,0.0,0.0,0.0,0.0,0.0,0.0,0.0,0.0,0.0,0.0,0.0,-0.7,-0.7,-0.7341,-0.808,-0.8076,-0.8671,-0.9953,-1.0896,-1.1917,-1.2926,-1.3019,-1.2659,-1.1864,-1.0821,-0.9883,-0.9051,-0.8252,-0.7916,-0.7879,-0.7368,-0.7281,-0.7464,-0.7141,-0.6727,0.0,0.0,0.0,0.0,0.0,0.0,0.0,0.0,-0.6599,-0.7102,-0.7233,-0.7736,-0.817,-0.7873,-0.7779,-0.7752,-0.7658,-0.813,-0.8691,-0.8784,-0.9466,-1.0474,-1.1873,-1.2261,-1.269,-1.3921,-1.3812,-1.3483,-1.3523,0.0,0.0,0.0,0.0,0.0,0.0,0.0,0.0,0.0,0.0,0.0,0.0,0.0,0.0,0.0,0.0,0.0,0.0,0.0,0.0,0.0,0.0,0.0,-1.6132,-1.5932,-1.5784,-1.5784,-1.5784,-1.5784,-1.5784,-1.5784,-1.5784,-1.5784,-1.5784,-1.5784,-1.5784,-1.5784,-1.5784,-1.5784,-1.5784,-1.5952,-1.6132,-1.6132,-1.6319,-1.6567,0.0,0.0,0.0,0.0,0.0,0.0,0.0,0.0,0.0,0.0,0.0,0.0,0.0,0.0,0.0,0.0,0.0,0.0,-0.7,-0.7,-0.7154,-0.7493,-0.8074,-0.8804,-0.9682,-1.0815,-1.1668,-1.2305,-1.263,-1.2174,-1.0969,-1.0094,-0.9715,-0.9626,-0.8432,-0.8238,-0.8744,-0.7873,-0.7491,-0.7471,-0.7148,-0.6854,-0.6579,0.0,0.0,0.0,0.0,0.0,0.0,0.0,-0.6189,-0.6404,-0.7526,-0.7905,-0.7965,-0.8308,-0.8395,-0.8328,-0.7985,-0.815,-0.8476,-0.8744,-0.9479,-1.0595,-1.2395,-1.2993,-1.3794,-1.5845,-1.4615,-1.3203,-1.3351,-1.1933,0.0,0.0,0.0,0.0,0.0,0.0,0.0,0.0,0.0,0.0,0.0,0.0,0.0,0.0,0.0,0.0,0.0,0.0,0.0,0.0,0.0,0.0,-1.5784,-1.5784,-1.5784,-1.5784,-1.5784,-1.5784,-1.5784,-1.5784,-1.5784,-1.5784,-1.5784,-1.5784,-1.5784,-1.5784,-1.5784,-1.5784,-1.5784,-1.5784,-1.5784,-1.5784,-1.6012,-1.6321,0.0,0.0,0.0,0.0,0.0,0.0,0.0,0.0,0.0,0.0,0.0,0.0,0.0,0.0,0.0,0.0,0.0,0.0,-0.7,-0.7,-0.7154,-0.7493,-0.7849,-0.8283,-0.8777,-0.9706,-1.0889,-1.2305,-1.2221,-1.1672,-1.0713,-1.0207,-0.9659,-0.9058,-0.8891,-0.8698,-0.8482,-0.7785,-0.7739,-0.808,-0.7564,-0.7154,-0.684,0.0,0.0,0.0,0.0,0.0,0.0,0.0,0.0,0.0,-0.7033,-0.7559,-0.7925,-0.8012,-0.8039,-0.8019,-0.7932,-0.8272,-0.8798,-0.9299,-1.0425,-1.171,-1.3066,-1.3293,-1.3439,-1.4292,-1.314,-1.1994,-1.1921,0.0,0.0,0.0,0.0,0.0,0.0,0.0,0.0,0.0,0.0,0.0,0.0,0.0,0.0,0.0,0.0,0.0,0.0,0.0,0.0,0.0,0.0,0.0,-1.5784,-1.5784,-1.5784,-1.5784,-1.5784,-1.5784,-1.5784,-1.5784,-1.5784,-1.5784,-1.5784,-1.5784,-1.5784,-1.5784,-1.5784,-1.5784,-1.5784,-1.5784,-1.5784,-1.5784,-1.5838,-1.5965,0.0,0.0,0.0,0.0,0.0,0.0,0.0,0.0,0.0,0.0,-0.7,-0.7,0.0,0.0,0.0,0.0,0.0,0.0,-0.7,-0.7,-0.7154,-0.7493,-0.7762,-0.8212,-0.8904,-0.944,-1.0147,-1.1082,-1.1142,-1.0722,-0.9896,-1.004,-0.9893,-0.9512,-0.9686,-0.9573,-0.9219,-0.8502,-0.8275,-0.8355,-0.7866,-0.7468,-0.7154,0.0,0.0,0.0,0.0,0.0,0.0,0.0,0.0,0.0,-0.6533,-0.7007,-0.7426,-0.7675,-0.7812,-0.7932,-0.8052,-0.8617,-0.9299,-0.9916,-1.1169,-1.2596,-1.3868,-1.3903,0.0,0.0,-1.2436,-1.099,-1.0935,0.0,0.0,0.0,0.0,0.0,0.0,0.0,0.0,0.0,0.0,0.0,0.0,0.0,0.0,0.0,0.0,0.0,0.0,0.0,0.0,0.0,0.0,0.0,-1.5784,-1.5784,-1.5784,-1.5784,-1.5784,-1.5784,-1.5784,-1.5784,-1.5784,-1.5784,-1.5784,-1.5784,-1.5784,-1.5784,-1.5784,-1.5784,-1.5784,-1.5784,-1.5784,-1.5784,-1.5905,-1.5985,0.0,0.0,-0.542,-0.5648,0.0,0.0,0.0,0.0,0.0,0.0,-0.7,-0.7,0.0,0.0,0.0,-0.7,-0.7,-0.7,-0.7,-0.7,-0.7154,-0.7493,-0.7789,-0.8484,-0.9579,-0.9608,-0.9419,-0.9091,-0.973,-0.9626,-0.8791,-0.9719,-1.0274,-1.0512,-1.0566,-1.0546,-1.0412,-0.9471,-0.8791,-0.8335,-0.8012,-0.7742,-0.7424,-0.6861,0.0,0.0,0.0,0.0,0.0,0.0,0.0,0.0,-0.6088,-0.6377,-0.6687,-0.7276,-0.7642,-0.7932,-0.8308,-0.9038,-0.9876,-1.0546,-1.1859,-1.3347,-1.4551,-1.443,-1.4135,-1.4474,0.0,-1.0242,0.0,0.0,0.0,0.0,0.0,0.0,0.0,0.0,0.0,0.0,0.0,0.0,0.0,0.0,0.0,0.0,0.0,0.0,0.0,0.0,0.0,0.0,0.0,0.0,-1.5752,-1.5758,-1.5764,0.0,-1.5764,-1.5784,-1.5784,-1.5784,-1.5784,-1.5784,-1.5784,-1.5784,-1.5784,-1.5784,-1.5784,-1.5784,-1.5784,-1.5784,-1.5784,-1.5784,-1.5999,-1.6192,0.0,0.0,-0.5638,-0.5688,0.0,0.0,0.0,0.0,0.0,0.0,0.0,0.0,0.0,0.0,0.0,-0.7,-0.7,-0.7,-0.7,-0.7,-0.7154,-0.7493,-0.8013,-0.8504,-0.8985,-0.8797,-0.851,-0.8185,-0.9265,-0.9325,-0.8523,-0.9869,-1.0285,-0.9923,-1.0385,-1.0174,-0.9437,-0.8558,-0.8112,-0.7999,-0.7932,-0.7742,-0.745,-0.7068,-0.6607,0.0,0.0,0.0,0.0,0.0,0.0,0.0,-0.6028,-0.6236,-0.6398,-0.6947,-0.7328,-0.7705,-0.8255,-0.9038,-1.0017,-1.1303,-1.3092,-1.4403,-1.386,-1.3073,-1.2417,-1.2361,-1.1124,0.0,0.0,0.0,0.0,0.0,0.0,0.0,0.0,0.0,0.0,0.0,0.0,0.0,0.0,0.0,0.0,0.0,0.0,0.0,0.0,0.0,0.0,0.0,0.0,-1.5378,-1.515,-1.5605,-1.5712,0.0,-1.5718,-1.5784,-1.5784,-1.5784,-1.5784,-1.5784,-1.5784,-1.5784,-1.5784,-1.5784,-1.5784,-1.5784,-1.5784,-1.5784,-1.5784,-1.5784,-1.5872,-1.5912,0.0,0.0,0.0,0.0,0.0,0.0,0.0,0.0,0.0,0.0,0.0,0.0,0.0,-0.7,0.0,0.0,-0.7,-0.7,-0.7,-0.7,-0.72,-0.7669,-0.8263,-0.8591,-0.8597,-0.831,-0.8016,-0.7709,-0.8348,-0.8489,-0.819,-0.9548,-1.0003,-0.9735,-1.0332,-1.0067,-0.9184,-0.8725,-0.8372,-0.813,-0.7965,-0.7742,-0.7437,-0.6981,-0.6453,-0.5903,-0.5454,0.0,0.0,0.0,0.0,0.0,0.0,0.0,-0.6077,-0.664,-0.7027,-0.7422,-0.8194,-0.9246,-1.0559,-1.2278,-1.3212,-1.3641,-1.3466,-1.212,-1.0902,-1.0898,-0.9899,0.0,0.0,0.0,0.0,0.0,0.0,0.0,0.0,0.0,0.0,0.0,0.0,0.0,0.0,0.0,0.0,0.0,0.0,0.0,0.0,0.0,0.0,0.0,-1.5156,-1.5162,-1.5008,-1.5264,-1.5337,-1.519,-1.5344,-1.5418,-1.5424,-1.5705,-1.5784,-1.5784,-1.5784,-1.5784,-1.5784,-1.5784,-1.5784,-1.5784,-1.5784,-1.5784,-1.5784,-1.5784,-1.5784,-1.5784,0.0,0.0,0.0,0.0,0.0,0.0,0.0,0.0,0.0,0.0,0.0,0.0,0.0,-0.7,-0.7,0.0,0.0,0.0,-0.7,-0.7046,-0.7299,-0.7806,-0.8345,-0.8544,-0.8328,-0.8003,-0.7722,-0.7513,-0.7513,-0.7629,-0.7932,-0.9078,-0.9633,-0.9729,-1.0171,-0.99,-0.9124,-0.8971,-0.8597,-0.8074,-0.7832,-0.7562,-0.7231,-0.672,-0.6179,-0.5671,-0.54,-0.5293,-0.5306,-0.5353,0.0,0.0,0.0,0.0,-0.5801,-0.6378,-0.672,-0.7134,-0.8013,-0.9427,-1.1062,-1.2733,-1.2719,0.0,-1.2597,-1.1169,-0.9761,-0.9624,0.0,0.0,0.0,0.0,0.0,0.0,0.0,0.0,0.0,0.0,0.0,0.0,0.0,0.0,0.0,0.0,0.0,0.0,0.0,0.0,0.0,0.0,-1.5164,-1.4867,-1.4908,-1.4908,-1.4861,-1.4955,-1.4981,-1.4928,-1.4981,-1.5008,-1.5028,-1.5464,-1.5705,-1.5711,-1.5758,-1.5784,-1.5784,-1.5784,-1.5784,-1.5784,-1.5784,-1.5784,-1.5784,-1.5784,-1.5784,-1.5784,0.0,0.0,0.0,0.0,0.0,0.0,0.0,0.0,0.0,0.0,-0.7,-0.7,-0.7,-0.7,-0.7,-0.7,-0.7,-0.7,-0.7,0.0,0.0,-0.7544,-0.7862,-0.8005,-0.7965,-0.7689,-0.7531,-0.7513,-0.7513,-0.7629,-0.7925,-0.8845,-0.9439,-0.9708,-0.9471,-0.9184,-0.8811,-0.806,-0.739,-0.6847,-0.704,-0.682,-0.6364,-0.6283,-0.6023,-0.5671,-0.54,-0.5293,-0.5333,-0.5571,-0.5661,0.0,0.0,0.0,-0.5778,-0.6149,-0.6439,-0.6787,-0.7437,-0.9253,-1.1,-1.1273,-1.1811,-1.1845,0.0,0.0,-0.9484,0.0,0.0,0.0,0.0,0.0,0.0,0.0,0.0,0.0,0.0,0.0,0.0,0.0,0.0,0.0,0.0,0.0,0.0,0.0,0.0,0.0,0.0,-1.5068,-1.4814,-1.4222,-1.4449,-1.4462,-1.4208,-1.4754,-1.4836,-1.4583,-1.4843,-1.5008,-1.5015,-1.5089,-1.5217,-1.5471,-1.5718,-1.5784,-1.5784,-1.5784,-1.5784,-1.5784,-1.5784,-1.5784,-1.5784,-1.5784,-1.5784,-1.5784,0.0,0.0,0.0,0.0,0.0,0.0,0.0,0.0,0.0,0.0,0.0,-0.7,-0.7,-0.7,-0.6933,-0.6794,-0.6906,-0.7,-0.7,-0.7323,-0.7513,-0.7513,-0.7762,-0.7826,-0.7675,-0.7558,-0.7404,-0.7214,-0.7214,-0.7462,-0.7919,-0.8472,-0.8911,-0.9185,-0.9031,-0.8718,-0.8252,-0.7732,-0.7243,-0.6814,-0.662,-0.66,-0.6587,-0.611,-0.595,-0.5923,-0.5461,-0.5293,-0.534,-0.5618,-0.5825,-0.6003,-0.6156,0.0,0.0,0.0,-0.6283,-0.664,-0.7899,-0.9098,-1.0203,-1.1026,-1.0738,-1.0112,-0.9719,-0.8921,-0.8168,0.0,0.0,0.0,0.0,0.0,0.0,0.0,0.0,0.0,0.0,0.0,0.0,0.0,0.0,0.0,0.0,0.0,0.0,0.0,0.0,0.0,-1.5028,-1.4803,-1.4522,-1.4102,-1.4208,-1.4215,-1.4088,-1.4342,-1.4409,-1.4282,-1.4409,-1.4519,-1.4519,-1.4643,-1.4963,-1.5404,-1.5531,-1.5678,-1.5784,-1.5784,-1.5784,-1.5784,-1.5784,-1.5784,-1.5784,-1.5784,-1.5784,-1.5784,0.0,0.0,0.0,0.0,0.0,0.0,0.0,0.0,0.0,0.0,0.0,-0.7,-0.7,0.0,0.0,0.0,-0.6787,-0.6893,-0.6893,-0.7188,-0.7377,-0.7377,-0.7552,-0.7566,-0.7383,-0.7303,-0.7174,-0.7,-0.7,-0.7346,-0.8025,-0.827,-0.8571,-0.8891,-0.8838,-0.8524,-0.7992,-0.7651,-0.7276,-0.686,-0.6539,-0.6566,-0.6747,-0.622,-0.6244,-0.6445,-0.5773,-0.5568,0.0,0.0,0.0,0.0,0.0,0.0,0.0,0.0,0.0,-0.6405,-0.7936,-0.8651,-0.9248,-1.0258,-0.9517,-0.8667,0.0,0.0,0.0,0.0,0.0,0.0,0.0,0.0,0.0,0.0,0.0,0.0,0.0,0.0,0.0,0.0,0.0,0.0,0.0,0.0,0.0,0.0,0.0,0.0,-1.5022,-1.4683,-1.4389,-1.4095,-1.4015,-1.4008,-1.4088,-1.4088,-1.4048,-1.3975,-1.3975,-1.3975,-1.3981,-1.4202,-1.4616,-1.5177,-1.5257,-1.5451,-1.5718,-1.5718,-1.5718,-1.5784,-1.5784,-1.5784,-1.5784,-1.5784,-1.5784,-1.5784,0.0,0.0,0.0,0.0,0.0,0.0,0.0,0.0,0.0,0.0,0.0,-0.7,-0.7,-0.7,-0.6886,-0.6613,-0.6607,-0.6633,-0.6633,-0.6887,-0.702,-0.702,-0.704,0.0,-0.702,-0.678,-0.676,-0.7,-0.7,-0.7482,-0.8375,-0.8395,-0.8677,-0.9178,-0.8904,-0.8637,-0.8335,-0.7739,-0.7156,-0.6633,-0.686,-0.6667,-0.6297,-0.676,-0.7141,-0.7325,-0.6458,0.0,0.0,0.0,0.0,0.0,0.0,0.0,0.0,0.0,0.0,0.0,-0.684,-0.7756,-0.8371,-0.8137,-0.8235,-0.8255,0.0,0.0,0.0,0.0,0.0,0.0,0.0,0.0,0.0,0.0,0.0,0.0,0.0,0.0,0.0,0.0,0.0,0.0,0.0,0.0,0.0,0.0,0.0,0.0,-1.5022,-1.4683,-1.4389,-1.4095,-1.3773,-1.376,-1.4082,-1.4088,-1.3948,-1.3626,-1.3626,-1.3626,-1.3626,-1.364,-1.3966,-1.4583,-1.4863,-1.515,-1.5418,-1.5418,-1.5578,-1.5784,-1.5784,-1.5784,-1.5784,-1.5784,-1.5784,-1.5784,0.0,0.0,0.0,0.0,0.0,0.0,0.0,0.0,0.0,0.0,0.0,0.0,0.0,-0.7,-0.6834,-0.6372,-0.6157,-0.6106,-0.6337,-0.6425,-0.6566,-0.674,-0.6747,-0.6747,-0.6747,-0.664,-0.6566,-0.6486,-0.6653,-0.7101,-0.7826,-0.8214,-0.8584,-0.8918,-0.8657,-0.8496,-0.8348,-0.7522,-0.7061,-0.686,-0.696,-0.7113,-0.7295,-0.7301,-0.7729,0.0,0.0,0.0,0.0,0.0,0.0,0.0,0.0,0.0,0.0,0.0,-0.5832,-0.6346,-0.666,-0.7402,-0.8151,-0.8421,-0.7863,-0.7431,-0.8102,0.0,0.0,0.0,0.0,0.0,0.0,0.0,0.0,0.0,0.0,0.0,0.0,0.0,0.0,0.0,0.0,0.0,0.0,0.0,0.0,0.0,0.0,0.0,-1.4683,-1.4402,-1.4195,-1.4088,-1.3981,-1.3888,-1.376,-1.3621,-1.3467,-1.3327,-1.3327,-1.342,-1.36,-1.36,-1.382,-1.4249,-1.4355,-1.472,-1.5182,-1.5317,-1.5458,-1.5571,-1.5711,-1.5784,-1.5784,-1.5784,-1.5784,-1.5784,0.0,0.0,0.0,0.0,0.0,-0.7,-0.7,-0.7,-0.7,-0.7,0.0,0.0,0.0,0.0,-0.6934,-0.6391,-0.605,-0.5963,-0.6182,-0.6196,-0.6283,-0.6452,-0.6466,-0.6466,-0.6466,-0.6466,-0.6372,-0.6196,-0.6466,-0.6908,-0.752,-0.7906,-0.8355,-0.8784,-0.8315,-0.8261,-0.8502,-0.7776,-0.7399,-0.7326,-0.7519,-0.7726,-0.7925,-0.8143,0.0,0.0,0.0,0.0,0.0,0.0,0.0,0.0,0.0,0.0,0.0,0.0,0.0,0.0,-0.6466,0.0,0.0,0.0,-0.7782,-0.7232,-0.8454,0.0,0.0,0.0,0.0,0.0,0.0,0.0,0.0,0.0,0.0,0.0,0.0,0.0,0.0,0.0,0.0,0.0,0.0,0.0,0.0,0.0,0.0,0.0,-1.4376,-1.4008,-1.3748,-1.3682,-1.3741,-1.3647,-1.3347,-1.3253,-1.316,-1.3053,-1.3053,-1.3213,-1.346,-1.346,-1.3714,-1.4088,-1.4088,-1.4362,-1.4836,-1.513,-1.5311,-1.5424,-1.5718,-1.5784,-1.5784,-1.5784,-1.5784,-1.5784,0.0,-0.7,-0.7,-0.7,-0.7,-0.7,-0.7,-0.7,-0.7006,-0.7013,0.0,0.0,0.0,0.0,0.0,-0.6687,-0.6377,-0.6203,-0.6182,-0.6176,-0.6176,-0.6176,-0.6189,-0.6196,-0.6196,-0.6196,-0.6189,-0.6176,-0.6445,-0.6881,-0.7486,-0.7493,-0.7953,-0.8744,-0.7893,-0.7986,-0.8758,-0.8489,-0.8183,-0.7972,-0.8571,-0.8445,-0.8072,0.0,0.0,0.0,-0.7916,-0.7521,0.0,-0.6227,0.0,0.0,0.0,0.0,0.0,0.0,0.0,0.0,0.0,0.0,0.0,0.0,0.0,0.0,-0.8436,0.0,0.0,0.0,0.0,0.0,0.0,0.0,0.0,0.0,0.0,0.0,0.0,0.0,0.0,0.0,0.0,0.0,0.0,0.0,0.0,0.0,0.0,-1.4062,-1.4062,-1.352,-1.3073,-1.2811,-1.3046,-1.3053,-1.279,-1.3026,-1.3026,-1.2808,-1.2764,-1.2931,-1.3213,-1.3213,-1.3534,-1.4088,-1.4088,-1.4249,-1.4529,-1.4874,-1.5124,-1.5411,-1.5705,-1.5771,-1.5784,-1.5784,-1.5784,-1.5784,-0.6986,-0.7,-0.7,-0.7,-0.7,-0.7,-0.7,-0.7,-0.708,0.0,0.0,0.0,-0.7513,-0.7275,-0.7168,-0.7236,-0.678,-0.6305,-0.5865,-0.5832,-0.5832,-0.5832,-0.6075,-0.6196,-0.6196,-0.6196,-0.6088,-0.5832,-0.5912,-0.6259,-0.6861,-0.7047,-0.7493,-0.8139,-0.7892,-0.7919,-0.8112,-0.7592,-0.7729,-0.8283,-0.8657,-0.8811,0.0,0.0,0.0,0.0,0.0,-0.7773,-0.8023,0.0,-0.7128,-0.7481,0.0,0.0,0.0,0.0,0.0,0.0,-0.684,0.0,0.0,0.0,0.0,0.0,-0.8188,-0.76,0.0,0.0,0.0,0.0,0.0,0.0,0.0,0.0,0.0,0.0,0.0,0.0,0.0,0.0,0.0,0.0,0.0,0.0,0.0,0.0,-1.3661,-1.3454,-1.3454,-1.33,-1.3173,-1.3086,-1.2985,-1.2871,-1.2784,-1.2449,-1.2335,-1.2455,-1.2248,-1.2536,-1.3213,-1.3213,-1.3534,-1.4088,-1.4088,-1.4135,-1.4229,-1.4522,-1.4816,-1.5156,-1.5404,-1.5645,-1.5784,-1.5784,-1.5784,-1.5784,-0.6973,-0.7121,-0.7208,-0.7208,-0.7415,-0.7542,-0.7399,-0.7486,-0.7602,0.0,0.0,0.0,-0.7866,-0.7903,-0.7846,-0.7675,-0.7114,-0.6573,-0.6106,-0.5845,-0.5694,-0.5694,-0.5878,-0.605,-0.6189,-0.631,-0.6151,-0.5694,-0.5959,-0.6132,-0.6233,-0.6647,-0.7073,-0.7526,-0.7406,-0.7559,-0.7859,-0.7126,-0.7435,0.0,-0.8958,0.0,0.0,-0.9065,-0.8961,0.0,0.0,0.0,-0.7444,-0.6648,-0.687,0.0,0.0,0.0,0.0,0.0,0.0,0.0,0.0,0.0,0.0,0.0,0.0,0.0,-0.8341,-0.7943,-0.7643,0.0,0.0,0.0,0.0,0.0,0.0,0.0,0.0,0.0,0.0,0.0,0.0,0.0,0.0,0.0,0.0,0.0,0.0,0.0,-1.3186,-1.2959,-1.2839,-1.2599,-1.2579,-1.2826,-1.2418,-1.2348,-1.2596,-1.2141,-1.2011,-1.2298,-1.2131,-1.2458,-1.3206,-1.3073,-1.3407,-1.4082,-1.3955,-1.3975,-1.4102,-1.4269,-1.4589,-1.5035,-1.5284,-1.5571,-1.5784,-1.5784,-1.5784,-1.5784,0.0,-0.7281,-0.7511,-0.7578,-0.804,-0.8335,-0.8079,-0.825,-0.8323,0.0,-0.8377,-0.8569,-0.8636,-0.8958,-0.8865,-0.8119,-0.7466,-0.6966,-0.666,-0.6086,-0.5758,-0.5758,-0.5774,-0.5932,-0.6236,-0.6506,-0.6346,-0.5758,-0.6253,-0.6239,-0.5772,-0.6299,-0.67,-0.694,-0.6707,-0.7034,-0.7712,-0.7001,0.0,-0.8476,-0.9286,-0.9466,0.0,0.0,-0.8974,-0.8353,-0.7236,-0.6785,-0.6625,-0.6088,-0.615,0.0,0.0,0.0,0.0,0.0,-0.7348,0.0,0.0,0.0,0.0,0.0,0.0,0.0,-0.8571,-0.8537,-0.8623,0.0,0.0,0.0,0.0,0.0,0.0,0.0,0.0,0.0,0.0,0.0,0.0,0.0,0.0,0.0,0.0,0.0,-1.336,-1.3365,-1.3029,-1.2706,-1.2364,-1.1745,-1.1663,-1.2191,-1.1662,-1.1677,-1.2198,-1.1944,-1.1964,-1.2258,-1.2258,-1.2572,-1.3153,-1.2911,-1.3239,-1.3975,-1.37,-1.3753,-1.4041,-1.4075,-1.4416,-1.4988,-1.5237,-1.5524,-1.5738,-1.5771,-1.5784,-1.5784,-0.739,-0.745,-0.7645,-0.8134,-0.8322,-0.851,-0.8891,-0.8637,-0.8717,-0.9544,-0.9539,-0.9635,-1.011,-0.9392,-0.8891,-0.8951,-0.8205,-0.7499,-0.6953,-0.6412,-0.6109,-0.6109,-0.6311,-0.6446,-0.6519,-0.6787,-0.6653,-0.6109,-0.5945,-0.5945,-0.6109,-0.6223,-0.6412,-0.6673,-0.6613,-0.6687,-0.6874,-0.7189,0.0,-0.8435,-0.8818,0.0,-0.9579,-0.9369,-0.9241,-0.9,-0.8088,-0.8156,-0.8779,0.0,-0.8639,-0.7977,0.0,0.0,0.0,0.0,0.0,0.0,0.0,0.0,0.0,0.0,0.0,0.0,-0.8105,-0.8243,-0.8449,0.0,0.0,0.0,0.0,0.0,0.0,0.0,0.0,0.0,0.0,0.0,0.0,0.0,0.0,0.0,0.0,0.0,-1.4544,-1.4261,-1.359,-1.3031,-1.2647,-1.1861,-1.1442,-1.1555,-1.1449,-1.1449,-1.1562,-1.1502,-1.1663,-1.1986,-1.1986,-1.2301,-1.2878,-1.2811,-1.3018,-1.3394,-1.3527,-1.3633,-1.3706,-1.3988,-1.4295,-1.4636,-1.493,-1.5224,-1.5504,-1.5745,-1.5784,-1.5784,-0.7513,-0.7732,-0.8087,-0.851,-0.8858,-0.9172,-0.9584,-0.9552,-0.9702,-1.0261,-1.0341,-1.0311,-1.0171,-0.9726,-0.9311,-0.9024,-0.849,-0.7896,-0.7281,-0.6834,-0.6546,-0.6399,-0.6533,-0.6747,-0.7042,-0.7021,-0.6807,-0.6392,-0.6238,-0.6005,-0.5759,-0.6055,-0.6405,-0.6794,-0.6519,-0.672,-0.7248,-0.7115,-0.7484,-0.8216,-0.8951,0.0,-0.9857,-0.9442,-0.9306,-0.9177,-0.8323,-0.8291,-0.871,-0.9032,-0.8898,0.0,0.0,-0.8899,-0.9132,0.0,-0.8651,-0.8931,0.0,0.0,0.0,-0.8591,0.0,0.0,0.0,-0.8257,-0.8237,-0.853,0.0,0.0,0.0,0.0,0.0,0.0,0.0,0.0,0.0,0.0,0.0,0.0,0.0,0.0,0.0,0.0,-1.4382,-1.4194,-1.3656,-1.3168,-1.2714,-1.1999,-1.1541,-1.1416,-1.1142,-1.1202,-1.1643,-1.1462,-1.165,-1.2084,-1.2084,-1.2355,-1.2777,-1.263,-1.2779,-1.322,-1.3327,-1.3467,-1.3626,-1.3968,-1.4175,-1.4335,-1.4629,-1.501,-1.5398,-1.5398,-1.5578,-1.5758,-0.7513,-0.7933,-0.8397,-0.8744,-0.9245,-0.9713,-1.006,-1.0227,-1.0399,-1.0573,-1.0894,-1.0828,-1.0174,-1.0214,-1.002,-0.9365,-0.8945,-0.8502,0.0,0.0,0.0,-0.6961,-0.6767,-0.6947,-0.7564,-0.7208,-0.6854,-0.6526,-0.6466,-0.6077,-0.5387,-0.5887,-0.6372,-0.684,-0.6499,-0.686,-0.7692,0.0,0.0,-0.8325,0.0,-0.9793,-0.9897,-0.9581,-0.9452,-0.9362,-0.8726,-0.8511,-0.8506,-0.8639,0.0,-0.9107,-0.8813,-0.9257,0.0,0.0,0.0,0.0,0.0,0.0,0.0,0.0,0.0,-0.8737,0.0,0.0,0.0,-0.8637,0.0,0.0,0.0,0.0,0.0,0.0,0.0,0.0,0.0,0.0,0.0,0.0,0.0,0.0,0.0,0.0,-1.3809,-1.4057,-1.3625,-1.3188,-1.277,-1.2166,-1.1638,-1.1276,-1.0841,-1.0961,-1.1732,-1.1516,-1.169,-1.2218,-1.2278,-1.2425,-1.269,-1.2412,-1.2572,-1.3046,-1.316,-1.3307,-1.3547,-1.3941,-1.4055,-1.4035,-1.4389,-1.481,-1.5204,-1.5075,-1.5257,-1.5638,-0.7513,-0.7742,-0.8132,-0.8711,-0.9044,-0.9451,-1.0003,-0.9677,-0.9673,-1.0486,-1.1035,-1.1436,-1.1638,-1.1189,-1.0955,-1.1082,0.0,0.0,-0.9481,0.0,0.0,0.0,0.0,0.0,-0.7839,-0.7293,-0.6754,-0.6243,-0.5939,-0.5758,-0.5648,-0.5731,-0.5956,-0.631,-0.672,-0.6973,-0.7133,0.0,-0.8437,0.0,-0.9655,-0.9546,0.0,-0.9834,-1.0008,-1.0047,-1.0241,-1.0301,-1.0301,0.0,-1.0371,-1.0329,0.0,-1.0186,-1.0378,0.0,0.0,0.0,0.0,0.0,0.0,0.0,-0.9531,0.0,0.0,0.0,-0.8657,-0.8489,0.0,0.0,0.0,0.0,0.0,0.0,0.0,0.0,0.0,0.0,0.0,0.0,0.0,0.0,0.0,0.0,0.0,-1.4621,-1.3779,-1.3144,-1.2979,-1.2212,-1.1474,-1.0719,-1.0626,-1.076,-1.1089,-1.1316,-1.159,-1.1953,-1.2178,-1.2318,-1.2351,-1.2318,-1.2338,-1.2438,-1.2973,-1.3227,-1.33,-1.3854,-1.3928,-1.3706,-1.4259,-1.4563,-1.4649,-1.4877,-1.5055,-1.5142,-0.7457,-0.7879,-0.8263,-0.8517,-0.8911,-0.9357,0.0,-1.0203,-1.0609,-1.1015,-1.1423,-1.1663,0.0,0.0,0.0,0.0,0.0,-1.0107,0.0,0.0,0.0,0.0,0.0,0.0,0.0,-0.7313,-0.682,-0.6425,-0.5939,-0.5625,-0.5464,-0.5631,-0.6146,-0.6969,-0.7189,0.0,-0.8571,0.0,-0.8851,0.0,0.0,0.0,0.0,-1.0423,-1.0775,-1.0621,-1.0606,-1.0593,-1.0593,0.0,-1.0593,0.0,0.0,0.0,0.0,0.0,0.0,0.0,0.0,0.0,0.0,0.0,0.0,0.0,0.0,0.0,-0.8571,0.0,0.0,0.0,0.0,0.0,0.0,0.0,0.0,0.0,0.0,0.0,0.0,0.0,0.0,0.0,0.0,0.0,0.0,0.0,0.0,-1.3714,-1.407,-1.3212,-1.2404,-1.1671,-1.1125,-1.0949,-1.1243,-1.1329,-1.1663,-1.2124,-1.2245,-1.2305,-1.2305,-1.2305,-1.2305,-1.2325,-1.2752,-1.3046,-1.324,-1.3661,-1.3854,-1.3928,-1.4175,-1.4269,-1.4282,-1.4409,-1.4821,-1.5211,-0.743,-0.7846,-0.8174,-0.8237,-0.8671,0.0,0.0,0.0,0.0,0.0,0.0,0.0,-1.1657,-1.155,0.0,0.0,-1.1456,-1.0942,0.0,0.0,-0.9237,0.0,0.0,0.0,0.0,0.0,0.0,-0.6606,-0.6086,-0.5765,-0.5655,-0.5772,-0.6439,-0.752,0.0,-0.8429,-0.9559,0.0,-0.9471,-0.9573,-1.0134,-1.0247,-1.0137,-1.0962,-1.1176,-1.0962,-1.0787,-1.066,-1.0593,-1.0593,-1.0646,0.0,-1.0713,0.0,0.0,0.0,0.0,0.0,-1.008,0.0,0.0,0.0,0.0,0.0,0.0,0.0,0.0,0.0,0.0,0.0,0.0,0.0,0.0,0.0,0.0,0.0,0.0,0.0,0.0,0.0,0.0,0.0,0.0,0.0,0.0,0.0,-1.3116,0.0,-1.4008,-1.3584,-1.2956,-1.2266,-1.1653,-1.1414,-1.1627,-1.1478,-1.1608,-1.2058,-1.2144,-1.2184,-1.2184,-1.2265,-1.2305,-1.2318,-1.2656,-1.2911,-1.3113,-1.3447,-1.368,-1.3861,-1.4028,-1.4041,-1.3975,-1.4055,-1.4543,-1.5137,-0.743,-0.7527,-0.7611,-0.7866,-0.8203,0.0,0.0,0.0,0.0,0.0,0.0,0.0,0.0,0.0,0.0,0.0,0.0,-1.2859,-1.2245,0.0,-1.0327,0.0,0.0,-0.8305,0.0,0.0,0.0,0.0,-0.633,-0.6317,-0.6559,-0.6303,-0.6653,-0.7533,-0.8107,-0.8684,-0.9264,-0.9824,-1.0543,-1.1289,-1.1069,-1.1463,-1.2118,0.0,-1.1002,-1.0995,-1.0982,0.0,0.0,-1.0593,-1.078,0.0,0.0,0.0,0.0,0.0,0.0,0.0,0.0,0.0,0.0,-0.9923,0.0,0.0,0.0,0.0,-0.9486,0.0,0.0,0.0,0.0,0.0,0.0,-0.7952,0.0,0.0,0.0,0.0,0.0,0.0,0.0,0.0,0.0,0.0,0.0,-1.1806,-1.1359,-1.1267,-1.1873,-1.262,-1.265,-1.1849,-1.203,-1.2161,-1.2168,-1.1674,-1.1402,-1.1422,-1.175,-1.1919,-1.1926,-1.2171,-1.2305,-1.2318,-1.2656,-1.279,-1.2844,-1.34,-1.3447,-1.3293,-1.3861,-1.3908,-1.3653,-1.3981,-1.4282,-1.4583,-0.7471,-0.7651,-0.7742,-0.7642,-0.806,0.0,0.0,-0.9472,0.0,0.0,0.0,0.0,0.0,-1.3574,-1.3794,0.0,0.0,-1.324,-1.267,-1.1583,0.0,0.0,0.0,-0.9138,0.0,0.0,0.0,0.0,0.0,-0.678,-0.688,-0.6995,-0.7316,-0.7796,0.0,-0.9205,0.0,0.0,0.0,0.0,0.0,-1.1516,-1.2245,0.0,0.0,-1.1249,-1.1062,-1.0841,0.0,-1.0593,-1.0787,-1.0995,-1.0995,-1.0995,-1.1009,-1.1109,-1.1002,0.0,0.0,0.0,-1.1116,-1.0466,0.0,0.0,0.0,0.0,0.0,0.0,0.0,0.0,0.0,0.0,0.0,-0.8243,0.0,0.0,0.0,0.0,0.0,0.0,0.0,0.0,0.0,0.0,0.0,-1.0545,-1.0788,-1.1426,0.0,-1.257,-1.2625,-1.2971,-1.2487,-1.2186,-1.2186,-1.2011,-1.1857,-1.1724,-1.1859,-1.2007,-1.2158,-1.2258,-1.2305,-1.2311,-1.2412,-1.2603,-1.2797,-1.3005,-1.3227,-1.3473,-1.3673,-1.3854,-1.3948,-1.4048,-1.4269,-1.4563,-0.7812,-0.7862,0.0,0.0,0.0,0.0,0.0,0.0,0.0,0.0,-1.2058,0.0,-1.3955,0.0,-1.4355,0.0,-1.4329,-1.3774,-1.3005,-1.2378,0.0,-1.1476,-1.0715,0.0,0.0,0.0,0.0,0.0,0.0,-0.7502,-0.7502,-0.7589,-0.7849,-0.8232,0.0,-0.9459,-1.0613,-1.0901,-1.1176,0.0,0.0,-1.1797,0.0,0.0,-1.1844,-1.1543,0.0,-1.0962,-1.0727,-1.0626,-1.0787,-1.0995,-1.0995,-1.0995,-1.1035,-1.1243,-1.1156,-1.1035,-1.1249,-1.1363,0.0,0.0,-1.0568,0.0,-0.9524,0.0,0.0,0.0,0.0,0.0,0.0,0.0,0.0,-0.853,-0.819,0.0,0.0,-0.6794,0.0,0.0,0.0,0.0,0.0,0.0,-0.8774,-0.9807,-1.0044,-1.0781,0.0,0.0,-1.2332,-1.2932,-1.2479,-1.2166,-1.2054,-1.1883,-1.1696,-1.1591,-1.1663,-1.1864,-1.2151,-1.2258,-1.2305,-1.2305,-1.2305,-1.2591,-1.3126,-1.2973,-1.333,-1.3938,-1.3837,-1.3915,-1.4088,-1.4088,-1.4335,-1.4736,-0.8402,-0.817,0.0,0.0,-0.8851,0.0,0.0,0.0,-1.0821,0.0,-1.2024,-1.2846,-1.4041,-1.4422,-1.4696,-1.5028,-1.5035,0.0,-1.3394,-1.3267,0.0,0.0,-1.1784,-1.1415,-1.1415,0.0,0.0,0.0,0.0,0.0,-0.8435,-0.8092,-0.8245,-0.8804,-0.8804,0.0,-1.0613,-1.0855,-1.149,-1.2305,-1.2305,-1.2305,-1.2305,-1.2305,0.0,-1.1886,-1.1557,-1.1263,-1.0969,-1.0713,-1.0807,-1.1009,-1.0995,-1.1002,-1.1122,-1.1718,-1.1463,-1.1156,-1.1752,-1.167,-1.1369,-1.1109,0.0,0.0,0.0,0.0,-1.0378,0.0,0.0,0.0,0.0,0.0,0.0,0.0,0.0,0.0,0.0,0.0,0.0,0.0,0.0,0.0,0.0,-0.7826,-0.81,-0.9521,-0.9105,-0.9312,0.0,0.0,0.0,-1.1803,-1.2054,-1.2069,-1.1825,-1.1307,-1.1022,-1.1042,-1.1303,-1.159,-1.194,-1.2178,-1.2305,-1.2305,-1.2305,-1.2849,-1.3711,-1.3404,-1.381,-1.4697,-1.4365,-1.4243,-1.4277,-1.4151,-1.4482,-1.5109,-0.8442,-0.8664,-0.8898,0.0,-0.8784,-0.8891,0.0,0.0,0.0,0.0,-1.326,-1.4075,-1.5251,-1.5451,-1.5478,-1.5605,-1.5411,0.0,0.0,0.0,0.0,-1.3627,-1.2425,-1.1757,-1.1757,-1.0608,0.0,-0.975,0.0,0.0,-0.8984,-0.8691,-0.8664,-0.8804,0.0,-0.9459,-1.0593,-1.0673,-1.1303,-1.2305,-1.2305,-1.2305,0.0,0.0,-1.2258,-1.2151,-1.1857,-1.1563,-1.1269,-1.0982,-1.1076,-1.1242,-1.1062,-1.1142,-1.1343,-1.1496,-1.159,-1.1712,-1.1866,-1.1971,-1.2004,-1.1752,-1.1476,-1.1196,0.0,0.0,0.0,0.0,0.0,0.0,0.0,0.0,0.0,0.0,0.0,0.0,0.0,0.0,0.0,0.0,0.0,0.0,0.0,-0.7515,-0.7945,-0.8325,-0.8644,0.0,0.0,0.0,0.0,-1.1764,-1.2054,-1.2181,-1.2099,-1.176,-1.1631,-1.1678,-1.1496,-1.169,-1.2191,-1.2271,-1.2305,-1.2305,-1.2305,-1.3049,-1.4201,-1.4148,-1.4988,-1.6306,-1.6214,-1.653,-1.6786,-1.5034,-1.4783,-1.5304,-0.8784,-0.9191,0.0,-0.9597,0.0,0.0,-1.0556,0.0,0.0,-1.3013,-1.3721,0.0,-1.517,-1.5551,-1.5784,-1.5784,-1.5678,0.0,-1.5037,0.0,0.0,-1.3915,-1.3333,-1.2852,-1.2465,-1.1543,0.0,-1.0307,0.0,0.0,-0.9024,-0.8884,-0.8738,-0.8624,0.0,-0.9319,-1.0251,-1.0894,-1.1544,-1.2124,-1.2251,0.0,0.0,-1.2305,-1.2305,-1.2278,-1.2118,-1.187,-1.1577,-1.1283,-1.1209,-1.1209,-1.1042,-1.1102,-1.1263,-1.1355,-1.1637,-1.1933,-1.2024,-1.2178,-1.2265,-1.2098,-1.1931,-1.1662,-1.1276,-1.1309,-1.1182,0.0,0.0,0.0,0.0,0.0,0.0,0.0,0.0,0.0,0.0,0.0,0.0,0.0,0.0,0.0,0.0,0.0,-0.8016,0.0,0.0,0.0,0.0,0.0,0.0,-1.105,-1.2166,-1.2424,-1.1689,-1.2647,-1.2725,-1.1899,-1.211,-1.224,-1.2305,-1.2305,-1.2519,-1.2915,-1.2915,-1.3925,-1.5614,-1.5314,-1.6117,-1.7501,-1.7192,-1.7548,-1.7991,-1.6672,-1.6566,-1.6979,-0.9217,-0.9717,0.0,0.0,0.0,0.0,0.0,-1.1688,0.0,-1.324,0.0,-1.4416,-1.4619,-1.5371,-1.5784,-1.5784,0.0,-1.5458,-1.4743,-1.5291,-1.5105,-1.3826,-1.4153,-1.4028,-1.3227,-1.2572,0.0,0.0,0.0,0.0,-0.8804,-0.8804,-0.8651,-0.8415,0.0,0.0,0.0,-1.127,-1.1893,-1.1986,-1.2204,-1.2305,-1.2305,-1.2305,-1.2305,-1.2305,-1.2305,-1.2138,-1.1913,-1.1583,-1.1316,-1.1102,-1.1062,-1.1076,-1.1156,-1.141,-1.1697,-1.202,-1.2231,-1.2305,-1.2305,-1.2305,-1.2305,-1.2164,-1.1657,-1.1502,-1.139,-1.0874,-1.0494,0.0,0.0,0.0,0.0,0.0,0.0,0.0,0.0,0.0,0.0,0.0,0.0,0.0,0.0,0.0,0.0,0.0,0.0,0.0,0.0,0.0,0.0,0.0,-1.2181,0.0,-1.1169,0.0,-1.3835,-1.2192,-1.2953,-1.3006,-1.2482,-1.2378,-1.2732,-1.3528,-1.3637,-1.4973,-1.6991,-1.6575,-1.7289,-1.8547,-1.798,-1.8161,-1.8777,-1.8777,-1.9082,-1.9373,-0.9257,0.0,0.0,0.0,0.0,-1.2044,-1.2786,-1.3313,-1.3781,-1.4235,-1.501,-1.5545,-1.5591,-1.5691,-1.5784,-1.5784,-1.5784,0.0,0.0,0.0,0.0,-1.4787,-1.4128,-1.3573,-1.322,-1.2378,-1.1638,0.0,0.0,0.0,-0.8804,-0.8804,-0.8651,-0.8415,0.0,0.0,-1.0486,-1.1189,0.0,-1.2231,-1.2278,-1.2305,-1.2305,-1.2305,-1.2305,-1.2305,-1.2305,-1.2271,-1.2184,-1.1926,-1.1792,-1.1705,-1.143,-1.1516,-1.1759,-1.1812,-1.1997,-1.2238,-1.2285,-1.2305,-1.2305,-1.2305,-1.2305,-1.2278,-1.2171,-1.2151,-1.2051,-1.1745,-1.1403,-1.1069,-1.0673,0.0,0.0,0.0,0.0,0.0,0.0,0.0,0.0,0.0,0.0,0.0,0.0,0.0,0.0,0.0,0.0,0.0,0.0,0.0,0.0,0.0,0.0,0.0,0.0,0.0,0.0,-1.3807,-1.345,-1.336,-1.3419,-1.2666,-1.2372,-1.2592,-1.3346,-1.4574,-1.6128,-1.7151,-1.8627,-2.0178,-2.009,-2.0305,-2.0711,-2.0711,-2.1237,-2.1509,0.0,0.0,0.0,0.0,0.0,0.0,0.0,-1.4516,0.0,-1.4563,-1.489,-1.515,-1.515,-1.5511,-1.5784,-1.5784,-1.5784,-1.5784,-1.5784,-1.5424,-1.5169,-1.5015,-1.4409,0.0,-1.3407,-1.2859,-1.2051,-1.0995,0.0,0.0,0.0,0.0,0.0,-0.8176,0.0,-0.9659,0.0,0.0,0.0,-1.2104,-1.2449,-1.2476,-1.2318,-1.2472,-1.2438,-1.2318,-1.2516,-1.2432,-1.2278,-1.2138,-1.2033,-1.1879,-1.1697,-1.1757,-1.1906,-1.1906,-1.2078,-1.2305,-1.2305,-1.2305,-1.2305,-1.2305,-1.2305,-1.2305,-1.2305,-1.2305,-1.2218,-1.1966,-1.1757,-1.1476,-1.0928,-1.0307,0.0,0.0,0.0,0.0,0.0,0.0,0.0,0.0,0.0,0.0,0.0,0.0,0.0,0.0,0.0,0.0,0.0,0.0,0.0,0.0,0.0,0.0,0.0,0.0,0.0,-1.394,-1.4683,-1.4814,-1.445,-1.3455,-1.331,-1.3854,-1.4494,-1.5577,-1.6998,-1.8638,-1.9793,-2.0605,-2.0605,-2.0977,-2.1572,-2.1572,-2.2109,-2.2476,0.0,-1.1283,0.0,0.0,-1.2999,0.0,-1.4416,-1.5218,-1.5531,-1.489,-1.4803,-1.4803,-1.4803,-1.5371,-1.5784,-1.5784,-1.5784,-1.5758,-1.5745,-1.5464,-1.5177,-1.4928,-1.4583,-1.4182,-1.3613,-1.338,-1.2639,0.0,0.0,0.0,0.0,0.0,0.0,0.0,0.0,0.0,0.0,0.0,-1.2245,-1.2234,-1.2697,-1.2744,-1.2518,-1.2797,-1.2737,-1.2518,-1.2723,-1.263,-1.2385,-1.2325,-1.2151,-1.2,-1.2,-1.2,-1.2,-1.2,-1.2124,-1.2305,-1.2305,-1.2305,-1.2305,-1.2305,-1.2305,-1.2305,-1.2305,-1.2305,-1.2238,-1.2047,-1.1946,-1.1725,-1.1102,-1.0661,0.0,0.0,0.0,0.0,0.0,0.0,0.0,0.0,0.0,0.0,0.0,0.0,0.0,0.0,0.0,0.0,0.0,0.0,0.0,0.0,0.0,-1.361,-1.2219,0.0,-1.5999,0.0,-1.5903,-1.621,-1.5446,-1.445,-1.445,-1.5223,-1.5833,-1.6956,-1.8452,-1.987,-2.0517,-2.0576,-2.042,-2.0923,-2.1717,-2.1546,-2.2132,-2.2776,0.0,0.0,0.0,0.0,0.0,0.0,0.0,-1.5218,-1.5751,-1.5671,-1.5658,-1.5658,-1.5658,-1.5731,-1.5784,-1.5784,-1.5784,-1.5718,-1.5451,-1.5209,-1.487,-1.4576,-1.4282,-1.3975,-1.3613,-1.358,-1.3094,0.0,0.0,0.0,0.0,0.0,0.0,0.0,0.0,0.0,0.0,-1.2245,-1.2605,-1.3093,-1.3146,-1.3146,-1.3126,-1.316,-1.3146,-1.3093,-1.2878,-1.2764,-1.2703,-1.2392,-1.2285,-1.2265,-1.2265,-1.2265,-1.2265,-1.2265,-1.2278,-1.2305,-1.2305,-1.2305,-1.2305,-1.2305,-1.2305,-1.2305,-1.2305,-1.2305,-1.2291,-1.2265,-1.2051,-1.1725,-1.1102,-1.1162,-1.1129,0.0,0.0,0.0,0.0,0.0,0.0,0.0,0.0,0.0,0.0,0.0,0.0,0.0,0.0,0.0,0.0,0.0,0.0,-1.1642,0.0,-1.1952,-1.3155,-1.4627,0.0,-1.6685,-1.6633,-1.6558,-1.6428,-1.5473,-1.5128,-1.5251,-1.6526,-1.8055,-1.9751,-1.9904,-2.0215,-2.0518,-1.9798,-2.0245,-2.1176,-2.0463,-2.1193,-2.2516,0.0,0.0,0.0,0.0,0.0,0.0,0.0,-1.5558,-1.5784,-1.5784,-1.5784,-1.5784,-1.5784,-1.5784,-1.5784,-1.5784,-1.5784,-1.5705,-1.5418,-1.5169,-1.483,-1.4492,-1.4242,-1.4035,-1.3915,-1.3693,-1.3287,0.0,0.0,0.0,0.0,0.0,0.0,0.0,0.0,-1.175,-1.2338,-1.2879,-1.3146,-1.3213,-1.3213,-1.3213,-1.3213,-1.3213,-1.3093,-1.2978,-1.3006,-1.2831,-1.2496,-1.2345,-1.2305,-1.2305,-1.2305,-1.2305,-1.2305,-1.2305,-1.2305,-1.2305,-1.2305,-1.2305,-1.2305,-1.2305,-1.2305,-1.2305,-1.2305,-1.2305,-1.2305,-1.2305,-1.2204,-1.2058,-1.1824,-1.1583,-1.141,0.0,0.0,0.0,0.0,0.0,0.0,0.0,0.0,0.0,0.0,0.0,0.0,0.0,0.0,0.0,0.0,0.0,0.0,-1.108,0.0,-1.2962,-1.3952,-1.5185,-1.6252,-1.7144,-1.7586,-1.7669,-1.7398,-1.6463,-1.6333,-1.6825,-1.667,-1.7663,-1.9357,-1.9357,-1.9489,-1.9685,-2.0266,-2.0972,-2.1598,-2.1526,-2.2074,-2.2847,-1.4309,0.0,-1.4041,0.0,-1.4877,-1.4877,-1.5705,-1.5784,-1.5784,-1.5784,-1.5784,-1.5784,-1.5784,-1.5784,-1.5784,-1.5784,-1.5784,-1.5705,-1.5418,-1.5204,-1.4923,-1.4536,-1.4322,0.0,-1.4088,-1.3881,-1.3567,-1.3179,-1.2251,0.0,0.0,0.0,0.0,0.0,-1.2158,-1.2579,-1.2872,-1.3507,-1.3661,-1.3467,-1.3467,-1.3467,-1.3467,-1.3467,-1.3333,-1.3186,-1.3193,-1.2933,-1.2545,-1.2365,-1.2305,-1.2305,-1.2305,-1.2305,-1.2305,-1.2305,-1.2305,-1.2305,-1.2305,-1.2305,-1.2305,-1.2305,-1.2305,-1.2305,-1.2305,-1.2305,-1.2305,-1.2305,-1.2305,-1.2305,-1.2305,-1.1964,-1.1724,0.0,0.0,0.0,0.0,0.0,0.0,0.0,-1.223,-1.177,-1.0978,0.0,0.0,0.0,0.0,0.0,0.0,0.0,0.0,0.0,0.0,0.0,0.0,-1.5103,-1.6142,-1.7144,-1.7739,-1.8062,-1.8159,-1.7621,-1.7776,-1.8443,-1.7316,-1.7652,-1.8957,-1.8638,-1.878,-1.9254,-2.0079,-2.1085,-2.2077,-2.2135,-2.2568,-2.3091,-1.4881,-1.4995,-1.513,-1.5718,-1.5764,-1.5764,-1.5778,-1.5784,-1.5784,-1.5784,-1.5784,-1.5784,-1.5784,-1.5784,-1.5784,-1.5784,-1.5784,-1.5705,-1.5418,-1.5391,-1.513,0.0,0.0,-1.4382,-1.4095,-1.4082,-1.4082,-1.4075,0.0,0.0,-1.273,0.0,-1.1877,-1.2764,-1.277,-1.3273,-1.4068,-1.4075,-1.4082,-1.4075,-1.4075,-1.4075,-1.4075,-1.4075,-1.4075,-1.3995,-1.342,-1.3206,-1.3106,-1.2505,-1.2305,-1.2305,-1.2305,-1.2305,-1.2305,-1.2305,-1.2305,-1.2305,-1.2305,-1.2305,-1.2305,-1.2305,-1.2305,-1.2305,-1.2305,-1.2305,-1.2305,-1.2305,-1.2305,-1.2305,-1.2305,-1.2291,-1.2198,-1.1953,0.0,0.0,0.0,0.0,0.0,0.0,-1.0906,-1.0906,-1.0899,0.0,0.0,0.0,0.0,0.0,0.0,0.0,0.0,-1.3489,-1.2506,0.0,-1.3309,-1.3925,-1.517,-1.7,-1.673,-1.7318,-1.8607,-1.9072,-1.9502,-1.9827,-1.8736,-1.8539,-1.8917,-1.7779,-1.8203,-1.9529,-1.8735,-2.0116,-2.2421,-2.1599,-2.2076,-2.3091,-1.5518,-1.5558,-1.5611,-1.5751,-1.5784,-1.5784,-1.5784,-1.5784,-1.5784,-1.5784,-1.5784,-1.5784,-1.5784,-1.5784,-1.5784,0.0,-1.5784,-1.5705,0.0,-1.5398,-1.5224,-1.4836,-1.4629,-1.4476,-1.4382,-1.4188,-1.4088,-1.4088,0.0,0.0,0.0,-1.2772,-1.3006,-1.3702,-1.3702,-1.3862,-1.4088,-1.4088,-1.4088,-1.4068,-1.3868,-1.3908,-1.4068,-1.3861,-1.3661,-1.3494,-1.3467,-1.3074,-1.2592,-1.2636,-1.2509,-1.2305,-1.2305,-1.2305,-1.2305,-1.2305,-1.2305,-1.2305,-1.2305,-1.2305,-1.2305,-1.2305,-1.2305,-1.2305,-1.2305,-1.2305,-1.2305,-1.2305,-1.2305,-1.2305,-1.2305,-1.2305,-1.2204,-1.1953,0.0,0.0,0.0,0.0,0.0,0.0,-1.397,-1.3758,0.0,-1.2416,0.0,0.0,0.0,0.0,0.0,0.0,0.0,0.0,-1.3577,0.0,-1.5748,-1.6116,-1.6846,-1.7907,-1.8536,-1.8918,-1.9082,-1.9219,-1.9512,-1.9837,-1.8793,-1.8118,-1.7844,-1.7689,-1.748,-1.7415,-1.9273,-2.0521,-2.1386,-2.2199,-2.2775,-2.3091,-1.5784,-1.5784,-1.5784,-1.5784,-1.5784,-1.5784,-1.5784,-1.5784,-1.5784,-1.5784,-1.5784,-1.5784,-1.5784,-1.5784,0.0,-1.5784,-1.5784,-1.5752,-1.5571,-1.5558,-1.5431,-1.5137,-1.495,-1.4796,-1.4689,0.0,0.0,-1.4249,-1.3774,-1.354,-1.354,-1.354,-1.3734,-1.4088,-1.4088,-1.4088,-1.4088,-1.4088,-1.4088,-1.4075,-1.3881,-1.3921,-1.4068,-1.3881,-1.3627,-1.336,-1.354,-1.314,-1.2536,-1.2723,-1.2589,-1.2305,-1.2305,-1.2305,-1.2305,-1.2305,-1.2305,-1.2305,-1.2305,-1.2305,-1.2325,-1.2445,-1.2509,-1.2509,-1.2509,-1.2559,-1.2579,-1.2351,-1.2392,-1.2438,-1.2325,-1.2305,-1.2204,-1.1953,0.0,-1.2726,0.0,0.0,0.0,0.0,0.0,0.0,0.0,-1.3008,0.0,0.0,0.0,0.0,0.0,0.0,0.0,-1.4106,-1.4975,0.0,-1.6882,-1.7083,-1.7528,-1.8323,-1.9374,-1.9775,-1.9531,-1.9697,-1.9912,-2.0118,-1.9014,-1.8329,-1.7925,-1.7713,-1.7547,-1.761,-1.9518,-2.072,-2.1506,-2.2491,-2.2955,-2.3091,-1.5784,-1.5784,0.0,0.0,-1.5784,0.0,-1.5784,-1.5784,-1.5784,-1.5784,-1.5784,-1.5784,-1.5784,-1.5784,-1.5784,-1.5784,0.0,0.0,0.0,-1.5784,-1.5698,-1.5411,-1.5398,0.0,-1.4988,-1.4663,-1.4509,-1.4489,-1.4222,-1.4088,-1.4088,-1.4088,-1.4088,-1.4088,-1.4088,-1.4088,-1.4088,-1.4088,-1.4088,-1.4088,-1.4088,-1.4088,-1.4082,-1.4062,-1.3881,-1.36,-1.36,-1.3273,-1.2817,-1.2837,-1.2636,-1.2331,-1.2331,-1.2318,-1.2305,-1.2305,-1.2318,-1.2331,-1.2331,-1.2351,-1.2432,-1.2744,-1.2817,-1.2817,-1.2817,-1.3025,-1.3019,-1.2478,-1.2589,-1.2677,-1.2378,-1.2298,-1.2178,-1.1919,-1.1873,-1.1936,-1.2155,0.0,0.0,0.0,0.0,0.0,0.0,-1.2369,-1.2994,0.0,0.0,0.0,0.0,0.0,-1.3986,-1.581,-1.6525,-1.6938,-1.7041,-1.7041,-1.7519,-1.8475,-1.9488,-1.9961,-1.9971,-2.0381,-2.0605,-2.0527,-1.952,-1.9085,-1.8917,-1.7893,-1.8237,-1.9538,-1.9647,-2.0782,-2.2421,-2.2516,-2.276,-2.3091,0.0,0.0,-1.5784,-1.5784,-1.5784,-1.5784,-1.5784,-1.5784,-1.5784,-1.5784,-1.5784,-1.5784,-1.5784,-1.5784,-1.5784,-1.5784,-1.5784,-1.5784,-1.5784,-1.5784,-1.5698,-1.5411,-1.5398,-1.5157,-1.4636,-1.4556,-1.4409,-1.4188,-1.4122,-1.4088,-1.4088,-1.4088,-1.4088,-1.4088,-1.4088,-1.4088,-1.4088,-1.4088,-1.4088,-1.4088,-1.4088,-1.4088,-1.4062,-1.3834,-1.3666,-1.36,-1.36,-1.3407,-1.3133,-1.3353,-1.308,-1.2683,-1.2683,-1.2522,-1.2305,-1.2305,-1.2496,-1.2683,-1.2683,-1.2812,-1.3013,-1.308,-1.31,-1.31,-1.31,-1.3012,-1.2918,-1.2973,-1.2679,-1.2452,-1.265,-1.2308,-1.1877,-1.1577,-1.153,-1.1621,-1.1855,-1.2462,0.0,0.0,-1.3939,-1.4656,-1.4656,-1.3804,-1.3794,0.0,0.0,0.0,0.0,0.0,-1.4762,-1.6192,-1.6572,-1.7299,-1.8488,-1.8488,-1.9009,-2.0052,-2.0333,-2.0449,-2.0458,-2.0556,-2.0605,-2.0605,-2.0323,-1.9766,-1.8984,-1.8949,-1.8839,-1.8786,-1.9977,-2.0907,-2.1706,-2.2621,-2.3013,-2.3091,-1.5784,-1.5784,-1.5784,-1.5784,-1.5784,-1.5784,-1.5784,-1.5784,-1.5784,-1.5784,-1.5784,-1.5784,-1.5784,-1.5784,-1.5784,-1.5784,-1.5784,-1.5784,-1.5784,-1.5784,-1.5758,-1.5605,-1.5591,-1.5444,-1.5078,-1.499,-1.471,-1.4282,-1.4282,-1.4215,-1.4088,-1.4088,-1.4088,-1.4088,-1.4088,-1.4088,-1.4088,-1.4088,-1.4088,-1.4088,-1.4088,-1.4088,-1.4068,-1.3908,-1.372,-1.362,-1.376,-1.3574,-1.3253,-1.3507,-1.334,-1.2998,-1.2998,-1.2846,-1.2719,-1.2719,-1.277,-1.2817,-1.2958,-1.308,-1.324,-1.3333,-1.3514,-1.3574,-1.344,-1.3387,-1.3373,-1.3233,-1.3053,-1.2879,-1.2804,-1.2415,-1.1924,-1.1462,-1.1316,-1.1228,-1.1266,-1.197,0.0,-1.3185,-1.4304,-1.5265,-1.5927,-1.5154,-1.4958,-1.5825,0.0,0.0,-1.5317,-1.4797,-1.5108,-1.6591,-1.7349,-1.8171,-1.8997,-1.9481,-2.0001,-2.0605,-2.0605,-2.0605,-2.0605,-2.0605,-2.0605,-2.0605,-2.0605,-2.0284,-1.9736,-1.9881,-1.9723,-1.9483,-2.0329,-2.088,-2.1358,-2.2225,-2.2685,-2.2838,-1.5784,-1.5784,-1.5784,-1.5784,-1.5784,-1.5784,-1.5784,-1.5784,-1.5784,-1.5784,-1.5784,-1.5784,-1.5784,-1.5784,-1.5784,-1.5784,-1.5784,-1.5784,-1.5784,-1.5784,-1.5764,-1.5718,-1.5758,-1.5744,-1.5698,-1.5458,-1.5064,-1.4522,-1.4522,-1.4369,-1.4088,-1.4088,-1.4088,-1.4088,-1.4088,-1.4088,-1.4088,-1.4088,-1.4088,-1.4088,-1.4088,-1.4088,-1.4082,-1.4041,-1.3895,-1.3693,-1.3948,-1.3728,-1.338,-1.3586,-1.348,-1.3273,-1.3273,-1.3247,-1.322,-1.3267,-1.3093,-1.2978,-1.3206,-1.3307,-1.34,-1.3606,-1.3901,-1.4035,-1.378,-1.3935,-1.3961,-1.35,-1.3493,-1.3474,-1.3144,-1.2716,-1.2238,-1.1716,-1.1376,-1.1065,-1.0725,0.0,-1.241,-1.2987,-1.421,-1.5486,-1.6687,-1.6406,-1.6404,-1.7032,-1.5975,0.0,0.0,-1.5517,-1.5639,-1.7271,-1.8302,-1.894,-1.9244,-2.0118,-2.0605,-2.0605,-2.0605,-2.0605,-2.0605,-2.0605,-2.0605,-2.0605,-2.0605,-2.0605,-2.0605,-2.0605,-2.0644,-2.0703,-2.0703,-2.0937,-2.1346,-2.1816,-2.2207,-2.2578,-1.5784,-1.5784,-1.5784,-1.5784,-1.5784,-1.5784,-1.5784,-1.5784,-1.5784,-1.5784,-1.5784,-1.5784,-1.5784,-1.5784,-1.5784,-1.5784,-1.5784,-1.5784,-1.5784,-1.5784,-1.5718,-1.5478,-1.5698,-1.5598,-1.511,-1.5102,-1.4863,-1.4522,-1.4522,-1.4369,-1.4088,-1.4088,-1.4088,-1.4088,-1.4088,-1.4088,-1.4088,-1.4088,-1.4088,-1.4088,-1.4088,-1.4088,-1.4062,-1.3808,-1.3841,-1.3988,-1.3746,-1.3814,-1.3961,-1.4001,-1.3821,-1.3533,-1.3533,-1.3367,-1.326,-1.346,-1.35,-1.3473,-1.3527,-1.3761,-1.3961,-1.4008,-1.4055,-1.4142,-1.4335,-1.4229,-1.4128,-1.4282,-1.3919,-1.373,-1.4219,-1.3564,-1.2908,-1.2705,-1.2292,-1.1765,-1.1027,0.0,-1.2417,-1.2804,-1.5056,-1.6613,-1.671,-1.7342,-1.8212,-1.9283,-1.7421,-1.7264,-1.9707,-1.7937,-1.7589,-1.9133,-1.8384,-1.8763,-2.0323,-2.0527,-2.0605,-2.0605,-2.0605,-2.0605,-2.0605,-2.0605,-2.0605,-2.0605,-2.0605,-2.0605,-2.0605,-2.0605,-2.0791,-2.1093,-2.1093,-2.1396,-2.1836,-2.2256,-2.2461,-2.2578,-1.5784,-1.5784,-1.5784,-1.5784,-1.5784,-1.5784,-1.5784,-1.5784,-1.5784,-1.5784,-1.5784,-1.5784,-1.5784,-1.5784,-1.5784,-1.5784,-1.5784,-1.5784,-1.5784,-1.5784,-1.5718,-1.5631,-1.5711,-1.5705,-1.5438,-1.5431,-1.5284,-1.499,-1.4836,-1.4609,-1.4315,-1.4162,-1.4168,-1.4322,-1.4322,-1.4409,-1.4599,-1.4599,-1.4469,-1.4322,-1.4322,-1.4229,-1.4075,-1.3935,-1.3968,-1.4068,-1.3928,-1.3968,-1.4088,-1.4088,-1.3995,-1.3881,-1.3881,-1.3788,-1.3707,-1.3841,-1.3881,-1.3881,-1.3881,-1.3981,-1.4088,-1.4088,-1.4088,-1.4284,-1.4993,-1.4716,-1.4644,-1.5775,-1.4972,-1.4261,-1.4884,-1.426,-1.3709,-1.3696,-1.3486,0.0,0.0,-1.3395,-1.3969,-1.5763,-1.6882,-1.8019,-1.938,-1.9155,-1.9075,-1.9474,-1.7865,-1.7635,-1.9379,-1.8267,-1.8456,-2.0386,-1.9379,-1.9354,-2.0576,-2.0605,-2.0605,-2.0605,-2.0605,-2.0605,-2.0605,-2.0605,-2.0605,-2.0605,-2.0605,-2.0605,-2.0605,-2.0605,-2.0723,-2.0869,-2.0869,-2.1143,-2.1592,-2.2021,-2.2314,-2.2578,-1.5784,-1.5784,-1.5784,-1.5784,-1.5784,-1.5784,-1.5784,-1.5784,-1.5784,-1.5784,-1.5784,-1.5784,-1.5784,-1.5784,-1.5784,-1.5784,-1.5784,-1.5784,-1.5784,-1.5784,-1.5784,-1.5784,-1.5784,-1.5784,-1.5784,-1.5784,-1.5691,-1.5398,-1.5149,-1.481,-1.4466,-1.4222,-1.4242,-1.4522,-1.4522,-1.4689,-1.5008,-1.5008,-1.4796,-1.4522,-1.4522,-1.4349,-1.4088,-1.4088,-1.4088,-1.4088,-1.4088,-1.4088,-1.4088,-1.4088,-1.4088,-1.4088,-1.4088,-1.4088,-1.4102,-1.4168,-1.4235,-1.4262,-1.4122,-1.4088,-1.4088,-1.4088,-1.4135,-1.4493,-1.571,-1.5512,-1.5633,-1.7355,-1.6487,-1.5512,-1.584,-1.5187,-1.4645,-1.4795,0.0,0.0,0.0,-1.4914,-1.5475,-1.7952,-1.8276,-1.9142,-2.1379,-2.0814,-2.0162,-1.9845,-1.8904,-1.8651,-1.9275,-1.8868,-1.9343,-2.1004,-2.0329,-2.0179,-2.0605,-2.0713,-2.0713,-2.0605,-2.0713,-2.0703,-2.0605,-2.0605,-2.0605,-2.0605,-2.0605,-2.0605,-2.0605,-2.0605,-2.0605,-2.0605,-2.0605,-2.084,-2.1249,-2.1728,-2.2148,-2.2578,-1.5784,-1.5784,-1.5784,-1.5784,-1.5784,-1.5784,-1.5784,-1.5784,-1.5784,-1.5784,-1.5784,-1.5784,-1.5784,-1.5784,-1.5784,-1.5784,-1.5784,-1.5784,-1.5784,-1.5784,-1.5784,-1.5784,-1.5784,-1.5784,-1.5784,-1.5784,-1.5691,-1.5398,-1.5149,-1.481,-1.4466,-1.4222,-1.4242,-1.4522,-1.4522,-1.4689,-1.5008,-1.5008,-1.4796,-1.4522,-1.4522,-1.4349,-1.4088,-1.4088,-1.4088,-1.4088,-1.4088,-1.4088,-1.4088,-1.4088,-1.4088,-1.4088,-1.4088,-1.4088,-1.4142,-1.4409,-1.4683,-1.4827,-1.4235,-1.4088,-1.4088,-1.4088,-1.4289,-1.4854,-1.6366,-1.6854,-1.7393,-1.8712,-1.8502,-1.8002,-1.7669,-1.6644,-1.5921,-1.6035,0.0,0.0,-1.4935,-1.5275,-1.5914,-1.6827,-1.8157,-1.9467,-2.067,-2.1722,-2.211,-2.1734,-2.1613,-2.1603,-2.1656,-2.1204,-2.0876,-2.0664,-2.0936,-2.0936,-2.0605,-2.0977,-2.0977,-2.0605,-2.0986,-2.0967,-2.0605,-2.0605,-2.0605,-2.0605,-2.0605,-2.0605,-2.0605,-2.0605,-2.0605,-2.0605,-2.0605,-2.084,-2.1249,-2.1728,-2.2148,-2.2578,-1.5784,-1.5784,-1.5784,-1.5784,-1.5784,-1.5784,-1.5784,-1.5784,-1.5784,-1.5784,-1.5784,-1.5784,-1.5784,-1.5784,-1.5784,-1.5784,-1.5784,-1.5784,-1.5784,-1.5784,-1.5784,-1.5784,-1.5784,-1.5784,-1.5784,-1.5784,-1.5724,-1.5665,-1.5378,-1.5084,-1.479,-1.4496,-1.4416,-1.4529,-1.471,-1.4957,-1.5244,-1.5424,-1.5331,-1.5044,-1.487,-1.4616,-1.4335,-1.4155,-1.4088,-1.4088,-1.4088,-1.4088,-1.4088,-1.4088,-1.4088,-1.4122,-1.4302,-1.4355,-1.4416,-1.471,-1.4921,-1.4961,-1.4733,-1.4673,-1.4673,-1.4673,-1.4716,-1.5127,-1.6389,-1.6362,-1.6536,-1.8189,-1.8073,-1.7754,-1.8112,-1.8216,-1.8324,-1.864,0.0,-1.7622,-1.7989,-1.6941,-1.6603,-1.7897,-1.8134,-1.8982,-2.089,-2.1261,-2.1636,-2.2243,-2.2031,-2.1885,-2.1885,-2.1434,-2.1112,-2.0986,-2.0879,-2.0732,-2.0605,-2.0732,-2.0732,-2.0605,-2.0732,-2.0879,-2.0977,-2.0977,-2.0977,-2.0996,-2.1269,-2.1114,-2.0625,-2.0869,-2.0977,-2.0977,-2.0977,-2.1406,-2.2051,-2.2217,-2.2539,-2.2877,-1.5784,-1.5784,-1.5784,-1.5784,-1.5784,-1.5784,-1.5784,-1.5784,-1.5784,-1.5784,-1.5784,-1.5784,-1.5784,-1.5784,-1.5784,-1.5784,-1.5784,-1.5784,-1.5784,-1.5784,-1.5784,-1.5784,-1.5784,-1.5784,-1.5784,-1.5784,-1.5784,-1.5784,-1.5538,-1.5297,-1.5142,-1.4796,-1.471,-1.4803,-1.4917,-1.5169,-1.5411,-1.5611,-1.5471,-1.511,-1.5048,-1.473,-1.4362,-1.4162,-1.4088,-1.4088,-1.4088,-1.4088,-1.4088,-1.4088,-1.4148,-1.4255,-1.4456,-1.4649,-1.4816,-1.4975,-1.5142,-1.5217,-1.5169,-1.5209,-1.519,-1.5055,-1.5075,-1.5406,-1.6521,-1.6431,-1.6603,-1.8282,-1.8152,-1.7842,-1.8125,-1.8452,-1.8786,-1.9153,-1.8566,-1.8287,-1.8955,-1.7611,-1.7041,-1.8322,-1.7995,-1.8642,-2.1069,-2.1049,-2.1394,-2.2619,-2.2441,-2.2217,-2.209,-2.1797,-2.1473,-2.12,-2.0937,-2.0781,-2.0781,-2.0908,-2.0879,-2.0605,-2.1026,-2.1191,-2.12,-2.1337,-2.1405,-2.1455,-2.1758,-2.1465,-2.081,-2.126,-2.1317,-2.121,-2.1346,-2.1885,-2.251,-2.251,-2.274,-2.3091,-1.5784,-1.5784,-1.5784,-1.5784,-1.5784,-1.5784,-1.5784,-1.5784,-1.5784,-1.5784,-1.5784,-1.5784,-1.5784,-1.5784,-1.5784,-1.5784,-1.5784,-1.5784,-1.5784,-1.5784,-1.5784,-1.5784,-1.5784,-1.5784,-1.5784,-1.5784,-1.5784,-1.5784,-1.5538,-1.5398,-1.5391,-1.5149,-1.5117,-1.5384,-1.5142,-1.5169,-1.5398,-1.5398,-1.5064,-1.4556,-1.485,-1.466,-1.4095,-1.4088,-1.4088,-1.4095,-1.4088,-1.4088,-1.4088,-1.4095,-1.4282,-1.4522,-1.4522,-1.493,-1.5344,-1.5102,-1.5378,-1.5718,-1.5478,-1.5611,-1.5691,-1.5162,-1.519,-1.5706,-1.6942,-1.7437,-1.8002,-1.9222,-1.9171,-1.8636,-1.7856,-1.7093,-1.6699,-1.6981,-1.681,-1.6714,-1.6988,-1.7033,-1.7204,-1.7647,-1.7684,-1.868,-2.1069,-2.1293,-2.18,-2.3003,-2.3091,-2.2916,-2.2539,-2.251,-2.2077,-2.1229,-2.12,-2.12,-2.12,-2.167,-2.1445,-2.0635,-2.1885,-2.2019,-2.122,-2.1689,-2.1894,-2.1894,-2.1894,-2.165,-2.1239,-2.1709,-2.1641,-2.1249,-2.1719,-2.2148,-2.2519,-2.2519,-2.2783,-2.3091,-1.5872,-1.5784,-1.5784,-1.5784,-1.5784,-1.5784,-1.5784,-1.5784,-1.5784,-1.5784,-1.5784,-1.5784,-1.5784,-1.5784,-1.5784,-1.5784,-1.5784,-1.5784,-1.5784,-1.5784,-1.5784,-1.5784,-1.5784,-1.5784,-1.5784,-1.5784,-1.5784,-1.5784,-1.5745,-1.5591,-1.5391,-1.5304,-1.5204,-1.5142,-1.5217,-1.5317,-1.5411,-1.5611,-1.5598,-1.5385,-1.5311,-1.5164,-1.4963,-1.4549,-1.4522,-1.472,-1.4462,-1.4389,-1.4422,-1.4629,-1.4623,-1.4546,-1.5003,-1.5391,-1.5678,-1.5591,-1.5691,-1.5764,-1.5678,-1.5718,-1.5738,-1.5611,-1.5631,-1.5785,-1.6147,-1.6317,-1.648,-1.6842,-1.7509,-1.798,-1.7762,-1.8194,-1.8659,-1.8718,-1.8699,-1.8667,-1.8726,-1.8734,-1.8827,-1.894,-1.8956,-1.9579,-2.1159,-2.1293,-2.18,-2.3003,-2.3091,-2.3042,-2.2916,-2.2676,-2.2393,-2.2139,-2.1846,-2.1689,-2.1689,-2.1514,-2.1455,-2.1535,-2.1885,-2.209,-2.2139,-2.2266,-2.2324,-2.2344,-2.2637,-2.2353,-2.1728,-2.2148,-2.2246,-2.2148,-2.2275,-2.2578,-2.2906,-2.2906,-2.2984,-2.3091,-1.6213,-1.6079,-1.6005,-1.6005,-1.5905,-1.5784,-1.5784,-1.5784,-1.5784,-1.5784,-1.5784,-1.5784,-1.5784,-1.5784,-1.5784,-1.5784,-1.5784,-1.5784,-1.5784,-1.5784,-1.5784,-1.5784,-1.5784,-1.5784,-1.5784,-1.5784,-1.5784,-1.5784,-1.5784,-1.5738,-1.5565,-1.5565,-1.5478,-1.5311,-1.5364,-1.5398,-1.5404,-1.5585,-1.5591,-1.5484,-1.5424,-1.5331,-1.5184,-1.483,-1.481,-1.4988,-1.4763,-1.4696,-1.4723,-1.4948,-1.4923,-1.495,-1.5418,-1.5691,-1.5784,-1.5784,-1.5784,-1.5784,-1.5784,-1.5784,-1.5784,-1.5784,-1.5784,-1.5784,-1.5784,-1.5784,-1.5784,-1.5784,-1.6433,-1.6943,-1.6943,-1.7529,-1.8211,-1.8726,-1.8772,-1.8948,-1.9443,-1.9497,-1.9497,-1.9497,-1.9497,-1.9988,-2.1159,-2.1293,-2.18,-2.3003,-2.3091,-2.3091,-2.3091,-2.2857,-2.2643,-2.2519,-2.2266,-2.2139,-2.2139,-2.1875,-2.1787,-2.1894,-2.2217,-2.2432,-2.2519,-2.2643,-2.2721,-2.273,-2.2984,-2.2711,-2.2168,-2.2588,-2.2656,-2.2529,-2.2695,-2.2877,-2.3091,-2.3091,-2.3091,-2.3091,-1.6707,-1.6473,-1.6321,-1.6321,-1.6025,-1.5791,-1.5818,-1.5824,-1.5831,-1.5858,-1.5838,-1.5824,-1.5824,-1.5798,-1.5784,-1.5784,-1.5784,-1.5784,-1.5784,-1.5784,-1.5784,-1.5784,-1.5784,-1.5784,-1.5784,-1.5784,-1.5784,-1.5784,-1.5784,-1.5784,-1.5784,-1.5784,-1.5784,-1.5771,-1.5551,-1.5438,-1.5438,-1.5438,-1.5284,-1.5109,-1.5331,-1.5277,-1.5082,-1.5055,-1.5062,-1.5082,-1.5055,-1.5048,-1.5048,-1.5048,-1.5197,-1.5484,-1.5698,-1.5784,-1.5784,-1.5784,-1.5784,-1.5784,-1.5784,-1.5784,-1.5784,-1.5784,-1.5784,-1.5784,-1.5784,-1.5784,-1.5784,-1.5784,-1.5784,-1.5784,-1.5784,-1.5784,-1.6197,-1.7505,-1.7777,-1.828,-1.9488,-1.9761,-1.9815,-1.9815,-1.9815,-2.026,-2.1337,-2.148,-2.1943,-2.3003,-2.3091,-2.3091,-2.3091,-2.3091,-2.2916,-2.2578,-2.2568,-2.2568,-2.2568,-2.2568,-2.2373,-2.2012,-2.273,-2.2896,-2.2578,-2.2916,-2.3091,-2.3091,-2.3091,-2.2877,-2.2598,-2.2935,-2.2867,-2.2607,-2.2945,-2.3091,-2.3091,-2.3091,-2.3091,-2.3091,-1.6747,-1.6473,-1.6321,-1.6321,-1.6025,-1.5905,-1.6139,-1.6179,-1.6259,-1.6486,-1.6319,-1.6179,-1.6179,-1.5972,-1.5784,-1.5784,-1.5784,-1.5784,-1.5784,-1.5784,-1.5784,-1.5784,-1.5784,-1.5784,-1.5784,-1.5784,-1.5784,-1.5784,-1.5784,-1.5784,-1.5784,-1.5784,-1.5784,-1.5778,-1.5718,-1.5684,-1.5684,-1.5684,-1.5698,-1.5645,-1.5712,-1.5698,-1.5618,-1.5391,-1.5444,-1.5611,-1.5384,-1.5304,-1.5304,-1.5304,-1.5491,-1.5698,-1.5764,-1.5784,-1.5784,-1.5784,-1.5784,-1.5784,-1.5784,-1.5784,-1.5784,-1.5784,-1.5784,-1.5784,-1.5784,-1.5784,-1.5784,-1.5784,-1.5784,-1.5784,-1.5784,-1.5784,-1.6197,-1.7505,-1.8503,-1.9534,-2.0755,-2.1712,-2.2315,-2.2315,-2.2315,-2.2413,-2.2677,-2.2721,-2.2818,-2.3091,-2.3091,-2.3091,-2.3091,-2.3091,-2.3052,-2.2964,-2.2955,-2.2955,-2.2955,-2.2955,-2.2916,-2.2828,-2.3013,-2.3052,-2.2964,-2.3052,-2.3091,-2.3091,-2.3091,-2.3042,-2.2964,-2.3052,-2.3042,-2.2974,-2.3062,-2.3091,-2.3091,-2.3091,-2.3091,-2.3091,-1.7154,-1.6894,-1.6737,-1.6737,-1.6446,-1.6299,-1.6453,-1.648,-1.6533,-1.6687,-1.6453,-1.6321,-1.6321,-1.6005,-1.5784,-1.5784,-1.5784,-1.5784,-1.5784,-1.5784,-1.5784,-1.5784,-1.5784,-1.5784,-1.5784,-1.5784,-1.5784,-1.5784,-1.5784,-1.5784,-1.5784,-1.5784,-1.5784,-1.5784,-1.5784,-1.5784,-1.5784,-1.5784,-1.5784,-1.5784,-1.5784,-1.5784,-1.5764,-1.5658,-1.5698,-1.5758,-1.5658,-1.5605,-1.5605,-1.5605,-1.5705,-1.5784,-1.5784,-1.5784,-1.5784,-1.5784,-1.5784,-1.5784,-1.5784,-1.5784,-1.5784,-1.5784,-1.5784,-1.5784,-1.5784,-1.5784,-1.5872,-1.6012,-1.6039,-1.6086,-1.6219,-1.6246,-1.6767,-1.8488,-1.9289,-2.0283,-2.1926,-2.2677,-2.3091,-2.3091,-2.3091,-2.3091,-2.3091,-2.3091,-2.3091,-2.3091,-2.3091,-2.3091,-2.3091,-2.3091,-2.3091,-2.3091,-2.3091,-2.3091,-2.3091,-2.3091,-2.3091,-2.3091,-2.3091,-2.3091,-2.3091,-2.3091,-2.3091,-2.3091,-2.3091,-2.3091,-2.3091,-2.3091,-2.3091,-2.3091,-2.3091,-2.3091,-2.3091,-2.3091,-2.3091,-2.3091,-1.7582,-1.74,-1.7199,-1.7199,-1.6901,-1.6727,-1.6774,-1.678,-1.68,-1.6847,-1.66,-1.6455,-1.6353,-1.6039,-1.5784,-1.5784,-1.5784,-1.5784,-1.5784,-1.5784,-1.5784,-1.5784,-1.5784,-1.5784,-1.5784,-1.5784,-1.5784,-1.5784,-1.5784,-1.5784,-1.5784,-1.5784,-1.5784,-1.5784,-1.5784,-1.5784,-1.5784,-1.5784,-1.592,-1.6103,-1.6103,-1.6244,-1.6426,-1.6197,-1.6244,-1.6379,-1.5967,-1.5784,-1.5784,-1.5784,-1.5784,-1.5784,-1.5784,-1.5784,-1.5784,-1.5784,-1.5784,-1.5784,-1.5784,-1.5784,-1.5784,-1.5784,-1.5818,-1.5892,-1.5791,-1.5784,-1.5912,-1.6213,-1.6321,-1.6359,-1.6653,-1.69,-1.7682,-1.97,-2.021,-2.1049,-2.3034,-2.3315,-2.3286,-2.3218,-2.314,-2.3091,-2.3091,-2.3091,-2.3091,-2.3091,-2.3091,-2.3091,-2.3091,-2.3091,-2.3091,-2.3091,-2.3091,-2.3091,-2.3091,-2.3091,-2.3091,-2.3091,-2.3091,-2.3091,-2.3091,-2.3091,-2.3091,-2.3091,-2.3091,-2.3091,-2.3091,-2.3091,-2.3091,-2.3091,-2.3091,-2.3091,-2.3091,-2.3091,-2.3091,-2.3091,-1.7582,-1.74,-1.7199,-1.7199,-1.6901,-1.6794,-1.7099,-1.7139,-1.7233,-1.7428,-1.7259,-1.6985,-1.6673,-1.6159,-1.5784,-1.5784,-1.5784,-1.5784,-1.5784,-1.5784,-1.5784,-1.5784,-1.5784,-1.5784,-1.5784,-1.5784,-1.5784,-1.5784,-1.5784,-1.5784,-1.5784,-1.5784,-1.5784,-1.5784,-1.5784,-1.5784,-1.5784,-1.5784,-1.6433,-1.7458,-1.7458,-1.8095,-1.8902,-1.7816,-1.8087,-1.8718,-1.6567,-1.5784,-1.5784,-1.5784,-1.5784,-1.5784,-1.5784,-1.5784,-1.5784,-1.5784,-1.5784,-1.5784,-1.5784,-1.5784,-1.5784,-1.5784,-1.6019,-1.6146,-1.5885,-1.5784,-1.5912,-1.6213,-1.6321,-1.6359,-1.6653,-1.7626,-1.8871,-2.0263,-2.1458,-2.2692,-2.4065,-2.4238,-2.4111,-2.375,-2.3369,-2.3091,-2.3091,-2.3091,-2.3091,-2.3091,-2.3091,-2.3091,-2.3091,-2.3091,-2.3091,-2.3091,-2.3091,-2.3091,-2.3091,-2.3091,-2.3091,-2.3091,-2.3091,-2.3091,-2.3091,-2.3091,-2.3091,-2.3091,-2.3091,-2.3091,-2.3091,-2.3091,-2.3091,-2.3091,-2.3091,-2.3091,-2.3091,-2.3091,-2.3091,-2.3091,-1.7582,-1.7475,-1.744,-1.744,-1.7281,-1.7241,-1.7427,-1.744,-1.7494,-1.7562,-1.738,-1.7146,-1.7018,-1.6426,-1.6079,-1.6079,-1.5925,-1.5784,-1.5784,-1.5784,-1.5784,-1.5784,-1.5784,-1.5784,-1.5784,-1.5784,-1.5784,-1.5784,-1.5784,-1.5784,-1.5784,-1.5784,-1.5784,-1.5784,-1.5784,-1.5784,-1.5784,-1.5784,-1.6103,-1.6622,-1.6622,-1.7404,-1.8457,-1.7917,-1.8048,-1.8272,-1.6426,-1.6251,-1.6763,-1.6062,-1.5784,-1.5784,-1.5784,-1.6292,-1.6709,-1.6015,-1.6292,-1.6716,-1.5967,-1.5952,-1.6079,-1.6079,-1.6299,-1.648,-1.6346,-1.6319,-1.6353,-1.6486,-1.6513,-1.6653,-1.7114,-1.8295,-1.9579,-2.0655,-2.1943,-2.3191,-2.4258,-2.4414,-2.4346,-2.416,-2.376,-2.3496,-2.3496,-2.3237,-2.3091,-2.3091,-2.3091,-2.3091,-2.3091,-2.3091,-2.3091,-2.3091,-2.3091,-2.3091,-2.3091,-2.3091,-2.3091,-2.3091,-2.3091,-2.3091,-2.3091,-2.3091,-2.3091,-2.3091,-2.3091,-2.3091,-2.3091,-2.3091,-2.3091,-2.3091,-2.3091,-2.3091,-2.3091,-2.3091,-2.3091,-2.3091]},{"header":{"parameterUnit":"m.s-1","parameterCategory":1,"la1":30.6,"la2":28.766,"lo1":-90.7593,"lo2":-88.6598,"dy":0.0162,"dx":0.0183,"nx":116,"ny":114,"refTime":"2024-03-02T18:00:00:Z","depth":0,"parameterNumber":3,"parameterNumberName":"V-component_of_WINDS"},"data":[0.0,0.0,0.0,0.0,0.0,0.0,0.0,0.0,0.0,0.0,0.0,0.0,0.0,0.0,0.0,0.0,0.0,0.0,0.0,0.0,0.0,0.0,0.0,0.0,0.0,0.0,0.0,0.0,0.0,0.0,0.0,0.0,0.0,0.0,0.0,0.0,0.0,0.0,0.0,0.0,0.0,0.0,0.0,0.0,0.0,0.0,0.0,0.0,0.0,0.0,0.0,0.0,0.0,0.0,0.0,0.0,0.0,0.0,0.0,0.0,0.0,0.0,0.0,0.0,0.0,0.0,0.0,0.0,0.0,0.0,0.0,0.0,0.0,0.0,0.0,0.0,0.0,0.0,0.0,0.0,0.0,0.0,0.0,0.0,0.0,0.0,0.0,0.0,0.0,0.0,0.0,0.0,0.0,0.0,0.0,0.0,0.0,0.0,0.0,0.0,0.0,0.0,0.0,0.0,0.0,0.0,0.0,0.0,0.0,0.0,0.0,0.0,0.0,0.0,0.0,0.0,0.0,0.0,0.0,0.0,0.0,0.0,0.0,0.0,0.0,0.0,0.0,0.0,0.0,0.0,0.0,0.0,0.0,0.0,0.0,0.0,0.0,0.0,0.0,0.0,0.0,0.0,0.0,0.0,0.0,0.0,0.0,0.0,0.0,0.0,0.0,0.0,0.0,0.0,0.0,0.0,0.0,0.0,0.0,0.0,0.0,0.0,0.0,0.0,0.0,0.0,0.0,0.0,0.0,0.0,0.0,0.0,0.0,0.0,0.0,0.0,0.0,0.0,0.0,0.0,0.0,0.0,0.0,0.0,0.0,0.0,0.0,0.0,0.0,0.0,0.0,0.0,0.0,0.0,0.0,0.0,0.0,0.0,0.0,0.0,0.0,0.0,0.0,0.0,0.0,0.0,0.0,0.0,0.0,0.0,0.0,0.0,0.0,0.0,0.0,0.0,0.0,0.0,0.0,0.0,0.0,0.0,0.0,0.0,0.0,0.0,0.0,0.0,0.0,0.0,0.0,0.0,0.0,0.0,0.0,0.0,0.0,0.0,0.0,0.0,0.0,0.0,0.0,0.0,0.0,0.0,0.0,0.0,0.0,0.0,0.0,0.0,0.0,0.0,0.0,0.0,0.0,0.0,0.0,0.0,0.0,0.0,0.0,0.0,0.0,0.0,0.0,0.0,0.0,0.0,0.0,0.0,0.0,0.0,0.0,0.0,0.0,0.0,0.0,0.0,0.0,0.0,0.0,0.0,0.0,0.0,0.0,0.0,0.0,0.0,0.0,0.0,0.0,0.0,0.0,0.0,0.0,0.0,0.0,0.0,0.0,0.0,0.0,0.0,0.0,0.0,0.0,0.0,0.0,0.0,0.0,0.0,0.0,0.0,0.0,0.0,0.0,0.0,0.0,0.0,0.0,0.0,0.0,0.0,0.0,0.0,0.0,0.0,0.0,0.0,0.0,0.0,0.0,0.0,0.0,0.0,0.0,0.0,0.0,0.0,0.0,0.0,0.0,0.0,0.0,0.0,0.0,0.0,0.0,0.0,0.0,0.0,0.0,0.0,0.0,0.0,0.0,0.0,0.0,0.0,0.0,0.0,0.0,0.0,0.0,0.0,0.0,0.0,0.0,0.0,0.0,0.0,0.0,0.0,0.0,0.0,0.0,0.0,0.0,0.0,0.0,0.0,0.0,0.0,0.0,0.0,0.0,0.0,0.0,0.0,0.0,0.0,0.0,0.0,0.0,0.0,0.0,0.0,0.0,0.0,0.0,0.0,0.0,0.0,0.0,0.0,0.0,0.0,0.0,0.0,0.0,0.0,0.0,0.0,0.0,0.0,0.0,0.0,0.0,0.0,0.0,0.0,0.0,0.0,0.0,0.0,0.0,0.0,0.0,0.0,0.0,0.0,0.0,0.0,0.0,0.0,0.0,0.0,0.0,0.0,0.0,0.0,0.0,0.0,0.0,0.0,0.0,0.0,0.0,0.0,0.0,0.0,0.0,0.0,0.0,0.0,0.0,0.0,0.0,0.0,0.0,0.0,0.0,0.0,0.0,0.0,0.0,0.0,0.0,0.0,0.0,0.0,0.0,0.0,0.0,0.0,0.0,0.0,0.0,0.0,0.0,0.0,0.0,0.0,0.0,0.0,0.0,0.0,0.0,0.0,0.0,0.0,0.0,0.0,0.0,0.0,0.0,0.0,0.0,0.0,0.0,0.0,0.0,0.0,0.0,0.0,0.0,0.0,0.0,0.0,0.0,0.0,0.0,0.0,0.0,0.0,0.0,0.0,0.0,0.0,0.0,0.0,0.0,0.0,0.0,0.0,0.0,0.0,0.0,0.0,0.0,0.0,0.0,0.0,0.0,0.0,0.0,0.0,0.0,0.0,0.0,0.0,0.0,0.0,0.0,0.0,0.0,0.0,0.0,0.0,0.0,0.0,0.0,0.0,0.0,0.0,0.0,0.0,0.0,0.0,0.0,0.0,0.0,0.0,0.0,0.0,0.0,0.0,0.0,0.0,0.0,0.0,0.0,0.0,0.0,0.0,0.0,0.0,0.0,0.0,0.0,0.0,0.0,0.0,0.0,0.0,0.0,0.0,0.0,0.0,0.0,0.0,0.0,0.0,0.0,0.0,0.0,0.0,0.0,0.0,0.0,0.0,0.0,0.0,0.0,0.0,0.0,0.0,0.0,0.0,0.0,0.0,0.0,0.0,0.0,0.0,0.0,0.0,0.0,0.0,0.0,0.0,0.0,0.0,0.0,0.0,0.0,0.0,0.0,0.0,0.0,0.0,0.0,0.0,0.0,0.0,0.0,0.0,0.0,0.0,0.0,0.0,0.0,0.0,0.0,0.0,0.0,0.0,0.0,0.0,0.0,0.0,0.0,0.0,0.0,0.0,0.0,0.0,0.0,0.0,0.0,0.0,0.0,0.0,0.0,0.0,0.0,0.0,0.0,0.0,0.0,0.0,0.0,0.0,0.0,0.0,0.0,0.0,0.0,0.0,0.0,0.0,0.0,0.0,0.0,0.0,0.0,0.0,0.0,0.0,0.0,0.0,0.0,0.0,0.0,0.0,0.0,0.0,0.0,0.0,0.0,0.0,0.0,0.0,0.0,0.0,0.0,0.0,0.0,0.0,0.0,0.0,0.0,0.0,0.0,0.0,0.0,0.0,0.0,0.0,0.0,0.0,0.0,0.0,0.0,0.0,0.0,0.0,0.0,0.0,0.0,0.0,0.0,0.0,0.0,0.0,0.0,0.0,0.0,0.0,0.0,0.0,0.0,0.0,0.0,0.0,0.0,0.0,0.0,0.0,0.0,0.0,0.0,0.0,0.0,0.0,0.0,0.0,0.0,0.0,0.0,0.0,0.0,0.0,0.0,0.0,0.0,0.0,0.0,0.0,0.0,0.0,0.0,0.0,0.0,0.0,0.0,0.0,0.0,0.0,0.0,0.0,0.0,0.0,0.0,0.0,0.0,0.0,0.0,0.0,0.0,0.0,0.0,0.0,0.0,0.0,0.0,0.0,0.0,0.0,0.0,0.0,0.0,0.0,0.0,0.0,0.0,0.0,0.0,0.0,0.0,0.0,0.0,0.0,0.0,0.0,0.0,0.0,0.0,0.0,0.0,0.0,0.0,0.0,0.0,0.0,0.0,0.0,0.0,0.0,0.0,0.0,0.0,0.0,0.0,0.0,0.0,0.0,0.0,0.0,0.0,0.0,0.0,0.0,0.0,0.0,0.0,0.0,0.0,0.0,0.0,0.0,0.0,0.0,0.0,0.0,0.0,0.0,0.0,0.0,0.0,0.0,0.0,0.0,0.0,0.0,0.0,0.0,0.0,0.0,0.0,0.0,0.0,0.0,0.0,0.0,0.0,0.0,0.0,0.0,0.0,0.0,0.0,0.0,0.0,0.0,0.0,0.0,0.0,0.0,0.0,0.0,0.0,0.0,0.0,0.0,0.0,0.0,0.0,0.0,0.0,0.0,0.0,0.0,0.0,0.0,0.0,0.0,0.0,0.0,0.0,0.0,0.0,0.0,0.0,0.0,0.0,0.0,0.0,0.0,0.0,0.0,0.0,0.0,0.0,0.0,0.0,0.0,0.0,0.0,0.0,0.0,0.0,0.0,0.0,0.0,0.0,0.0,0.0,0.0,0.0,0.0,0.0,0.0,0.0,0.0,0.0,0.0,0.0,0.0,0.0,0.0,0.0,0.0,0.0,0.0,0.0,0.0,0.0,0.0,0.0,0.0,0.0,0.0,0.0,0.0,0.0,0.0,0.0,0.0,0.0,0.0,0.0,0.0,0.0,0.0,0.0,0.0,0.0,0.0,0.0,0.0,0.0,0.0,0.0,0.0,0.0,0.0,0.0,0.0,0.0,0.0,0.0,0.0,0.0,0.0,0.0,0.0,0.0,0.0,0.0,0.0,0.0,0.0,0.0,0.0,0.0,0.0,0.0,0.0,0.0,0.0,0.0,0.0,0.0,0.0,0.0,0.0,0.0,0.0,0.0,0.0,0.0,0.0,0.0,0.0,0.0,0.0,0.0,0.0,0.0,0.0,0.0,0.0,0.0,0.0,0.0,0.0,0.0,0.0,0.0,0.0,0.0,0.0,0.0,0.0,0.0,0.0,0.0,0.0,0.0,0.0,0.0,0.0,0.0,0.0,0.0,0.0,0.0,0.0,0.0,0.0,0.0,0.0,0.0,0.0,0.0,0.0,0.0,0.0,0.0,0.0,0.0,0.0,0.0,0.0,0.0,0.0,0.0,0.0,0.0,0.0,0.0,0.0,0.0,0.0,0.0,0.0,0.0,0.0,0.0,0.0,0.0,0.0,0.0,0.0,0.0,0.0,0.0,0.0,0.0,0.0,0.0,0.0,0.0,0.0,0.0,0.0,0.0,0.0,0.0,0.0,0.0,0.0,0.0,0.0,0.0,0.0,0.0,0.0,0.0,0.0,0.0,0.0,0.0,0.0,0.0,0.0,0.0,0.0,0.0,0.0,0.0,0.0,0.0,0.0,0.0,0.0,0.0,0.0,0.0,0.0,0.0,0.0,0.0,0.0,0.0,0.0,0.0,0.0,0.0,0.0,0.0,0.0,0.0,0.0,0.0,0.0,0.0,0.0,0.0,0.0,0.0,0.0,0.0,0.0,0.0,0.0,0.0,0.0,0.0,0.0,0.0,0.0,0.0,0.0,0.0,0.0,0.0,0.0,0.0,0.0,0.0,0.0,0.0,0.0,0.0,0.0,0.0,0.0,0.0,0.0,0.0,0.0,0.0,0.0,0.0,0.0,0.0,0.0,0.0,0.0,0.0,0.0,0.0,0.0,0.0,0.0,0.0,0.0,0.0,0.0,0.0,0.0,0.0,0.0,0.0,0.0,0.0,0.0,0.0,0.0,0.0,0.0,0.0,0.0,0.0,0.0,0.0,0.0,0.0,0.0,0.0,0.0,0.0,0.0,0.0,0.0,0.0,0.0,0.0,0.0,0.0,0.0,0.0,0.0,0.0,0.0,0.0,0.0,0.0,0.0,0.0,0.0,0.0,0.0,0.0,0.0,0.0,0.0,0.0,0.0,0.0,0.0,0.0,0.0,0.0,0.0,0.0,0.0,0.0,0.0,0.0,0.0,0.0,0.0,0.0,0.0,0.0,0.0,0.0,0.0,0.0,0.0,0.0,0.0,0.0,0.0,0.0,0.0,0.0,0.0,0.0,0.0,0.0,0.0,0.0,0.0,0.0,0.0,0.0,0.0,0.0,0.0,0.0,0.0,0.0,0.0,0.0,0.0,0.0,0.0,0.0,0.0,0.0,0.0,0.0,0.0,0.0,0.0,0.0,0.0,0.0,0.0,0.0,0.0,0.0,0.0,0.0,0.0,0.0,0.0,0.0,0.0,0.0,0.0,0.0,0.0,0.0,0.0,0.0,0.0,0.0,0.0,0.0,0.0,0.0,0.0,0.0,0.0,0.0,0.0,0.0,0.0,0.0,0.0,0.0,0.0,0.0,0.0,0.0,0.0,0.0,0.0,0.0,0.0,0.0,0.0,0.0,0.0,0.0,0.0,0.0,0.0,0.0,0.0,0.0,0.0,0.0,0.0,1.8785,0.0,0.0,0.0,0.0,0.0,0.0,0.0,0.0,0.0,0.0,0.0,0.0,0.0,0.0,0.0,0.0,0.0,0.0,0.0,0.0,0.0,0.0,0.0,0.0,0.0,0.0,0.0,0.9427,0.9427,0.9427,0.9095,0.0,0.0,0.0,0.0,0.9083,0.9526,1.0182,1.1005,1.196,1.3443,1.5372,1.4264,1.333,1.2564,0.0,0.0,0.0,0.0,0.0,0.0,0.0,0.0,0.0,0.0,0.0,0.0,0.0,0.0,0.0,0.0,0.0,0.0,0.0,0.0,0.0,0.0,0.0,0.0,0.0,0.0,0.0,0.0,0.0,0.0,0.0,0.0,0.0,0.0,0.0,0.0,0.0,0.0,0.0,0.0,0.0,0.0,0.0,0.0,0.0,0.0,0.0,0.0,0.0,0.0,0.0,0.0,0.0,0.0,0.0,0.0,0.0,0.0,0.0,0.0,0.0,0.0,0.0,0.0,0.0,0.0,0.0,0.0,0.0,0.0,0.0,2.0202,0.0,0.0,0.0,0.0,0.0,0.0,0.0,0.0,0.0,0.0,0.0,0.0,0.0,0.0,0.0,0.0,0.0,0.0,0.0,0.0,0.0,0.0,0.0,0.9946,1.0524,1.0845,1.0597,1.0495,1.0657,0.9719,0.9134,0.9095,0.908,0.9194,0.9468,1.0517,1.1833,1.3446,1.5123,1.7268,1.9785,1.9785,1.9234,1.8133,1.6059,0.0,0.0,0.0,0.0,0.0,0.0,0.0,0.0,0.0,0.0,0.0,0.0,0.0,0.0,0.0,0.0,0.0,0.0,0.0,0.0,0.0,0.0,0.0,0.0,0.0,0.0,0.0,0.0,0.0,0.0,0.0,0.0,0.0,0.0,0.0,0.0,0.0,0.0,0.0,0.0,0.0,0.0,0.0,0.0,0.0,0.0,0.0,0.0,0.0,0.0,0.0,0.0,0.0,0.0,0.0,0.0,0.0,0.0,0.0,0.0,0.0,0.0,0.0,0.0,2.9587,3.0887,3.0887,3.1412,3.2048,2.6906,2.4724,2.4623,0.0,0.0,0.0,0.0,0.0,0.0,0.0,0.0,0.0,0.0,0.0,0.0,0.0,0.0,0.0,0.0,0.0,0.0,0.0,0.0,0.0,0.0,1.1519,1.2632,1.4203,1.3013,1.2495,1.3246,1.1296,1.0037,0.9861,0.9264,0.932,1.015,1.1652,1.2945,1.3994,1.9172,2.3361,2.6521,2.6521,2.7145,2.7989,2.0831,1.8346,1.9318,0.0,0.0,0.0,0.0,0.0,0.0,0.0,0.0,0.0,0.0,0.0,0.0,0.0,0.0,0.0,0.0,0.0,0.0,0.0,0.0,0.0,0.0,0.0,0.0,0.0,0.0,0.0,0.0,0.0,0.0,0.0,0.0,0.0,0.0,0.0,0.0,0.0,0.0,0.0,0.0,0.0,2.0891,2.1748,0.0,0.0,0.0,0.0,0.0,0.0,0.0,0.0,0.0,0.0,0.0,0.0,0.0,0.0,2.7708,3.0129,3.1531,3.1872,3.3602,3.4562,3.4767,3.4767,3.5215,3.5921,3.4415,0.0,2.8109,2.6376,0.0,0.0,0.0,0.0,0.0,0.0,0.0,0.0,0.0,0.0,0.0,0.0,0.0,0.0,0.0,0.0,0.0,0.0,0.0,0.0,0.0,1.4923,1.6843,1.7781,1.9683,1.9432,1.6205,1.582,1.4082,1.043,1.029,1.0587,1.1187,1.3213,1.6305,2.044,2.4815,2.8171,3.0503,3.0503,3.1109,3.2045,2.8044,2.4877,2.2409,1.973,0.0,0.0,0.0,0.0,0.0,0.0,0.0,0.0,0.0,0.0,0.0,0.0,0.0,0.0,0.0,0.0,0.0,0.0,0.0,0.0,0.0,0.0,0.0,0.0,0.0,0.0,0.0,0.0,0.0,0.0,0.0,0.0,0.0,0.0,0.0,0.0,0.0,0.0,0.0,2.1991,2.3859,2.3706,2.3569,2.2904,0.0,0.0,0.0,0.0,0.0,0.0,0.0,0.0,0.0,2.8712,3.0016,3.1302,3.2608,3.4642,3.5938,3.6526,3.8238,3.9288,3.9777,3.9777,3.9969,4.0258,3.9404,3.7651,3.5091,3.0924,2.8197,2.6512,0.0,0.0,0.0,0.0,0.0,2.3619,0.0,0.0,0.0,0.0,0.0,0.0,0.0,0.0,0.0,0.0,0.0,0.0,1.5445,1.894,2.159,2.2772,2.5496,2.5172,2.0499,1.9498,1.6974,1.2216,1.167,1.1902,1.2796,1.6244,2.1057,2.7247,2.9843,3.2063,3.3862,3.3642,3.41,3.5018,3.4009,3.098,2.6484,2.3832,2.0968,1.7957,0.0,0.0,0.0,0.0,0.0,0.0,0.0,0.0,0.0,0.0,0.0,0.0,0.0,0.0,0.0,0.0,0.0,0.0,0.0,0.0,0.0,0.0,0.0,0.0,0.0,0.0,0.0,0.0,0.0,0.0,0.0,0.0,0.0,0.0,0.0,0.0,0.0,2.443,2.6409,2.5157,2.6383,2.6218,0.0,0.0,0.0,0.0,0.0,0.0,2.9041,3.0685,3.233,3.3997,3.5196,3.6238,3.7096,3.8565,3.9719,4.0593,4.1835,4.2893,4.3739,4.3739,4.3739,4.3682,4.2816,4.2066,4.1046,3.541,3.2443,3.1322,2.9694,2.851,2.7869,2.9152,2.8929,2.8262,0.0,0.0,0.0,0.0,0.0,0.0,0.0,0.0,0.0,0.0,0.0,1.6483,2.0402,2.3287,2.6429,3.0124,2.8161,2.6816,2.6989,2.0644,1.6623,1.6133,1.3264,1.2825,1.5265,2.1614,2.731,3.2234,3.3164,3.4885,3.7235,3.6483,3.6945,3.8395,3.6817,3.5073,3.2963,2.7523,2.5099,2.442,1.8933,0.0,0.0,0.0,0.0,0.0,0.0,0.0,0.0,0.0,0.0,0.0,0.0,0.0,0.0,0.0,0.0,0.0,0.0,0.0,0.0,0.0,0.0,0.0,0.0,0.0,0.0,0.0,0.0,0.0,0.0,0.0,0.0,0.0,0.0,0.0,0.0,0.0,0.0,2.5315,2.8068,0.0,0.0,0.0,0.0,2.8758,3.0209,3.1889,3.3763,3.4724,3.5993,3.7673,3.9335,4.0604,4.1462,4.2393,4.3258,4.4047,4.4124,4.4624,4.5479,4.5479,4.5479,4.5441,4.4547,4.4143,4.3778,3.9442,3.6581,3.4859,3.3926,3.2964,3.2108,3.2321,3.2344,3.2335,0.0,0.0,0.0,0.0,0.0,0.0,0.0,0.0,1.1962,1.3154,1.6733,2.0435,2.3685,2.8585,3.2462,3.4537,3.6167,3.5274,3.1047,2.6786,2.329,2.0751,1.7429,1.7822,2.2529,2.6481,3.0356,3.4142,3.5514,3.689,3.8267,3.7973,3.8432,3.9441,3.8872,3.8267,3.7386,3.2228,2.8539,2.586,2.2272,1.9227,0.0,0.0,0.0,0.0,0.0,0.0,0.0,0.0,0.0,0.0,0.0,0.0,0.0,0.0,0.0,0.0,0.0,0.0,0.0,0.0,0.0,0.0,0.0,0.0,0.0,0.0,0.0,0.0,0.0,0.0,0.0,0.0,0.0,0.0,0.0,0.0,0.0,3.0196,3.3173,0.0,3.2096,3.3102,3.3941,3.3981,3.553,3.699,3.8188,3.9084,4.0315,4.2008,4.2624,4.3355,4.4239,4.4547,4.4863,4.5152,4.5152,4.5306,4.5594,4.5594,4.5594,4.5575,4.5267,4.5152,4.4979,4.2912,4.1022,3.9361,3.8497,3.7602,3.691,3.7483,3.6999,3.6173,0.0,0.0,0.0,0.0,0.0,0.0,0.0,0.0,1.3154,1.4965,1.9701,2.4181,2.7471,3.3144,3.7293,3.8706,4.0514,3.938,3.4201,3.0173,2.6622,2.3538,2.1451,2.2575,2.7317,3.0308,3.3133,3.583,3.7221,3.8322,3.9093,3.9093,3.9533,4.0304,4.0304,4.0304,4.0081,3.668,3.2834,2.8778,2.5869,2.3609,2.1557,0.0,0.0,0.0,0.0,0.0,0.0,0.0,0.0,0.0,0.0,0.0,0.0,0.0,0.0,0.0,0.0,0.0,0.0,0.0,0.0,0.0,0.0,0.0,0.0,0.0,0.0,0.0,0.0,0.0,0.0,0.0,0.0,0.0,0.0,0.0,3.441,3.3833,3.7046,3.8392,3.6115,3.7423,3.8288,3.8007,3.9604,4.0931,4.1747,4.2335,4.3297,4.4682,4.4739,4.5017,4.5594,4.5594,4.5594,4.5594,4.5594,4.5594,4.5594,4.5594,4.5594,4.5594,4.5594,4.5594,4.5556,4.4979,4.4085,4.297,4.1816,4.1054,4.0642,4.1189,4.0489,3.9315,0.0,0.0,0.0,0.0,0.0,0.0,0.0,1.2315,1.4304,1.6944,2.2398,2.7646,3.1853,3.6799,4.0639,4.265,4.0602,3.8404,3.646,3.0228,2.5915,2.4356,2.5137,2.6754,2.9242,3.3104,3.5932,3.7632,3.841,3.9166,3.9937,3.9937,4.0377,4.1132,4.1132,4.115,4.1146,4.0655,3.7974,3.3687,2.9874,2.8829,2.8942,0.0,0.0,0.0,0.0,0.0,0.0,0.0,0.0,0.0,0.0,0.0,0.0,0.0,0.0,0.0,0.0,0.0,0.0,0.0,0.0,0.0,0.0,0.0,0.0,0.0,0.0,0.0,0.0,0.0,0.0,0.0,0.0,0.0,2.9338,3.4372,3.7507,3.5923,3.9423,4.0654,3.7346,4.0038,4.1643,4.0766,4.2258,4.3547,4.4297,4.4335,4.472,4.5575,4.5594,4.5594,4.5594,4.5594,4.5594,4.5594,4.5594,4.5594,4.5594,4.5594,4.5594,4.5594,4.5594,4.5594,4.5594,4.5594,4.5594,4.5441,4.3816,4.3181,4.3181,4.3181,4.2624,4.1758,0.0,0.0,0.0,0.0,0.0,0.0,1.1654,1.3624,1.6004,1.8652,2.5059,3.0667,3.4018,3.9385,4.2853,4.3132,4.0972,3.8877,3.7279,3.054,2.6507,2.631,2.8742,3.192,3.5788,3.6684,3.8214,4.0476,4.0443,4.0545,4.0781,4.0781,4.1203,4.1974,4.1974,4.2286,4.2799,4.2087,4.0746,3.8775,3.5045,3.2593,3.08,0.0,0.0,0.0,0.0,0.0,0.0,0.0,0.0,0.0,0.0,0.0,0.0,0.0,0.0,0.0,0.0,0.0,0.0,0.0,0.0,0.0,0.0,0.0,0.0,0.0,0.0,0.0,0.0,0.0,0.0,0.0,0.0,3.5334,3.4699,3.7603,4.0104,4.0912,4.3682,4.5135,4.4192,4.547,4.6028,4.5201,4.5586,4.5682,4.5267,4.5248,4.5344,4.5594,4.5594,4.5594,4.5594,4.5594,4.5594,4.5594,4.5594,4.5594,4.5594,4.5594,4.5594,4.5594,4.5594,4.5594,4.5594,4.5594,4.5594,4.5556,4.5094,4.4921,4.4921,4.4921,4.4355,4.3393,0.0,0.0,0.0,0.0,0.0,0.0,1.243,1.4376,1.6676,1.9423,2.6272,3.1893,3.4503,3.949,4.2291,4.1357,3.9451,3.7186,3.46,3.0282,2.8199,2.9074,3.234,3.5641,3.8934,3.9431,4.0293,4.1586,4.1393,4.1417,4.159,4.159,4.2029,4.28,4.28,4.3057,4.3495,4.3339,4.2813,4.1914,3.972,3.7737,3.5773,3.2611,3.1701,3.1699,2.8855,2.8574,2.9068,2.591,0.0,0.0,0.0,0.0,0.0,0.0,0.0,0.0,0.0,0.0,0.0,0.0,0.0,0.0,0.0,0.0,0.0,0.0,0.0,0.0,0.0,0.0,0.0,0.0,3.6873,3.9931,4.0846,4.1623,4.2739,4.4489,4.6009,4.7019,4.7375,4.7836,4.7913,4.7451,4.7413,4.7028,4.6182,4.6144,4.597,4.5614,4.5594,4.5787,4.6144,4.5787,4.5787,4.6144,4.5768,4.5594,4.5594,4.5594,4.5594,0.0,4.5594,4.5594,4.5594,4.5594,4.5594,0.0,0.0,0.0,0.0,0.0,4.4509,4.3605,0.0,0.0,0.0,0.0,0.0,0.0,1.3078,1.4744,1.683,1.966,2.6358,3.1684,3.3794,3.7804,3.9808,3.8458,3.6801,3.4209,3.0448,2.9903,3.053,3.2366,3.5547,3.8175,4.0068,4.1508,4.2133,4.1865,4.1865,4.2053,4.2433,4.2433,4.2818,4.3515,4.3515,4.3515,4.3548,4.4213,4.4095,4.3491,4.3367,4.28,4.1612,3.783,3.7972,3.965,3.5616,3.3937,3.3219,3.0703,0.0,0.0,0.0,0.0,0.0,0.0,0.0,0.0,0.0,0.0,0.0,0.0,0.0,0.0,0.0,0.0,0.0,0.0,0.0,0.0,0.0,0.0,0.0,0.0,4.1143,4.3462,4.6596,4.5701,4.5297,4.6855,4.7115,4.7471,4.8182,4.8336,4.8355,4.8259,4.8163,4.7759,4.6942,0.0,0.0,0.0,0.0,4.6124,4.6885,4.6124,4.6124,4.6885,4.6009,4.5594,4.5594,4.5594,4.5594,4.5594,4.5594,4.5594,4.5594,4.5594,4.5594,4.5594,4.5594,4.5594,4.5518,4.472,4.3989,0.0,0.0,0.0,0.0,0.0,0.0,0.0,1.3243,1.5215,1.7636,2.0357,2.5479,2.9885,3.2615,3.5379,3.7122,3.7349,3.4547,3.2031,3.0307,3.0722,3.2452,3.5633,3.7057,3.9283,4.2542,4.2919,4.3227,4.3532,4.3532,4.3428,4.3276,4.3276,4.3349,4.3515,4.3515,4.3515,4.3515,4.3664,4.3631,4.3513,4.348,4.2721,4.1451,3.9996,3.9698,3.9833,3.828,3.9135,4.0611,3.7855,3.6748,3.6037,3.328,2.9577,0.0,0.0,0.0,0.0,0.0,0.0,0.0,0.0,0.0,0.0,0.0,0.0,0.0,0.0,0.0,0.0,0.0,0.0,0.0,4.0873,4.3904,4.6365,4.7682,4.7586,4.749,4.7836,4.849,4.8971,4.9125,4.9779,4.9913,4.9202,4.8509,4.7759,4.6942,4.622,0.0,4.5614,4.6278,4.674,4.6904,4.674,4.674,4.6885,0.0,0.0,4.5594,4.5594,4.5594,4.5594,4.5594,4.5594,4.5594,4.5594,4.5594,4.5594,4.5594,4.5594,4.5575,4.5421,4.5248,4.4998,0.0,0.0,0.0,0.0,0.0,0.0,1.3844,1.527,1.7254,1.9892,2.3873,2.7511,3.0285,3.1908,3.2609,3.2127,2.9604,2.8669,3.0111,3.1862,3.4377,3.7796,3.9651,4.1643,4.3888,4.3957,4.396,4.4001,4.4001,4.3909,4.3758,4.358,4.3597,4.3742,4.3563,4.3515,4.3496,4.3695,4.3646,4.3513,4.3677,4.3351,4.272,4.2525,4.2391,4.2231,4.1686,4.2335,4.313,4.105,4.0087,3.9355,3.7122,3.4074,3.0723,0.0,0.0,0.0,0.0,0.0,0.0,0.0,0.0,0.0,0.0,0.0,0.0,0.0,0.0,3.3083,3.5622,0.0,4.1527,4.447,4.6759,4.8432,4.9279,4.9394,4.924,4.8798,4.9125,4.9567,5.001,5.0442,5.0519,5.0067,4.9644,4.9048,4.8202,4.7317,4.6855,4.6855,4.6874,4.7298,4.8144,4.7317,4.7096,4.749,4.6201,4.5594,4.5594,4.5594,4.5594,4.5594,4.5594,4.5594,4.5594,4.5594,4.5594,4.5594,4.5594,4.5594,4.5594,4.5594,4.5325,4.4902,0.0,0.0,0.0,0.0,0.0,0.0,0.0,1.5178,1.6571,1.8992,2.1939,2.4778,2.7296,2.7835,2.7541,2.64,2.5301,2.6405,3.0512,3.3079,3.6013,3.9506,4.1887,4.352,4.4359,4.4447,4.4276,4.3893,4.3971,4.3971,4.3912,4.3693,4.3742,4.4001,4.3726,4.3597,4.3614,4.382,4.3788,4.3612,4.3896,4.4061,4.4146,4.4474,4.4593,4.4575,4.4297,4.3704,4.2962,4.229,4.1354,4.0323,3.9315,3.7836,3.564,3.1314,3.0089,0.0,0.0,0.0,0.0,0.0,0.0,0.0,0.0,0.0,3.0121,3.1981,3.4122,3.6822,4.0554,4.2085,4.4,4.7759,4.9086,4.9894,5.0596,5.0712,5.0442,4.974,4.9644,4.9856,5.0404,5.0596,5.0635,5.0462,5.0462,5.0067,4.9183,4.849,4.8029,4.7875,4.7548,4.8029,4.9394,4.7894,4.7471,4.8086,4.6394,4.5594,4.5594,4.5594,4.5594,4.5594,4.5594,4.5568,4.5504,4.5577,4.5594,4.5594,4.5594,4.5594,4.5594,4.5594,4.5117,4.4467,0.0,0.0,0.0,0.0,0.0,0.0,0.0,0.0,1.6329,1.804,1.9832,2.1713,2.367,2.3167,2.2885,2.341,2.5219,2.8178,3.249,3.4116,3.6828,4.1138,4.2023,4.2785,4.3612,4.3912,4.3896,4.3565,4.3849,4.3849,4.3546,4.3836,4.3971,4.4001,4.3955,4.394,4.3924,4.3679,4.371,4.394,4.3967,4.4204,4.454,4.458,4.4593,4.4518,4.4018,4.2389,4.0673,4.2386,4.1854,4.0746,4.2104,4.1846,4.0285,3.6321,3.3164,3.0148,2.6324,2.4707,2.4962,2.8724,2.9167,3.0242,0.0,0.0,3.6411,3.8861,4.02,4.1546,4.3508,4.522,4.6971,4.8933,4.999,5.0596,5.0693,5.0712,5.0654,5.0577,5.0558,5.0289,4.9606,5.025,5.0385,4.9606,4.9548,4.9163,4.8298,4.8144,4.7778,4.7058,4.8394,4.9202,4.9394,4.8452,4.8009,4.8086,4.6394,4.5594,4.5594,4.5594,4.5594,4.5594,4.5594,4.5429,4.518,4.5485,4.5594,4.5594,4.5594,4.5594,4.5594,4.5594,4.5352,4.5048,0.0,0.0,0.0,0.0,0.0,0.0,0.0,0.0,0.0,1.719,1.799,1.9052,2.0777,2.0175,2.0152,2.1428,2.3481,2.6879,3.2051,3.4624,3.7632,4.1436,4.2498,4.3149,4.3496,4.3629,4.3629,4.3515,4.3629,4.3742,4.3788,4.3742,4.382,4.4001,4.3804,4.371,4.3693,4.3546,4.3693,4.3967,4.3788,4.4175,4.4747,4.3369,4.2396,4.1777,4.2026,4.0696,0.0,3.9652,3.9755,3.9714,4.0619,3.9857,3.8219,3.5961,3.4081,3.2316,3.0415,2.9498,2.9543,3.1398,3.2699,3.4276,3.7142,3.8007,3.8796,4.0835,4.2316,4.3778,4.5509,4.6797,4.799,0.0,5.0125,5.0519,5.001,4.9933,4.976,4.924,4.9183,4.924,4.9394,4.9721,4.9779,4.9433,4.9875,4.999,4.9625,4.9125,4.8933,4.9106,4.9298,4.9644,5.0144,4.9298,4.8606,4.8086,4.6913,4.6086,4.5594,4.5594,4.5594,4.5594,4.5594,4.5513,4.541,4.5531,4.5594,4.5594,4.5594,4.5485,4.5332,4.5522,4.5513,4.541,0.0,0.0,0.0,0.0,0.0,0.0,0.0,0.0,0.0,0.0,1.656,1.7007,1.8177,1.7784,1.8096,1.9704,2.1496,2.4947,3.063,3.3817,3.7045,4.0541,4.2068,4.2928,4.3149,4.3404,4.3515,4.3515,4.3515,4.3612,4.3849,4.371,4.3756,4.3982,4.3868,4.3807,4.3807,4.3807,4.4004,4.4257,4.3927,4.4055,4.4187,4.183,3.982,3.8346,3.9225,3.7845,3.5617,3.5761,3.6075,3.6521,3.7179,3.6747,3.5774,3.467,3.342,3.234,3.2145,3.234,3.2795,3.3718,3.5853,3.7873,3.8354,3.9604,4.1085,4.2547,4.3816,4.5124,4.6624,4.7375,4.8125,4.9221,4.9933,5.0106,4.949,4.9394,4.899,4.7894,4.7567,4.7663,4.8279,4.8759,4.9048,4.9048,4.9856,5.0346,5.0346,4.9971,4.9933,5.0327,4.9952,5.0048,5.0693,4.9837,4.8952,4.8086,4.7269,4.6432,4.5594,4.5594,4.5559,4.5476,4.5568,4.5559,4.5476,4.5568,4.5594,4.5594,4.5594,4.5448,4.5282,4.5504,4.5531,4.5485,0.0,0.0,0.0,0.0,0.0,0.0,0.0,0.0,0.0,0.0,0.0,0.0,0.0,1.579,1.6426,1.8034,1.9656,2.2893,2.8339,3.1225,3.4432,3.824,4.0178,4.1535,4.2323,4.3094,4.3515,4.3515,4.3515,4.3515,4.3513,4.3852,4.4001,4.4031,4.4406,4.4585,4.4585,4.4585,4.4757,4.5041,4.4695,4.3846,4.2524,4.0159,3.7318,3.4701,3.5763,3.3312,2.9739,3.0897,3.0753,3.0368,3.2068,3.3681,3.4718,3.3579,3.1034,2.8791,2.9813,3.0898,3.2526,3.5769,3.8507,4.0823,4.2527,4.3547,4.4393,4.5306,4.5537,4.5817,4.674,4.6923,4.749,4.9125,4.9413,4.9433,4.9394,4.9394,4.8798,4.7135,4.6182,4.5691,0.0,4.7182,4.8144,4.8144,4.8952,4.9433,4.9433,5.0231,5.0289,4.9471,5.0231,5.0673,5.0712,4.9837,4.8952,4.8086,4.7269,4.6432,4.5594,4.5594,4.5419,4.5129,4.5467,4.5419,4.5129,4.5476,4.5594,4.5594,4.5594,4.5586,4.5586,4.5605,4.5381,4.515,0.0,0.0,0.0,0.0,0.0,0.0,0.0,0.0,0.0,0.0,0.0,0.0,0.0,0.0,0.0,0.0,1.8936,2.1893,2.6443,2.959,3.2337,3.475,3.7327,3.8851,3.9108,4.043,4.1368,4.1919,4.1919,4.2176,4.2708,4.2822,4.3162,4.366,4.3807,4.3868,4.3868,4.3868,4.3763,4.3453,4.2042,4.1488,4.1132,3.7707,3.4556,3.1815,0.0,2.923,2.7508,2.752,2.7718,2.8168,2.9412,2.9748,2.9502,2.8674,2.9698,3.1244,3.1773,3.4274,3.7276,3.9519,4.1566,4.3335,4.4498,4.4979,4.5248,4.5537,4.4729,4.4028,4.4316,4.4816,4.5355,4.5913,4.7913,4.9009,4.7894,4.8202,4.7702,4.5432,4.5432,0.0,0.0,0.0,0.0,4.8029,4.8913,4.9644,5.0231,5.0539,5.0577,5.0269,5.0558,5.0712,5.0712,5.0423,4.9817,4.8952,4.7567,4.6432,4.5594,4.5594,4.555,4.5438,4.5559,4.555,4.5438,4.5559,4.5594,4.5594,4.5594,4.5594,4.5594,4.5594,4.5522,4.5438,0.0,0.0,0.0,0.0,0.0,0.0,0.0,0.0,0.0,0.0,0.0,0.0,0.0,0.0,0.0,0.0,0.0,2.0221,2.3798,2.647,2.8913,3.1208,3.3352,3.4724,3.5307,3.6336,3.7404,3.849,3.8196,3.8765,4.0157,3.9845,4.0139,4.0944,4.1362,4.1517,4.1551,4.1964,4.1795,4.1119,3.9453,3.8335,3.7303,3.3765,3.0736,0.0,2.5971,2.4869,2.4356,2.3967,2.4612,2.5642,2.5983,2.6303,2.6577,2.6822,2.9353,3.2531,3.4613,3.7642,4.0662,4.2662,4.4201,4.5297,4.5537,4.5594,4.5441,4.4825,4.3524,4.2309,4.1714,4.179,4.2206,4.2986,4.5275,4.6887,4.6733,4.7155,4.6801,4.4981,4.4979,4.5037,0.0,0.0,0.0,4.7971,4.8625,4.9586,5.1048,5.0866,5.0827,5.1125,5.0846,5.0712,5.0712,5.0712,5.0269,4.9375,4.7702,4.6605,4.6047,4.5748,4.5594,4.5594,4.5594,4.5594,4.5594,4.5594,4.5594,4.5594,4.5594,4.5594,4.5594,4.5594,4.5594,4.5594,0.0,0.0,0.0,0.0,0.0,0.0,0.0,0.0,0.0,0.0,0.0,0.0,0.0,0.0,0.0,0.0,0.0,0.0,2.0529,2.2029,2.4275,2.7577,2.837,2.9494,3.1066,3.1176,3.1984,3.355,3.2821,3.3697,3.6028,3.5243,3.5334,3.6221,3.7304,3.779,3.7853,3.8945,3.8904,3.8034,3.6871,3.4509,3.1408,2.8706,2.619,2.3823,2.1465,2.0548,2.0456,2.0548,2.173,2.3079,2.237,2.392,2.6363,2.8229,3.0209,3.2894,3.8028,4.0758,4.2701,4.5133,4.6317,4.6682,4.5864,4.5575,4.4989,4.3308,4.1949,4.0577,0.0,0.0,3.8327,4.0482,4.1893,4.3592,4.6088,4.6448,4.6256,0.0,0.0,0.0,0.0,0.0,0.0,4.8105,0.0,4.9336,5.1827,5.1202,5.1106,5.1885,5.1125,5.0712,5.0712,5.0712,5.0269,4.9375,4.7798,4.6981,4.6865,4.6019,4.5615,4.5577,4.5559,4.5559,4.5577,4.5615,4.5663,4.5671,4.571,4.571,4.5671,4.5671,4.5633,4.5594,0.0,0.0,0.0,0.0,0.0,0.0,0.0,0.0,0.0,0.0,0.0,0.0,0.0,0.0,0.0,0.0,0.0,0.0,1.7844,1.9383,2.0901,2.2367,2.4357,2.5897,2.6917,2.811,2.9219,3.0216,3.062,3.1439,3.2664,3.3036,3.3647,3.4449,3.4736,3.4882,3.4882,3.5184,3.4494,3.3079,3.1584,3.0116,2.865,2.6738,2.4897,2.3226,2.2584,2.1171,1.9803,2.106,2.348,2.6077,2.6687,2.8277,3.0293,3.2027,3.5205,3.8597,4.0608,4.3778,4.6644,4.7298,4.7182,4.6827,4.6624,4.5105,4.3214,4.1325,3.8727,3.6214,0.0,0.0,0.0,3.8336,4.2613,0.0,4.6676,4.7828,0.0,4.6731,0.0,4.699,4.6605,4.7105,0.0,0.0,5.0029,5.0875,5.2779,5.2068,5.1692,5.1885,5.1125,5.0712,5.0712,5.0712,5.0269,4.9394,4.8971,4.8105,4.6885,4.6357,4.5787,4.5211,4.4966,4.4988,4.526,4.5863,4.6301,4.6624,4.724,4.7105,4.6567,4.6567,4.6163,4.5594,0.0,0.0,0.0,0.0,0.0,0.0,0.0,0.0,0.0,0.0,0.0,0.0,0.0,0.0,0.0,0.0,0.0,0.0,0.0,1.7215,1.8243,1.9392,2.0437,2.1363,2.218,2.3428,2.4281,2.473,2.5538,2.6374,2.7192,2.764,2.8282,2.909,2.9787,3.0111,3.0148,3.0485,2.9916,0.0,0.0,2.5878,2.4989,2.3355,2.2161,2.1382,2.1382,2.1244,2.1379,2.3505,2.5514,2.7497,2.9601,3.1297,3.3039,3.5835,3.8772,4.1585,4.3932,4.6567,4.8586,4.8202,4.7759,4.6818,4.4487,4.2846,4.0865,3.7476,3.4874,3.2689,3.0892,3.247,0.0,0.0,0.0,0.0,4.6474,4.7797,4.847,0.0,4.8394,0.0,4.8567,4.9298,5.0491,0.0,5.1327,5.1587,5.3664,5.2953,5.2462,5.2462,5.1664,5.1048,5.0712,5.0712,5.0462,4.9971,4.9586,4.8817,4.7709,4.6738,4.6161,4.5892,0.0,4.4922,4.543,4.5897,4.6214,4.6457,4.6915,4.7018,4.6865,4.6143,4.5893,4.586,0.0,0.0,0.0,0.0,0.0,0.0,0.0,0.0,0.0,0.0,0.0,0.0,0.0,0.0,0.0,0.0,0.0,0.0,0.0,0.0,1.6206,1.7729,1.7117,1.711,1.7924,1.861,1.8985,1.8985,1.9795,2.0566,2.1317,2.1427,2.184,2.2566,2.3979,2.4585,2.464,2.5346,2.5162,2.4309,2.2905,2.1932,2.1151,0.0,1.9205,1.9315,1.9426,2.0978,2.3431,2.645,2.7782,2.8761,3.2093,3.3969,3.5733,3.974,4.1667,4.3308,4.7221,4.8913,4.9356,4.849,4.8105,4.6607,4.153,4.0011,3.8228,3.3086,3.1045,2.9691,2.7988,2.9382,3.1619,3.407,0.0,4.2524,4.5976,4.7256,4.8231,4.9279,4.9606,5.0029,5.0779,5.1606,5.276,5.4376,5.2452,5.2232,5.453,5.3837,5.3318,5.3203,5.2346,5.1568,5.0856,5.0856,5.0808,5.0693,5.0,4.9348,4.8753,4.7189,4.6639,4.685,0.0,0.0,4.5885,4.5998,4.6105,4.6205,4.6264,4.6693,4.706,4.548,4.5533,4.6263,0.0,0.0,0.0,0.0,0.0,0.0,0.0,0.0,0.0,0.0,1.6727,1.549,0.0,0.0,0.0,0.0,0.0,0.0,0.0,0.0,0.0,1.6084,1.5986,1.6273,1.7092,1.7238,1.7312,1.7312,1.8126,1.8585,1.8757,1.9426,1.9811,1.9958,2.0233,2.0362,2.0362,2.0509,2.0097,1.9344,1.9062,1.8867,1.872,1.8427,0.0,0.0,2.0052,2.0696,2.1964,2.6749,3.0319,3.3268,3.6136,3.8589,4.0987,4.3829,4.5318,4.649,4.8606,4.9798,5.0269,4.9394,4.8125,4.6088,4.2172,3.9103,0.0,3.0978,2.8736,2.7075,2.5235,2.7559,3.0876,3.4254,3.8509,4.2642,4.6292,4.8126,4.9173,0.0,5.0625,5.1519,0.0,0.0,0.0,0.0,0.0,5.4318,5.5434,5.4722,5.3933,5.3222,5.2346,5.1827,5.1692,5.1692,5.1356,5.0702,5.0875,5.0209,4.876,4.7871,4.7099,4.6485,0.0,0.0,4.6352,4.7074,4.773,4.8332,4.871,4.8708,4.8339,4.7046,4.6706,4.6671,0.0,0.0,0.0,0.0,0.0,0.0,0.0,1.8574,1.9942,2.162,2.0831,1.9481,1.7755,1.6475,1.5753,0.0,0.0,0.0,0.0,0.0,0.0,0.0,1.5086,1.5264,1.5643,1.6468,1.6487,1.5643,0.0,1.7043,1.6236,1.705,1.7424,1.7443,1.7858,1.8052,1.8052,1.8052,1.7832,1.7484,1.7484,1.7722,1.8089,0.0,0.0,0.0,2.0217,2.1195,2.2619,2.6118,2.9935,3.3938,3.8028,4.0758,4.2989,4.5528,4.6874,4.7702,4.8509,4.9683,5.0289,4.8529,4.7144,4.4783,3.9308,0.0,0.0,2.7783,2.6098,2.5264,2.4375,2.6748,0.0,3.2307,3.613,4.0183,4.4154,4.6281,0.0,4.924,5.1279,5.2577,0.0,0.0,0.0,0.0,0.0,0.0,5.5665,5.4934,5.4107,5.3241,5.2788,5.2164,5.1279,5.2145,5.1952,5.0712,5.1318,5.0756,4.9134,4.8347,4.7783,4.7313,4.6323,0.0,4.6758,4.6756,4.7215,4.7907,4.7697,4.8007,4.8375,4.6952,4.6831,4.7192,0.0,0.0,0.0,0.0,0.0,0.0,0.0,2.0427,2.218,2.4649,2.4814,2.3657,2.0913,1.8841,1.7458,0.0,0.0,0.0,0.0,0.0,0.0,0.0,0.0,0.0,0.0,0.0,0.0,0.0,1.601,0.0,0.0,0.0,0.0,0.0,1.6365,1.6542,1.6395,1.6395,1.6487,0.0,0.0,1.7227,0.0,0.0,0.0,0.0,0.0,2.1338,2.2801,2.5224,2.8305,3.2042,3.7156,4.0233,4.2439,4.4994,4.6301,4.7117,4.7885,4.9106,4.9625,4.7451,4.597,4.3267,3.6443,3.3409,0.0,2.5291,2.419,2.419,2.419,2.6116,2.8334,0.0,3.3516,3.7278,4.1781,4.4048,4.6204,0.0,5.1221,0.0,0.0,0.0,0.0,0.0,0.0,0.0,5.527,5.4866,5.4298,5.3626,5.3345,5.2664,5.1539,5.2645,5.2549,5.1241,5.1886,5.1344,4.9734,4.8946,4.8468,4.8233,4.6966,0.0,0.0,4.6673,4.6838,4.7408,4.6691,4.7224,4.8237,4.6728,4.6854,4.7687,0.0,0.0,0.0,0.0,0.0,0.0,0.0,2.1904,2.4722,2.7145,2.6833,2.5988,2.4952,2.2042,1.9292,0.0,0.0,0.0,0.0,0.0,0.0,0.0,0.0,0.0,0.0,0.0,0.0,0.0,0.0,0.0,0.0,0.0,0.0,0.0,0.0,0.0,1.4714,1.4714,0.0,0.0,0.0,0.0,0.0,0.0,0.0,0.0,0.0,2.015,2.0309,2.4431,2.608,2.7204,3.1722,3.5431,3.8626,4.1226,0.0,0.0,4.7213,4.8221,4.8105,4.7135,4.5105,4.1846,3.6195,0.0,2.9882,2.5171,2.419,2.419,2.419,2.5,2.678,3.0149,3.227,3.5373,4.0759,4.2976,4.5083,4.7895,0.0,0.0,0.0,0.0,0.0,0.0,0.0,0.0,0.0,5.4651,5.5007,5.4931,5.3793,5.351,5.4145,5.353,5.3126,5.2962,5.305,5.2235,5.0654,4.9839,4.9045,4.8306,0.0,0.0,0.0,4.8122,4.8329,4.8683,4.8237,4.8384,4.8702,4.7463,4.7517,4.8014,0.0,0.0,0.0,0.0,0.0,0.0,2.0399,2.2336,2.4694,2.8069,2.8235,2.7537,2.6264,2.452,2.2061,1.8647,0.0,0.0,0.0,0.0,0.0,0.0,0.0,0.0,0.0,0.0,0.0,1.642,0.0,0.0,0.0,0.0,0.0,0.0,0.0,0.0,0.0,1.4493,0.0,0.0,0.0,0.0,0.0,0.0,0.0,0.0,0.0,0.0,2.0228,2.1615,2.3064,2.4506,2.5751,2.8114,3.1707,3.8104,4.0939,4.2546,4.5099,4.6932,4.7778,4.6451,4.3728,4.022,3.5893,0.0,2.8371,2.4902,2.419,2.419,2.419,2.4456,2.5471,2.7837,2.889,3.0873,3.5094,3.7814,4.0758,4.447,0.0,0.0,0.0,0.0,0.0,0.0,0.0,0.0,0.0,5.3762,5.39,5.2851,5.2834,5.2869,5.2923,5.3626,5.3722,5.3192,5.3442,5.2589,5.0782,5.018,4.9326,4.8306,0.0,0.0,0.0,4.7773,4.796,4.8476,4.7831,4.796,4.8495,4.8015,4.8031,4.8214,0.0,0.0,0.0,0.0,0.0,1.7917,2.0941,2.252,2.462,2.818,2.8436,2.7941,2.7053,2.5393,2.3263,2.0611,1.9216,0.0,0.0,0.0,0.0,0.0,0.0,0.0,0.0,0.0,1.7128,1.7612,1.7612,1.7734,0.0,0.0,0.0,0.0,0.0,0.0,0.0,0.0,0.0,0.0,0.0,0.0,0.0,0.0,0.0,0.0,0.0,0.0,0.0,0.0,0.0,2.2418,2.2039,2.3306,2.6392,3.3976,3.7764,4.0042,4.2434,4.5002,4.6682,4.5509,4.2302,3.8582,0.0,0.0,2.7149,2.4707,2.419,2.419,2.419,2.419,2.4649,2.6025,2.6566,2.8088,3.1767,3.4329,3.7414,0.0,0.0,0.0,0.0,0.0,0.0,0.0,0.0,0.0,0.0,5.2567,5.2347,5.1352,5.1923,5.2124,5.1924,5.3368,5.3738,5.3018,5.3442,5.2632,5.0782,5.0213,4.9344,4.8306,0.0,0.0,0.0,4.7681,4.7791,4.8251,4.7681,4.7791,4.8306,4.8306,4.8306,4.8306,0.0,0.0,0.0,0.0,0.0,0.0,2.0136,2.2611,2.5052,2.7493,2.7126,2.6924,2.7695,2.4236,2.2143,2.2896,2.0703,0.0,0.0,0.0,0.0,0.0,0.0,0.0,0.0,0.0,1.7686,1.9279,1.9279,1.9675,2.0448,2.0448,0.0,0.0,0.0,0.0,0.0,0.0,0.0,0.0,0.0,0.0,0.0,0.0,0.0,0.0,0.0,0.0,0.0,0.0,0.0,0.0,0.0,2.2382,2.3888,2.8306,3.2091,3.5656,3.9259,4.2253,4.4335,4.4316,4.0987,3.7005,3.4241,3.0196,2.6478,2.4597,2.419,2.419,2.419,2.419,2.4475,2.5283,2.609,2.8152,3.2577,3.39,0.0,0.0,0.0,0.0,0.0,0.0,0.0,0.0,0.0,0.0,0.0,5.1092,5.0606,5.1371,5.1334,5.1534,5.1993,5.2812,5.3007,5.2609,5.2996,5.2349,5.0768,4.9971,4.9133,0.0,0.0,0.0,0.0,4.8306,4.8306,4.8306,4.8306,4.8306,4.8306,4.8306,4.8306,4.8306,0.0,0.0,0.0,0.0,0.0,0.0,0.0,2.0456,2.2364,2.4281,2.429,2.4447,2.5254,2.3226,2.1904,2.2161,2.0417,0.0,0.0,0.0,0.0,0.0,0.0,0.0,0.0,0.0,1.9612,2.0126,2.0729,2.1133,2.1382,2.0786,1.9924,1.8886,0.0,0.0,0.0,0.0,0.0,0.0,0.0,0.0,0.0,0.0,0.0,0.0,0.0,0.0,0.0,0.0,0.0,0.0,0.0,0.0,0.0,2.4312,2.797,3.1845,3.4868,3.6755,3.7868,3.7868,3.5381,3.2534,3.1129,2.8269,2.5576,2.4439,2.419,2.419,2.419,2.419,2.4814,2.6733,2.7236,2.8099,0.0,0.0,0.0,0.0,0.0,0.0,0.0,0.0,0.0,0.0,0.0,0.0,0.0,5.0213,5.001,5.05,4.9961,5.0258,5.1515,5.1559,5.205,5.3007,5.23,5.1555,5.0768,4.9916,0.0,0.0,0.0,0.0,0.0,4.8306,4.8306,4.8306,4.8306,4.8306,4.8306,4.8306,4.8306,4.8306,0.0,0.0,0.0,0.0,0.0,0.0,0.0,1.9006,2.0529,2.1887,2.2052,2.2602,2.4043,2.2198,2.1225,2.2171,2.0435,0.0,0.0,0.0,0.0,0.0,0.0,0.0,1.9297,1.9785,2.0511,2.1447,2.2281,2.2712,2.2694,2.2464,2.1418,1.9711,1.8904,1.8115,0.0,0.0,0.0,0.0,0.0,0.0,1.8875,0.0,0.0,0.0,0.0,0.0,0.0,0.0,0.0,0.0,0.0,0.0,0.0,0.0,2.4218,2.7391,3.1063,3.3203,3.4414,3.4414,3.2317,3.0048,2.9233,2.6915,2.4805,2.43,2.419,2.419,2.419,2.419,2.4685,2.619,2.6696,2.7529,0.0,0.0,0.0,0.0,0.0,0.0,0.0,0.0,0.0,0.0,0.0,0.0,0.0,0.0,4.9691,4.9898,4.9258,4.9319,5.0161,5.0598,5.105,5.1555,5.1139,5.0482,4.9618,4.9214,0.0,0.0,0.0,0.0,0.0,4.8306,4.8306,4.8306,4.8306,4.8306,4.8306,4.8306,4.8306,4.8306,0.0,0.0,0.0,0.0,0.0,0.0,0.0,1.8133,1.9418,2.0217,2.0327,2.1226,2.3584,2.1133,2.0225,2.2529,0.0,0.0,0.0,0.0,0.0,0.0,0.0,0.0,1.9297,1.9426,2.0611,2.2914,2.3896,2.4373,2.4392,2.5136,2.3804,2.0731,1.9858,1.8959,1.8052,0.0,0.0,0.0,1.7851,1.8188,0.0,0.0,0.0,0.0,0.0,0.0,0.0,0.0,0.0,0.0,0.0,0.0,0.0,0.0,0.0,0.0,0.0,3.0856,3.2852,3.2909,3.1007,2.8933,2.8175,2.6033,0.0,2.419,2.419,2.4208,2.4263,2.4245,2.4263,2.4428,2.5081,2.6794,0.0,0.0,0.0,0.0,0.0,0.0,0.0,0.0,0.0,0.0,0.0,0.0,0.0,0.0,4.9519,4.9519,4.9065,4.8692,4.8345,4.9861,5.005,4.8947,4.9697,4.9269,4.7798,4.8145,0.0,0.0,0.0,0.0,0.0,4.8306,4.8269,4.8233,4.8288,4.8269,4.8233,4.8288,4.8306,4.8306,0.0,0.0,0.0,0.0,0.0,0.0,0.0,0.0,0.0,0.0,1.8658,1.9124,2.0325,1.9756,1.9536,0.0,0.0,0.0,0.0,0.0,0.0,0.0,0.0,0.0,1.9297,2.0564,2.15,2.2088,2.474,2.6043,2.6043,2.6227,2.5254,2.3272,2.1849,2.005,1.8133,1.8555,0.0,0.0,1.8684,1.9022,0.0,0.0,0.0,0.0,1.9297,1.9822,0.0,0.0,0.0,0.0,0.0,0.0,0.0,0.0,2.0658,2.1215,2.3094,0.0,2.5634,2.6265,2.5921,2.5392,0.0,2.4661,2.419,2.419,2.419,2.4392,2.5007,2.4622,2.4795,2.6649,2.7119,2.826,0.0,0.0,0.0,0.0,0.0,0.0,0.0,0.0,0.0,0.0,0.0,0.0,0.0,0.0,4.8618,4.8618,4.8494,4.8532,4.8761,4.8843,4.9052,4.9356,4.8949,4.8715,4.86,4.8403,0.0,0.0,0.0,0.0,4.8306,4.8306,4.7938,4.7443,4.8067,4.7921,4.7461,4.8086,4.8306,4.8306,0.0,0.0,0.0,0.0,0.0,0.0,0.0,0.0,0.0,0.0,0.0,0.0,0.0,0.0,0.0,0.0,0.0,0.0,0.0,0.0,0.0,0.0,0.0,1.9297,1.9297,2.0556,2.1749,2.2896,2.5383,2.6796,2.7145,2.7145,2.6098,2.4116,2.2097,2.0244,1.8684,1.9113,1.8838,1.817,1.8985,0.0,0.0,0.0,0.0,0.0,1.8886,1.9502,0.0,2.0951,2.1657,2.2208,0.0,0.0,0.0,0.0,1.995,2.0134,2.0978,2.207,2.3098,2.3547,2.3933,2.419,2.419,2.419,2.419,2.419,2.419,2.4318,2.4768,2.4805,2.5172,2.6494,2.8078,0.0,0.0,0.0,0.0,0.0,0.0,0.0,0.0,0.0,0.0,0.0,0.0,0.0,0.0,0.0,4.871,4.8324,4.8691,4.8807,4.8622,4.8402,4.8513,4.893,4.8513,4.8218,4.8085,4.8218,0.0,0.0,0.0,0.0,4.8306,4.8306,4.8049,4.7681,4.8141,4.8031,4.77,4.8141,4.8306,4.8306,0.0,0.0,0.0,0.0,0.0,0.0,0.0,0.0,0.0,0.0,0.0,0.0,0.0,0.0,0.0,0.0,0.0,0.0,0.0,0.0,0.0,0.0,1.9297,1.9426,1.9683,2.0354,2.185,2.419,2.619,2.7438,2.7989,2.8356,2.6979,2.4098,2.174,2.0189,1.9297,1.9297,1.8911,1.8335,1.904,0.0,0.0,0.0,0.0,0.0,0.0,0.0,0.0,2.1206,2.2116,2.2804,2.1757,0.0,0.0,0.0,0.0,0.0,2.0437,2.1905,2.3153,2.3024,2.3602,2.419,2.419,2.419,2.419,2.419,2.419,2.4281,2.452,2.5117,0.0,0.0,0.0,0.0,0.0,0.0,0.0,0.0,0.0,0.0,0.0,0.0,0.0,0.0,0.0,0.0,0.0,0.0,0.0,4.8324,4.9022,4.8985,4.8141,4.8251,4.8251,4.8122,4.8122,4.77,4.6929,4.7627,4.7626,0.0,0.0,0.0,4.8122,4.8122,4.7976,4.7774,4.8031,4.8049,4.7957,4.8214,4.8306,4.8306,0.0,0.0,0.0,0.0,0.0,0.0,0.0,0.0,0.0,0.0,0.0,0.0,0.0,0.0,0.0,0.0,0.0,0.0,0.0,0.0,0.0,1.9297,1.9297,1.9958,2.139,2.1537,2.2455,2.419,2.786,2.9354,2.8858,3.0913,2.9127,2.4116,2.2382,2.0747,1.9297,1.9297,1.9224,1.9132,1.9242,0.0,0.0,0.0,0.0,0.0,0.0,0.0,0.0,1.9858,2.1161,2.2602,2.038,0.0,0.0,0.0,0.0,0.0,2.1188,2.2776,2.3859,2.3171,2.3602,2.419,2.419,2.419,2.419,2.419,2.419,2.4612,2.5988,2.6337,2.709,0.0,0.0,0.0,0.0,0.0,0.0,0.0,0.0,0.0,0.0,0.0,0.0,0.0,0.0,0.0,0.0,0.0,0.0,4.8306,4.8434,4.8122,4.7278,4.7957,4.7957,4.7278,4.7278,4.6856,4.6085,4.6214,4.6581,0.0,0.0,4.7278,4.7278,4.7278,4.647,4.5388,4.6746,4.6856,4.6434,4.781,4.8306,4.8306,0.0,0.0,0.0,0.0,0.0,0.0,0.0,0.0,0.0,0.0,0.0,0.0,0.0,0.0,0.0,0.0,0.0,0.0,0.0,0.0,1.9701,2.0601,2.0207,2.0537,2.1776,2.3079,2.475,2.6785,2.9512,3.1109,3.1586,3.095,2.8106,2.3511,2.2326,2.0876,1.9297,1.9297,1.9297,1.9297,0.0,0.0,0.0,0.0,0.0,0.0,0.0,0.0,0.0,0.0,2.0656,2.2061,2.0464,0.0,0.0,0.0,0.0,0.0,2.0233,2.1647,2.3024,2.3529,2.4905,2.6153,2.6153,2.6153,2.6153,2.6153,2.6153,2.6374,2.7108,0.0,3.0612,3.4949,0.0,0.0,0.0,0.0,0.0,0.0,0.0,0.0,0.0,0.0,0.0,0.0,0.0,0.0,0.0,0.0,0.0,0.0,4.7865,4.7461,4.7094,4.704,4.6819,4.6452,4.6452,4.6269,4.5902,4.5902,4.6104,4.6452,0.0,4.6452,4.6452,4.6452,4.603,4.5424,4.6159,4.6232,4.6049,4.7223,4.792,4.8306,0.0,0.0,0.0,0.0,0.0,0.0,0.0,0.0,0.0,0.0,0.0,0.0,0.0,0.0,0.0,0.0,0.0,0.0,0.0,1.9297,1.9958,2.1427,2.1226,2.174,2.3171,2.4824,2.7053,2.9849,3.1458,3.2779,3.3733,3.0509,2.695,2.3244,2.2235,2.0876,1.9297,1.9297,1.9297,1.9297,0.0,0.0,0.0,0.0,0.0,0.0,0.0,0.0,0.0,0.0,0.0,0.0,0.0,0.0,0.0,2.0252,1.9738,1.9675,2.006,2.1243,2.2694,2.4126,2.5742,2.7236,2.8385,2.8356,2.8282,2.9053,2.92,2.9145,0.0,3.0919,0.0,0.0,0.0,0.0,0.0,0.0,0.0,0.0,0.0,0.0,0.0,0.0,0.0,0.0,0.0,0.0,0.0,0.0,0.0,0.0,4.7131,4.6727,4.6544,4.5938,4.5626,4.5626,4.5626,4.5516,4.5333,4.5333,4.5443,4.5626,4.5626,4.5626,4.5626,4.5626,4.5516,4.5351,4.5553,4.5736,4.5975,4.6581,4.7223,4.7774,0.0,0.0,0.0,0.0,0.0,0.0,0.0,0.0,0.0,0.0,0.0,0.0,0.0,0.0,0.0,0.0,0.0,0.0,0.0,1.9297,1.9693,2.0566,2.2015,2.4263,2.7302,2.6814,2.8418,3.2344,3.3959,3.4417,3.3733,3.0509,2.7244,2.4043,2.2492,2.0876,1.9297,1.9297,1.9297,1.9297,1.9297,0.0,0.0,0.0,0.0,0.0,0.0,0.0,0.0,0.0,0.0,0.0,0.0,0.0,2.1776,2.1666,2.1051,2.0749,2.2309,2.3364,2.4226,2.5099,2.4879,2.5621,3.013,2.9989,2.9757,3.2742,3.3366,3.3146,0.0,3.4284,0.0,0.0,0.0,0.0,0.0,0.0,0.0,0.0,0.0,0.0,0.0,0.0,0.0,0.0,0.0,0.0,0.0,0.0,0.0,0.0,0.0,4.5626,4.4874,4.4837,4.4783,4.4783,4.4783,4.4397,4.368,4.368,4.4066,4.4783,4.4783,4.4783,4.4783,4.4783,4.436,4.3736,4.4488,4.5241,4.5902,4.5975,4.6012,4.6177,0.0,0.0,0.0,0.0,0.0,0.0,0.0,0.0,0.0,0.0,0.0,0.0,0.0,0.0,0.0,0.0,0.0,0.0,0.0,1.9297,2.0115,2.1979,2.2189,2.3988,2.7725,2.8962,3.1329,3.4908,3.5514,3.5128,3.3733,3.0509,2.7281,2.4135,2.2528,2.1151,2.0016,1.9517,1.9583,1.9997,1.9499,1.8519,0.0,0.0,0.0,0.0,0.0,0.0,0.0,0.0,1.8805,2.0079,2.0197,2.129,2.2336,2.1308,2.0768,2.0639,2.1281,2.2786,2.4263,2.4585,2.5558,2.7438,3.1274,3.1678,3.2014,3.4798,3.5734,3.6024,0.0,0.0,0.0,0.0,0.0,0.0,0.0,0.0,0.0,0.0,0.0,0.0,0.0,0.0,0.0,0.0,0.0,0.0,0.0,0.0,0.0,0.0,0.0,4.5021,4.4691,4.4195,4.3956,4.3956,4.3956,4.3791,4.3515,4.3515,4.3663,4.3956,4.3956,4.3956,4.3956,4.3956,4.3754,4.3533,4.3828,4.4452,4.5149,4.5149,4.548,4.5938,0.0,0.0,0.0,0.0,0.0,0.0,0.0,0.0,0.0,0.0,0.0,0.0,0.0,0.0,0.0,0.0,0.0,0.0,1.9297,1.9297,2.017,2.2125,2.2189,2.3823,2.7346,3.0038,3.2742,3.5514,3.5771,3.478,3.2596,2.9629,2.706,2.4869,2.2749,2.1749,2.1575,2.0244,2.0005,2.0437,1.962,1.8482,0.0,0.0,0.0,0.0,0.0,0.0,0.0,0.0,1.8009,1.9447,1.994,2.1253,2.2446,2.1557,2.13,2.1226,2.097,2.2336,2.3878,2.4135,2.6007,2.8778,3.2509,3.3573,3.4747,3.8248,3.8869,3.8881,3.9136,0.0,0.0,0.0,0.0,0.0,0.0,0.0,0.0,0.0,0.0,0.0,0.0,0.0,0.0,0.0,0.0,0.0,0.0,0.0,0.0,0.0,0.0,0.0,4.4323,4.3773,4.3515,4.3515,4.3515,4.3515,4.3515,4.3515,4.3515,4.3515,4.3515,4.3515,4.3515,4.3515,4.3515,4.3515,4.3515,4.3828,4.4323,4.4323,4.4837,4.5516,0.0,0.0,0.0,0.0,0.0,0.0,0.0,0.0,0.0,0.0,0.0,0.0,0.0,0.0,0.0,0.0,0.0,0.0,1.9297,1.9297,1.9656,2.0448,2.2107,2.4107,2.651,2.9714,3.2168,3.3807,3.4582,3.3335,3.0136,2.7732,2.6602,2.6447,2.3245,2.2712,2.4025,2.1557,2.0511,2.0456,1.9638,1.8831,1.8016,0.0,0.0,0.0,0.0,0.0,0.0,0.0,1.689,1.7477,2.0747,2.1794,2.1959,2.2749,2.2988,2.2804,2.2014,2.2391,2.3208,2.4025,2.6043,2.9108,3.394,3.5697,3.79,4.3534,4.3056,4.1874,4.2667,4.1787,0.0,0.0,0.0,0.0,0.0,0.0,0.0,0.0,0.0,0.0,0.0,0.0,0.0,0.0,0.0,0.0,0.0,0.0,0.0,0.0,0.0,0.0,4.3515,4.3515,4.3515,4.3515,4.3515,4.3515,4.3515,4.3515,4.3515,4.3515,4.3515,4.3515,4.3515,4.3515,4.3515,4.3515,4.3515,4.3515,4.3515,4.3515,4.3993,4.4691,0.0,0.0,0.0,0.0,0.0,0.0,0.0,0.0,0.0,0.0,0.0,0.0,0.0,0.0,0.0,0.0,0.0,0.0,1.9297,1.9297,1.9656,2.0448,2.1565,2.2758,2.4033,2.6667,2.9916,3.3807,3.3463,3.1959,2.9335,2.8044,2.6539,2.4887,2.4511,2.3979,2.3226,2.1318,2.119,2.2125,2.0713,1.9656,1.8856,0.0,0.0,0.0,0.0,0.0,0.0,0.0,0.0,0.0,1.9389,2.0839,2.1849,2.2088,2.2161,2.2106,2.1867,2.2804,2.4171,2.5548,2.8546,3.2173,3.5899,3.6523,3.782,4.3185,4.3488,4.2886,4.3169,0.0,0.0,0.0,0.0,0.0,0.0,0.0,0.0,0.0,0.0,0.0,0.0,0.0,0.0,0.0,0.0,0.0,0.0,0.0,0.0,0.0,0.0,0.0,4.3515,4.3515,4.3515,4.3515,4.3515,4.3515,4.3515,4.3515,4.3515,4.3515,4.3515,4.3515,4.3515,4.3515,4.3515,4.3515,4.3515,4.3515,4.3515,4.3515,4.3662,4.3864,0.0,0.0,0.0,0.0,0.0,0.0,0.0,0.0,0.0,0.0,1.9297,1.9297,0.0,0.0,0.0,0.0,0.0,0.0,1.9297,1.9297,1.9656,2.0448,2.1327,2.2639,2.4382,2.585,2.7879,3.0448,3.0613,2.9457,2.7097,2.7585,2.7181,2.6135,2.6612,2.63,2.5244,2.3281,2.2657,2.2878,2.1538,2.0519,1.9656,0.0,0.0,0.0,0.0,0.0,0.0,0.0,0.0,0.0,1.795,1.9253,2.0472,2.1088,2.1537,2.1867,2.2198,2.3676,2.5548,2.7152,3.0583,3.4491,3.8102,3.9396,0.0,0.0,4.4465,4.408,4.4476,0.0,0.0,0.0,0.0,0.0,0.0,0.0,0.0,0.0,0.0,0.0,0.0,0.0,0.0,0.0,0.0,0.0,0.0,0.0,0.0,0.0,0.0,0.0,4.3515,4.3515,4.3515,4.3515,4.3515,4.3515,4.3515,4.3515,4.3515,4.3515,4.3515,4.3515,4.3515,4.3515,4.3515,4.3515,4.3515,4.3515,4.3515,4.3515,4.3699,4.392,0.0,0.0,1.4842,1.557,0.0,0.0,0.0,0.0,0.0,0.0,1.9297,1.9297,0.0,0.0,0.0,1.9297,1.9297,1.9297,1.9297,1.9297,1.9656,2.0448,2.14,2.3309,2.6319,2.6308,2.5878,2.5062,2.6825,2.6447,2.4153,2.6704,2.8227,2.8785,2.8932,2.8877,2.851,2.6109,2.4236,2.2822,2.2088,2.1272,2.0327,1.8786,0.0,0.0,0.0,0.0,0.0,0.0,0.0,0.0,1.6615,1.7403,1.8309,1.9924,2.0996,2.1867,2.2749,2.4749,2.7042,2.8877,3.2472,3.6545,4.0388,4.3283,4.5348,4.6081,0.0,4.5262,0.0,0.0,0.0,0.0,0.0,0.0,0.0,0.0,0.0,0.0,0.0,0.0,0.0,0.0,0.0,0.0,0.0,0.0,0.0,0.0,0.0,0.0,0.0,0.0,4.3277,4.3441,4.346,0.0,4.346,4.3515,4.3515,4.3515,4.3515,4.3515,4.3515,4.3515,4.3515,4.3515,4.3515,4.3515,4.3515,4.3515,4.3515,4.3515,4.3956,4.4488,0.0,0.0,1.549,1.568,0.0,0.0,0.0,0.0,0.0,0.0,0.0,0.0,0.0,0.0,0.0,1.9297,1.9297,1.9297,1.9297,1.9297,1.9656,2.0448,2.1942,2.3364,2.4685,2.4088,2.3382,2.2565,2.5456,2.5621,2.3336,2.7024,2.8161,2.717,2.8436,2.7952,2.6017,2.3593,2.2363,2.2051,2.1867,2.1272,2.0401,1.9418,1.8151,0.0,0.0,0.0,0.0,0.0,0.0,0.0,1.645,1.7018,1.7458,1.9087,2.0134,2.1098,2.2602,2.4749,2.7427,3.095,3.5848,4.0255,4.2032,4.361,4.4775,4.4952,4.5033,0.0,0.0,0.0,0.0,0.0,0.0,0.0,0.0,0.0,0.0,0.0,0.0,0.0,0.0,0.0,0.0,0.0,0.0,0.0,0.0,0.0,0.0,0.0,0.0,4.2249,4.1625,4.2873,4.3167,0.0,4.3185,4.3515,4.3515,4.3515,4.3515,4.3515,4.3515,4.3515,4.3515,4.3515,4.3515,4.3515,4.3515,4.3515,4.3515,4.3515,4.3608,4.3718,0.0,0.0,0.0,0.0,0.0,0.0,0.0,0.0,0.0,0.0,0.0,0.0,0.0,1.9297,0.0,0.0,1.9297,1.9297,1.9297,1.9297,1.9848,2.107,2.2703,2.3602,2.3621,2.2832,2.2024,2.118,2.2859,2.3244,2.2501,2.6143,2.7391,2.6657,2.829,2.7658,2.5319,2.4052,2.3079,2.2336,2.1959,2.1272,2.0364,1.9179,1.7729,1.6163,1.4934,0.0,0.0,0.0,0.0,0.0,0.0,0.0,1.664,1.8243,1.9308,2.0391,2.2437,2.5318,2.8913,3.3733,3.7569,4.0622,4.2385,4.3519,4.4343,4.4747,4.5118,0.0,0.0,0.0,0.0,0.0,0.0,0.0,0.0,0.0,0.0,0.0,0.0,0.0,0.0,0.0,0.0,0.0,0.0,0.0,0.0,0.0,0.0,0.0,4.1499,4.1517,4.1095,4.1937,4.2139,4.1735,4.2158,4.2359,4.2378,4.3149,4.3515,4.3515,4.3515,4.3515,4.3515,4.3515,4.3515,4.3515,4.3515,4.3515,4.3515,4.3515,4.3515,4.3515,0.0,0.0,0.0,0.0,0.0,0.0,0.0,0.0,0.0,0.0,0.0,0.0,0.0,1.9297,1.9297,0.0,0.0,0.0,1.9297,1.9426,2.0123,2.1519,2.3006,2.3474,2.2804,2.1987,2.1216,2.0503,2.0503,2.096,2.1867,2.4942,2.6465,2.6638,2.7849,2.72,2.5154,2.4732,2.3621,2.2107,2.1592,2.0776,1.9732,1.8401,1.6977,1.5582,1.4787,1.4493,1.453,1.4658,0.0,0.0,0.0,0.0,1.5992,1.7465,1.8463,1.9601,2.1942,2.5813,3.0497,3.5832,3.815,0.0,4.202,4.3188,4.4029,4.4798,0.0,0.0,0.0,0.0,0.0,0.0,0.0,0.0,0.0,0.0,0.0,0.0,0.0,0.0,0.0,0.0,0.0,0.0,0.0,0.0,0.0,0.0,4.1662,4.071,4.082,4.082,4.0691,4.0948,4.1022,4.0875,4.1022,4.1095,4.115,4.2488,4.3149,4.3313,4.3441,4.3515,4.3515,4.3515,4.3515,4.3515,4.3515,4.3515,4.3515,4.3515,4.3515,4.3515,0.0,0.0,0.0,0.0,0.0,0.0,0.0,0.0,0.0,0.0,1.9297,1.9297,1.9297,1.9297,1.9297,1.9297,1.9297,1.9297,1.9297,0.0,0.0,2.0658,2.1602,2.2069,2.1959,2.1125,2.0621,2.0503,2.0503,2.096,2.1849,2.4383,2.5933,2.6583,2.6109,2.5319,2.4208,2.207,2.0236,1.8812,1.9407,1.8739,1.7367,1.7147,1.6493,1.5582,1.4787,1.4493,1.4603,1.5307,1.5607,0.0,0.0,0.0,1.5876,1.678,1.7631,1.8647,2.0364,2.5336,3.0955,3.4822,3.7459,3.9513,0.0,0.0,4.3909,0.0,0.0,0.0,0.0,0.0,0.0,0.0,0.0,0.0,0.0,0.0,0.0,0.0,0.0,0.0,0.0,0.0,0.0,0.0,0.0,0.0,0.0,4.126,4.0563,3.9074,3.9698,3.9735,3.9038,4.0398,4.0763,4.0065,4.0781,4.1095,4.1113,4.1315,4.1809,4.2506,4.3185,4.3515,4.3515,4.3515,4.3515,4.3515,4.3515,4.3515,4.3515,4.3515,4.3515,4.3515,0.0,0.0,0.0,0.0,0.0,0.0,0.0,0.0,0.0,0.0,0.0,1.9297,1.9297,1.9297,1.9113,1.8665,1.904,1.9297,1.9297,2.0052,2.0503,2.0503,2.1327,2.1574,2.1088,2.0694,2.0272,1.9822,1.9822,2.0501,2.1831,2.3355,2.4483,2.5236,2.4897,2.4034,2.2749,2.1171,1.9832,1.872,1.8188,1.8071,1.8096,1.6732,1.6291,1.6218,1.4952,1.4493,1.4622,1.5435,1.6004,1.6438,1.6798,0.0,0.0,0.0,1.7147,1.8181,2.163,2.4997,2.8419,3.2249,3.4582,3.6618,3.9163,4.0874,4.2265,0.0,0.0,0.0,0.0,0.0,0.0,0.0,0.0,0.0,0.0,0.0,0.0,0.0,0.0,0.0,0.0,0.0,0.0,0.0,0.0,0.0,4.115,4.0671,3.99,3.8744,3.9038,3.9056,3.8707,3.9405,3.9588,3.9239,3.9588,3.9756,3.9756,4.023,4.1111,4.2323,4.2671,4.3075,4.3515,4.3515,4.3515,4.3515,4.3515,4.3515,4.3515,4.3515,4.3515,4.3515,0.0,0.0,0.0,0.0,0.0,0.0,0.0,0.0,0.0,0.0,0.0,1.9297,1.9297,0.0,0.0,0.0,1.8647,1.9003,1.9003,1.9748,2.0199,2.0199,2.0821,2.0858,2.0217,1.9997,1.9711,1.9297,1.9297,2.0252,2.2125,2.2721,2.3547,2.4511,2.4281,2.3419,2.2033,2.0951,1.9924,1.8911,1.7906,1.7979,1.8537,1.7149,1.7099,1.7587,1.5753,1.5246,0.0,0.0,0.0,0.0,0.0,0.0,0.0,0.0,0.0,1.7539,2.1804,2.385,2.567,2.9374,3.1749,3.397,0.0,0.0,0.0,0.0,0.0,0.0,0.0,0.0,0.0,0.0,0.0,0.0,0.0,0.0,0.0,0.0,0.0,0.0,0.0,0.0,0.0,0.0,0.0,0.0,4.1132,4.0341,3.9533,3.8726,3.8505,3.8487,3.8707,3.8707,3.8597,3.8395,3.8395,3.8395,3.8414,3.9019,4.0157,4.1699,4.1919,4.2451,4.3185,4.3185,4.3331,4.3515,4.3515,4.3515,4.3515,4.3515,4.3515,4.3515,0.0,0.0,0.0,0.0,0.0,0.0,0.0,0.0,0.0,0.0,0.0,1.9297,1.9297,1.9297,1.8985,1.817,1.8151,1.8163,1.8163,1.8922,1.9352,1.9352,1.9407,0.0,1.9352,1.8629,1.8574,1.9297,1.9297,2.0556,2.2933,2.2988,2.3841,2.5301,2.4548,2.3731,2.2822,2.119,1.9594,1.8225,1.8911,1.8317,1.7183,1.8574,1.962,1.9989,1.7624,0.0,0.0,0.0,0.0,0.0,0.0,0.0,0.0,0.0,0.0,0.0,1.8856,2.1308,2.3805,2.6616,2.9821,3.2805,0.0,0.0,0.0,0.0,0.0,0.0,0.0,0.0,0.0,0.0,0.0,0.0,0.0,0.0,0.0,0.0,0.0,0.0,0.0,0.0,0.0,0.0,0.0,0.0,4.1132,4.0341,3.9533,3.8726,3.797,3.7933,3.8689,3.8707,3.8322,3.7566,3.7566,3.7566,3.7566,3.7603,3.8502,4.0065,4.0836,4.1625,4.2359,4.2359,4.28,4.3515,4.3515,4.3515,4.3515,4.3515,4.3515,4.3515,0.0,0.0,0.0,0.0,0.0,0.0,0.0,0.0,0.0,0.0,0.0,0.0,0.0,1.9297,1.8775,1.7447,1.686,1.6775,1.7293,1.7594,1.7979,1.8519,1.8537,1.8537,1.8537,1.8243,1.7979,1.7759,1.828,1.951,2.1428,2.2492,2.3584,2.4585,2.3786,2.3263,2.2859,2.0666,1.9399,1.8911,1.9187,1.9609,2.0042,2.006,2.1235,0.0,0.0,0.0,0.0,0.0,0.0,0.0,0.0,0.0,0.0,0.0,1.6022,1.7436,1.8298,2.0335,2.2702,2.4718,2.6759,2.8863,3.105,0.0,0.0,0.0,0.0,0.0,0.0,0.0,0.0,0.0,0.0,0.0,0.0,0.0,0.0,0.0,0.0,0.0,0.0,0.0,0.0,0.0,0.0,0.0,4.0341,3.957,3.9001,3.8707,3.8414,3.8157,3.7933,3.7422,3.7,3.674,3.674,3.6997,3.7492,3.7492,3.8098,3.9148,3.9441,4.0306,4.1572,4.2084,4.247,4.2782,4.3313,4.3515,4.3515,4.3515,4.3515,4.3515,0.0,0.0,0.0,0.0,0.0,1.9297,1.9297,1.9297,1.9297,1.9297,0.0,0.0,0.0,0.0,1.9051,1.744,1.6566,1.6328,1.6872,1.6908,1.7147,1.7667,1.7704,1.7704,1.7704,1.7704,1.7447,1.6908,1.7704,1.8915,2.0521,2.1648,2.2878,2.4135,2.2767,2.2621,2.3281,2.1363,2.0399,2.0197,2.0729,2.1298,2.1849,2.2373,0.0,0.0,0.0,0.0,0.0,0.0,0.0,0.0,0.0,0.0,0.0,0.0,0.0,0.0,1.7704,0.0,0.0,0.0,2.4681,2.6188,2.854,0.0,0.0,0.0,0.0,0.0,0.0,0.0,0.0,0.0,0.0,0.0,0.0,0.0,0.0,0.0,0.0,0.0,0.0,0.0,0.0,0.0,0.0,0.0,3.9496,3.8487,3.7771,3.7463,3.7753,3.7496,3.667,3.6413,3.6156,3.5862,3.5862,3.6303,3.7107,3.7107,3.7679,3.8707,3.8707,3.946,4.0763,4.157,4.2066,4.2378,4.3185,4.3515,4.3515,4.3515,4.3515,4.3515,0.0,1.9297,1.9297,1.9297,1.9297,1.9297,1.9297,1.9297,1.9315,1.9334,0.0,0.0,0.0,0.0,0.0,1.8309,1.7403,1.6927,1.6872,1.6853,1.6853,1.6853,1.689,1.6908,1.6908,1.6908,1.689,1.6853,1.7649,1.8841,2.0429,2.0448,2.1777,2.4025,2.1612,2.1868,2.4061,2.3244,2.2483,2.1978,2.3547,2.3281,2.2253,0.0,0.0,0.0,2.4823,2.4599,0.0,2.397,0.0,0.0,0.0,0.0,0.0,0.0,0.0,0.0,0.0,0.0,0.0,0.0,0.0,0.0,2.7485,0.0,0.0,0.0,0.0,0.0,0.0,0.0,0.0,0.0,0.0,0.0,0.0,0.0,0.0,0.0,0.0,0.0,0.0,0.0,0.0,0.0,0.0,3.8634,3.8634,3.7147,3.5917,3.5078,3.5844,3.5862,3.5023,3.5789,3.5789,3.4954,3.4949,3.5408,3.6303,3.6303,3.7184,3.8707,3.8707,3.9148,3.9918,4.0728,4.1552,4.2341,4.3149,4.3478,4.3515,4.3515,4.3515,4.3515,1.926,1.9297,1.9297,1.9297,1.9297,1.9297,1.9297,1.9297,1.9517,0.0,0.0,0.0,2.0503,1.9987,1.9693,1.9814,1.8566,1.7264,1.6114,1.6022,1.6022,1.6022,1.6578,1.6908,1.6908,1.6908,1.6615,1.6022,1.6243,1.7197,1.8786,1.9363,2.0656,2.2437,2.1757,2.1831,2.2363,2.0931,2.1235,2.2758,2.3786,2.4291,0.0,0.0,0.0,0.0,0.0,2.6887,2.6242,0.0,2.4756,2.2438,0.0,0.0,0.0,0.0,0.0,0.0,1.8794,0.0,0.0,0.0,0.0,0.0,2.4034,2.5656,0.0,0.0,0.0,0.0,0.0,0.0,0.0,0.0,0.0,0.0,0.0,0.0,0.0,0.0,0.0,0.0,0.0,0.0,0.0,0.0,3.7533,3.6964,3.6964,3.6541,3.6193,3.5954,3.5555,3.5243,3.5004,3.4087,3.3775,3.4105,3.3537,3.4325,3.6303,3.6303,3.7184,3.8707,3.8707,3.8836,3.9093,3.99,4.0708,4.1499,4.2323,4.2983,4.3515,4.3515,4.3515,4.3515,1.9224,1.9565,1.9803,1.9803,2.0372,2.0721,2.0399,2.0637,2.0886,0.0,0.0,0.0,2.1538,2.1712,2.1629,2.1088,1.9546,1.806,1.6775,1.6059,1.5698,1.5698,1.6151,1.6566,1.689,1.722,1.6842,1.5698,1.6371,1.6848,1.7124,1.8262,1.9499,2.0747,2.0417,2.0839,2.1666,1.9646,2.0427,0.0,2.4612,0.0,0.0,2.7797,2.8528,0.0,0.0,0.0,2.8275,2.8512,2.6446,0.0,0.0,0.0,0.0,0.0,0.0,0.0,0.0,0.0,0.0,0.0,0.0,0.0,2.3153,2.4178,2.5194,0.0,0.0,0.0,0.0,0.0,0.0,0.0,0.0,0.0,0.0,0.0,0.0,0.0,0.0,0.0,0.0,0.0,0.0,0.0,3.6229,3.5605,3.5275,3.4614,3.4559,3.5238,3.4119,3.3812,3.4491,3.3243,3.2999,3.3788,3.333,3.4229,3.6285,3.5917,3.6835,3.8689,3.834,3.8395,3.8744,3.9203,4.0084,4.1168,4.1992,4.2782,4.3515,4.3515,4.3515,4.3515,0.0,2.0005,2.0566,2.0749,2.2015,2.2822,2.2271,2.2666,2.2868,0.0,2.3015,2.3465,2.3648,2.4612,2.4438,2.2382,2.0582,1.9205,1.8298,1.672,1.5821,1.5821,1.5919,1.6298,1.7018,1.7814,1.7436,1.5821,1.7179,1.7142,1.5857,1.7307,1.8408,1.9132,1.8427,1.9326,2.1262,1.9234,0.0,2.3208,2.5428,2.6007,0.0,0.0,2.8462,2.7428,2.9295,2.9984,3.004,3.0093,2.7884,0.0,0.0,0.0,0.0,0.0,2.0189,0.0,0.0,0.0,0.0,0.0,0.0,0.0,2.363,2.3456,2.3611,0.0,0.0,0.0,0.0,0.0,0.0,0.0,0.0,0.0,0.0,0.0,0.0,0.0,0.0,0.0,0.0,0.0,3.5853,3.5747,3.508,3.4325,3.3515,3.2161,3.2045,3.3495,3.2149,3.2082,3.3513,3.2816,3.2871,3.3678,3.3678,3.4541,3.6138,3.5353,3.6252,3.8395,3.7768,3.7915,3.8579,3.867,3.9606,4.104,4.1864,4.2653,4.3386,4.3478,4.3515,4.3515,2.0236,2.0401,2.0933,2.2272,2.2786,2.3382,2.4511,2.3731,2.3868,2.6311,2.6209,2.6382,2.7684,2.5805,2.4511,2.4677,2.262,2.0674,1.9168,1.7557,1.667,1.667,1.7282,1.7711,1.7851,1.8647,1.828,1.667,1.6334,1.6334,1.667,1.6982,1.7557,1.8335,1.817,1.8372,1.8886,1.9685,0.0,2.3098,2.4226,0.0,2.6589,2.8623,2.9197,2.8986,2.9538,2.9661,2.9401,0.0,2.7503,2.6195,0.0,0.0,0.0,0.0,0.0,0.0,0.0,0.0,0.0,0.0,0.0,0.0,2.2345,2.2648,2.3134,0.0,0.0,0.0,0.0,0.0,0.0,0.0,0.0,0.0,0.0,0.0,0.0,0.0,0.0,0.0,0.0,0.0,3.3055,3.2411,3.2508,3.2252,3.1501,3.1409,3.1544,3.1856,3.1562,3.1562,3.1874,3.1709,3.2045,3.2821,3.2821,3.3683,3.5261,3.5078,3.5646,3.6798,3.729,3.7584,3.7786,3.8432,3.9276,4.0212,4.102,4.1827,4.2598,4.3259,4.3515,4.3515,2.0503,2.1171,2.2144,2.3382,2.4253,2.5199,2.6421,2.6245,2.6565,2.8191,2.8411,2.8235,2.7849,2.6722,2.5668,2.4879,2.3327,2.1694,2.0005,1.8775,1.7924,1.752,1.7887,1.8474,1.9282,1.9289,1.8702,1.7502,1.708,1.65,1.5716,1.6523,1.7539,1.8665,1.7851,1.8401,1.9913,1.9483,2.0493,2.2575,2.4593,0.0,2.7361,2.8845,2.9402,2.9443,2.9635,2.9644,2.9523,2.9426,2.8548,0.0,0.0,2.5483,2.5089,0.0,2.385,2.4622,0.0,0.0,0.0,2.3602,0.0,0.0,0.0,2.2685,2.263,2.3437,0.0,0.0,0.0,0.0,0.0,0.0,0.0,0.0,0.0,0.0,0.0,0.0,0.0,0.0,0.0,0.0,3.1286,3.0878,3.0672,3.065,3.0884,3.0267,3.0361,3.1366,3.0613,3.0779,3.199,3.1599,3.2008,3.3201,3.3201,3.383,3.4986,3.4582,3.511,3.6321,3.674,3.7125,3.7566,3.8377,3.8946,3.9386,4.0194,4.124,4.2304,4.2304,4.28,4.3441,2.0503,2.1722,2.307,2.4025,2.5401,2.6686,2.764,2.8099,2.8473,2.895,2.9831,2.9751,2.7952,2.8062,2.753,2.5731,2.4575,2.3281,0.0,0.0,0.0,1.9062,1.8592,1.9087,2.0713,1.9803,1.8831,1.7869,1.7704,1.664,1.475,1.6065,1.7447,1.8794,1.7796,1.8849,2.1206,0.0,0.0,2.2951,0.0,2.6906,2.7471,2.8635,2.9089,2.9138,2.9457,2.9561,2.9664,3.0377,0.0,2.8133,2.7325,2.7075,0.0,0.0,0.0,0.0,0.0,0.0,0.0,0.0,0.0,2.3923,0.0,0.0,0.0,2.3731,0.0,0.0,0.0,0.0,0.0,0.0,0.0,0.0,0.0,0.0,0.0,0.0,0.0,0.0,0.0,0.0,2.9528,2.9389,2.9054,2.9276,3.0268,2.9102,2.917,3.0876,2.9684,3.0014,3.2124,3.1641,3.2118,3.3568,3.3733,3.4137,3.4747,3.41,3.4541,3.5844,3.6156,3.6684,3.7345,3.8303,3.8615,3.856,3.9533,4.0689,4.1772,4.1279,4.1919,4.2965,2.0503,2.1272,2.2418,2.3933,2.4934,2.6054,2.7578,2.6678,2.6576,2.8712,3.032,3.1421,3.1867,3.0742,3.0099,3.0552,0.0,0.0,2.596,0.0,0.0,0.0,0.0,0.0,2.161,2.0105,1.8555,1.7037,1.6316,1.5821,1.557,1.5747,1.631,1.722,1.8463,1.9224,1.9664,0.0,2.318,0.0,2.6437,2.6227,0.0,2.739,2.797,2.8081,2.882,2.9089,2.9089,0.0,2.9085,2.8768,0.0,2.8176,2.8418,0.0,0.0,0.0,0.0,0.0,0.0,0.0,2.6274,0.0,0.0,0.0,2.3786,2.3244,0.0,0.0,0.0,0.0,0.0,0.0,0.0,0.0,0.0,0.0,0.0,0.0,0.0,0.0,0.0,0.0,0.0,2.6174,2.7263,2.8028,2.8234,2.834,2.8668,2.925,2.9097,2.9464,3.0467,3.1091,3.1843,3.2729,3.3458,3.3844,3.3935,3.3844,3.3899,3.4174,3.5642,3.634,3.6541,3.8065,3.8267,3.7786,3.931,4.001,4.0249,4.0873,4.1224,4.1462,2.0419,2.1575,2.2703,2.34,2.4566,2.5797,0.0,2.8128,2.9248,3.0265,3.1384,3.2045,0.0,0.0,0.0,0.0,0.0,2.7769,0.0,0.0,0.0,0.0,0.0,0.0,0.0,2.016,1.8739,1.7594,1.6316,1.5454,1.5013,1.5472,1.6885,1.9017,1.9685,0.0,2.3547,0.0,2.4401,0.0,0.0,0.0,0.0,2.8734,2.9604,2.9182,2.9042,2.9005,2.9005,0.0,2.9005,0.0,0.0,0.0,0.0,0.0,0.0,0.0,0.0,0.0,0.0,0.0,0.0,0.0,0.0,0.0,2.3547,0.0,0.0,0.0,0.0,0.0,0.0,0.0,0.0,0.0,0.0,0.0,0.0,0.0,0.0,0.0,0.0,0.0,0.0,0.0,0.0,2.7208,2.8144,2.8578,2.8959,2.9346,2.9558,3.0081,3.0889,3.1231,3.2045,3.3311,3.3642,3.3807,3.3807,3.3807,3.3807,3.3862,3.5037,3.5844,3.6376,3.7533,3.8065,3.8267,3.8946,3.9203,3.9239,3.9588,4.0581,4.1791,2.0346,2.1483,2.2382,2.263,2.3823,0.0,0.0,0.0,0.0,0.0,0.0,0.0,3.2027,3.1733,0.0,0.0,3.1476,3.0063,0.0,0.0,2.5466,0.0,0.0,0.0,0.0,0.0,0.0,1.8089,1.672,1.5839,1.5484,1.5857,1.7631,2.0521,0.0,2.3079,2.6264,0.0,2.6109,2.63,2.7842,2.8154,2.7945,3.0222,3.0705,3.0118,2.9537,2.9189,2.9005,2.9005,2.9152,0.0,2.9335,0.0,0.0,0.0,0.0,0.0,2.7695,0.0,0.0,0.0,0.0,0.0,0.0,0.0,0.0,0.0,0.0,0.0,0.0,0.0,0.0,0.0,0.0,0.0,0.0,0.0,0.0,0.0,0.0,0.0,0.0,0.0,0.0,0.0,2.6022,0.0,2.8327,2.8641,2.893,2.9251,2.9773,3.0325,3.0892,3.1218,3.2003,3.3128,3.3366,3.3476,3.3476,3.3697,3.3807,3.3844,3.4656,3.5353,3.6028,3.707,3.7713,3.8083,3.8542,3.8579,3.8395,3.8615,3.9955,4.1589,2.0346,2.0539,2.0841,2.1684,2.2538,0.0,0.0,0.0,0.0,0.0,0.0,0.0,0.0,0.0,0.0,0.0,0.0,3.533,3.3642,0.0,2.8374,0.0,0.0,2.2896,0.0,0.0,0.0,0.0,1.7275,1.7238,1.7961,1.7202,1.8155,2.0558,2.2199,2.3859,2.554,2.7082,2.9065,3.1121,3.0411,3.1494,3.3293,0.0,3.0228,3.021,3.0173,0.0,0.0,2.9005,2.9519,0.0,0.0,0.0,0.0,0.0,0.0,0.0,0.0,0.0,0.0,2.717,0.0,0.0,0.0,0.0,2.6062,0.0,0.0,0.0,0.0,0.0,0.0,2.1923,0.0,0.0,0.0,0.0,0.0,0.0,0.0,0.0,0.0,0.0,0.0,2.5463,2.5815,2.6705,2.8314,2.8097,2.8083,2.843,2.9222,2.9633,2.9651,3.0812,3.1433,3.1488,3.2284,3.2638,3.2656,3.344,3.3807,3.3844,3.4656,3.5023,3.5169,3.6817,3.707,3.6523,3.8083,3.8212,3.7639,3.8414,3.9239,4.0065,2.0456,2.0951,2.1272,2.0996,2.207,0.0,0.0,2.6025,0.0,0.0,0.0,0.0,0.0,3.7294,3.79,0.0,0.0,3.6376,3.4692,3.1825,0.0,0.0,0.0,2.5107,0.0,0.0,0.0,0.0,0.0,1.8629,1.8904,1.9153,2.0034,2.1418,0.0,2.5291,0.0,0.0,0.0,0.0,0.0,3.1641,3.3642,0.0,0.0,3.0907,3.0393,2.9684,0.0,2.9005,2.9537,3.021,3.021,3.021,3.0246,3.0522,3.0228,0.0,0.0,0.0,3.054,2.8656,0.0,0.0,0.0,0.0,0.0,0.0,0.0,0.0,0.0,0.0,0.0,2.2648,0.0,0.0,0.0,0.0,0.0,0.0,0.0,0.0,0.0,0.0,0.0,2.4252,2.5338,2.6595,0.0,2.8653,2.8949,2.8795,2.9327,2.9602,2.9602,3.001,3.0888,3.221,3.2472,3.2876,3.3403,3.3678,3.3807,3.3825,3.41,3.4509,3.5041,3.561,3.634,3.7144,3.7694,3.8065,3.8322,3.8597,3.9203,4.001,2.1391,2.1602,0.0,0.0,0.0,0.0,0.0,0.0,0.0,0.0,3.3128,0.0,3.834,0.0,3.9441,0.0,3.9368,3.7845,3.561,3.4009,0.0,3.1531,2.9439,0.0,0.0,0.0,0.0,0.0,0.0,2.0611,2.0611,2.0849,2.1565,2.2694,0.0,2.5988,2.906,2.9849,3.0705,0.0,0.0,3.2412,0.0,0.0,3.254,3.1715,0.0,3.0118,2.9372,2.9097,2.9537,3.021,3.021,3.021,3.032,3.0889,3.065,3.032,3.0907,3.1219,0.0,0.0,2.9035,0.0,2.6256,0.0,0.0,0.0,0.0,0.0,0.0,0.0,0.0,2.3437,2.2501,0.0,0.0,1.8665,0.0,0.0,0.0,0.0,0.0,0.0,2.3389,2.4581,2.5096,2.6188,0.0,0.0,2.9053,2.8792,2.9309,2.9462,2.9191,2.9598,3.0469,3.1739,3.2045,3.2596,3.3385,3.3678,3.3807,3.3807,3.3807,3.4014,3.4418,3.5164,3.601,3.6909,3.7634,3.823,3.8707,3.8707,3.9386,4.0487,2.3006,2.2446,0.0,0.0,2.4318,0.0,0.0,0.0,2.9629,0.0,3.3036,3.5293,3.8579,3.9625,4.0377,4.115,4.1168,0.0,3.6798,3.645,0.0,0.0,3.2375,3.147,3.147,0.0,0.0,0.0,0.0,0.0,2.3098,2.2308,2.273,2.419,2.419,0.0,2.906,2.9824,3.1568,3.3807,3.3807,3.3807,3.3807,3.3807,0.0,3.2546,3.1751,3.0944,3.0136,2.9335,2.9592,3.0246,3.021,3.0228,3.0558,3.2087,3.1494,3.065,3.2179,3.2063,3.1342,3.0522,0.0,0.0,0.0,0.0,2.8418,0.0,0.0,0.0,0.0,0.0,0.0,0.0,0.0,0.0,0.0,0.0,0.0,0.0,0.0,0.0,0.0,2.1428,2.218,2.607,2.5016,2.5585,0.0,0.0,0.0,2.8407,2.9191,2.9227,2.8461,2.9551,3.0179,3.0338,3.1054,3.1843,3.2693,3.3458,3.3807,3.3807,3.3807,3.3583,3.3409,3.5378,3.5976,3.5812,3.7791,3.8609,3.87,3.8747,3.979,4.137,2.3116,2.3804,2.453,0.0,2.4135,2.4428,0.0,0.0,0.0,0.0,3.6431,3.867,4.1901,4.2451,4.267,4.2873,4.2341,0.0,0.0,0.0,0.0,3.7441,3.4137,3.2302,3.2302,2.9145,0.0,2.688,0.0,0.0,2.4768,2.3961,2.3804,2.419,0.0,2.5988,2.9005,2.9225,3.1054,3.3807,3.3807,3.3807,0.0,0.0,3.3678,3.3385,3.2577,3.177,3.0962,3.0173,3.043,3.0993,3.0393,3.0613,3.1164,3.1586,3.1843,3.2069,3.2491,3.2889,3.2981,3.2179,3.1531,3.076,0.0,0.0,0.0,0.0,0.0,0.0,0.0,0.0,0.0,0.0,0.0,0.0,0.0,0.0,0.0,0.0,0.0,0.0,0.0,2.0647,2.1904,2.2951,2.3749,0.0,0.0,0.0,0.0,2.8402,2.9191,2.9498,2.9299,2.9016,2.9908,3.1977,3.1586,3.2118,3.3495,3.3715,3.3807,3.3807,3.3807,3.3883,3.4073,3.4581,3.5204,3.5883,3.6417,3.7345,3.8491,3.9292,4.0616,4.2047,2.4135,2.5338,0.0,2.6458,0.0,0.0,2.9102,0.0,0.0,3.5752,3.7698,0.0,4.168,4.2872,4.3515,4.3515,4.3075,0.0,4.1313,0.0,0.0,3.823,3.6633,3.5312,3.4247,3.1715,0.0,2.8319,0.0,0.0,2.4879,2.441,2.4006,2.3694,0.0,2.5603,2.8069,2.9831,3.161,3.3311,3.366,0.0,0.0,3.3807,3.3807,3.3733,3.3293,3.2614,3.1806,3.0999,3.0797,3.0797,3.0338,3.0503,3.0944,3.1305,3.1971,3.2674,3.3036,3.3458,3.3697,3.3238,3.2779,3.2149,3.098,3.1072,3.0827,0.0,0.0,0.0,0.0,0.0,0.0,0.0,0.0,0.0,0.0,0.0,0.0,0.0,0.0,0.0,0.0,0.0,2.2024,0.0,0.0,0.0,0.0,0.0,0.0,2.8143,2.9737,3.0369,2.9864,2.9705,3.0626,3.2583,3.1963,3.2414,3.3807,3.3807,3.3707,3.3536,3.3536,3.3617,3.3772,3.4295,3.496,3.5685,3.6247,3.7418,3.8913,3.9517,4.0492,4.1632,2.5411,2.6788,0.0,0.0,0.0,0.0,0.0,3.2223,0.0,3.6376,0.0,3.9606,4.0302,4.2231,4.3515,4.3515,0.0,4.2615,4.0506,4.2156,4.1642,3.8117,3.9016,3.8542,3.634,3.4541,0.0,0.0,0.0,0.0,2.419,2.419,2.3768,2.3043,0.0,0.0,0.0,3.0858,3.2564,3.2821,3.3532,3.3807,3.3807,3.3807,3.3807,3.3807,3.3807,3.3348,3.2619,3.1825,3.1091,3.0503,3.0393,3.043,3.065,3.1347,3.2137,3.2913,3.3605,3.3807,3.3807,3.3807,3.3807,3.3421,3.2027,3.1709,3.1292,2.9776,2.8833,0.0,0.0,0.0,0.0,0.0,0.0,0.0,0.0,0.0,0.0,0.0,0.0,0.0,0.0,0.0,0.0,0.0,0.0,0.0,0.0,0.0,0.0,0.0,3.0531,0.0,3.0687,0.0,3.1724,3.2828,3.2262,3.2599,3.3721,3.378,3.3606,3.3273,3.3229,3.3142,3.3167,3.4268,3.4963,3.544,3.656,3.7862,3.9147,3.9147,3.9673,4.0616,2.5521,0.0,0.0,0.0,0.0,3.3091,3.5128,3.6578,3.7863,3.9111,4.124,4.2708,4.2837,4.3258,4.3515,4.3515,4.3515,0.0,0.0,0.0,0.0,4.049,3.8817,3.7419,3.6321,3.4009,3.1867,0.0,0.0,0.0,2.419,2.419,2.3768,2.3043,0.0,0.0,2.8712,3.0742,0.0,3.3605,3.3733,3.3807,3.3807,3.3807,3.3807,3.3807,3.3807,3.3715,3.3476,3.2656,3.2289,3.2051,3.1403,3.1641,3.2197,3.2344,3.2963,3.3623,3.3752,3.3807,3.3807,3.3807,3.3807,3.3733,3.344,3.3385,3.3109,3.2161,3.1329,3.0411,2.9225,0.0,0.0,0.0,0.0,0.0,0.0,0.0,0.0,0.0,0.0,0.0,0.0,0.0,0.0,0.0,0.0,0.0,0.0,0.0,0.0,0.0,0.0,0.0,0.0,0.0,0.0,3.4066,3.2672,3.2455,3.3317,3.3652,3.3762,3.368,3.3346,3.3319,3.353,3.4027,3.4757,3.5574,3.5781,3.6444,3.7268,3.7268,3.8116,3.9615,0.0,0.0,0.0,0.0,0.0,0.0,0.0,3.9882,0.0,4.001,4.091,4.1625,4.1625,4.2762,4.3515,4.3515,4.3515,4.3515,4.3515,4.2378,4.1535,4.1113,3.9588,0.0,3.696,3.533,3.3109,3.021,0.0,0.0,0.0,0.0,0.0,2.2464,0.0,2.6539,0.0,0.0,0.0,3.3256,3.4087,3.416,3.3844,3.4266,3.4174,3.3844,3.427,3.4156,3.3733,3.3348,3.2949,3.2528,3.2137,3.2302,3.2601,3.2601,3.3183,3.3807,3.3807,3.3807,3.3807,3.3807,3.3807,3.3807,3.3807,3.3807,3.3568,3.2766,3.2302,3.1531,2.9922,2.8319,0.0,0.0,0.0,0.0,0.0,0.0,0.0,0.0,0.0,0.0,0.0,0.0,0.0,0.0,0.0,0.0,0.0,0.0,0.0,0.0,0.0,0.0,0.0,0.0,0.0,3.3758,3.2501,3.2227,3.284,3.3302,3.3361,3.3139,3.3333,3.3596,3.3907,3.4596,3.5163,3.56,3.56,3.6332,3.7364,3.7364,3.8294,3.9727,0.0,3.0999,0.0,0.0,3.5716,0.0,3.9606,4.1954,4.2817,4.091,4.0671,4.0671,4.0671,4.2376,4.3515,4.3515,4.3515,4.3441,4.3259,4.2488,4.1699,4.0875,4.0065,3.8964,3.7529,3.6886,3.4724,0.0,0.0,0.0,0.0,0.0,0.0,0.0,0.0,0.0,0.0,0.0,3.3642,3.35,3.4766,3.4894,3.4394,3.5041,3.4876,3.4394,3.4839,3.4582,3.4027,3.3862,3.3385,3.2858,3.2858,3.2858,3.2858,3.2858,3.3311,3.3807,3.3807,3.3807,3.3807,3.3807,3.3807,3.3807,3.3807,3.3807,3.3623,3.2986,3.2711,3.2106,3.0503,2.9292,0.0,0.0,0.0,0.0,0.0,0.0,0.0,0.0,0.0,0.0,0.0,0.0,0.0,0.0,0.0,0.0,0.0,0.0,0.0,0.0,0.0,3.2161,3.2464,0.0,3.2985,0.0,3.2249,3.1986,3.2384,3.284,3.284,3.2554,3.3195,3.3732,3.4252,3.503,3.5447,3.5639,3.5909,3.6701,3.7709,3.7986,3.8822,3.9849,0.0,0.0,0.0,0.0,0.0,0.0,0.0,4.1954,4.3423,4.3203,4.3166,4.3166,4.3166,4.3368,4.3515,4.3515,4.3515,4.3185,4.2451,4.1645,4.0855,4.0047,3.9239,3.8395,3.7529,3.7437,3.6097,0.0,0.0,0.0,0.0,0.0,0.0,0.0,0.0,0.0,0.0,3.3642,3.4633,3.5973,3.6119,3.6119,3.6064,3.6156,3.6119,3.5973,3.5261,3.4949,3.4784,3.4045,3.3752,3.3697,3.3697,3.3697,3.3697,3.3697,3.3733,3.3807,3.3807,3.3807,3.3807,3.3807,3.3807,3.3807,3.3807,3.3807,3.377,3.3697,3.3109,3.2106,3.0503,3.0668,3.0577,0.0,0.0,0.0,0.0,0.0,0.0,0.0,0.0,0.0,0.0,0.0,0.0,0.0,0.0,0.0,0.0,0.0,0.0,2.8368,0.0,3.0935,3.2054,3.2376,0.0,3.3103,3.2209,3.1808,3.1897,3.2349,3.2534,3.2519,3.2877,3.3601,3.4469,3.4561,3.5013,3.5718,3.6943,3.719,3.7051,3.8183,3.8831,3.9097,0.0,0.0,0.0,0.0,0.0,0.0,0.0,4.289,4.3515,4.3515,4.3515,4.3515,4.3515,4.3515,4.3515,4.3515,4.3515,4.3149,4.2359,4.1535,4.0744,3.9953,3.9129,3.856,3.823,3.7749,3.6505,0.0,0.0,0.0,0.0,0.0,0.0,0.0,0.0,3.2284,3.3899,3.5385,3.6119,3.6303,3.6303,3.6303,3.6303,3.6303,3.5973,3.5536,3.5734,3.5133,3.4215,3.3917,3.3807,3.3807,3.3807,3.3807,3.3807,3.3807,3.3807,3.3807,3.3807,3.3807,3.3807,3.3807,3.3807,3.3807,3.3807,3.3807,3.3807,3.3807,3.3532,3.3128,3.2485,3.1825,3.1347,0.0,0.0,0.0,0.0,0.0,0.0,0.0,0.0,0.0,0.0,0.0,0.0,0.0,0.0,0.0,0.0,0.0,0.0,2.8676,0.0,3.249,3.3373,3.371,3.36,3.3022,3.2389,3.1876,3.1468,3.1879,3.2581,3.347,3.3896,3.4666,3.565,3.565,3.5801,3.6161,3.6845,3.7257,3.7597,3.8536,3.9214,3.9673,3.9313,0.0,3.8579,0.0,4.0873,4.0873,4.3149,4.3515,4.3515,4.3515,4.3515,4.3515,4.3515,4.3515,4.3515,4.3515,4.3515,4.3149,4.2359,4.1772,4.1001,3.9937,3.935,0.0,3.8707,3.8138,3.7276,3.6087,3.366,0.0,0.0,0.0,0.0,0.0,3.3403,3.4559,3.5367,3.711,3.7533,3.7,3.7,3.7,3.7,3.7,3.6633,3.6105,3.6248,3.5532,3.4468,3.3972,3.3807,3.3807,3.3807,3.3807,3.3807,3.3807,3.3807,3.3807,3.3807,3.3807,3.3807,3.3807,3.3807,3.3807,3.3807,3.3807,3.3807,3.3807,3.3807,3.3807,3.3807,3.2871,3.221,0.0,0.0,0.0,0.0,0.0,0.0,0.0,2.6837,2.6359,2.6021,0.0,0.0,0.0,0.0,0.0,0.0,0.0,0.0,0.0,0.0,0.0,0.0,3.4324,3.4129,3.3022,3.2417,3.1924,3.1532,3.2036,3.2997,3.4235,3.4731,3.5502,3.6416,3.658,3.6661,3.679,3.7369,3.7843,3.8335,3.9224,3.9787,4.0096,4.0747,4.1058,4.157,4.3185,4.346,4.346,4.3496,4.3515,4.3515,4.3515,4.3515,4.3515,4.3515,4.3515,4.3515,4.3515,4.3515,4.3149,4.2359,4.2286,4.157,0.0,0.0,3.9515,3.8726,3.8689,3.8689,3.867,0.0,0.0,3.4857,0.0,3.2632,3.4949,3.4968,3.6343,3.8652,3.867,3.8689,3.867,3.867,3.867,3.867,3.867,3.867,3.845,3.6872,3.6285,3.6009,3.4357,3.3807,3.3807,3.3807,3.3807,3.3807,3.3807,3.3807,3.3807,3.3807,3.3807,3.3807,3.3807,3.3807,3.3807,3.3807,3.3807,3.3807,3.3807,3.3807,3.3807,3.3807,3.377,3.3513,3.2729,0.0,0.0,0.0,0.0,0.0,0.0,2.6009,2.6009,2.5991,0.0,0.0,0.0,0.0,0.0,0.0,0.0,0.0,2.9009,3.1347,0.0,3.2032,3.3617,3.3974,3.3096,3.2224,3.1979,3.231,3.3034,3.3778,3.4515,3.5053,3.5708,3.6437,3.6962,3.7321,3.7615,3.8951,3.9268,3.9129,4.041,4.0552,4.0096,4.2635,4.2745,4.2892,4.3423,4.3515,4.3515,4.3515,4.3515,4.3515,4.3515,4.3515,4.3515,4.3515,4.3515,4.3515,0.0,4.3515,4.3149,0.0,4.2304,4.1827,4.0763,4.0194,3.9772,3.9515,3.8982,3.8707,3.8707,0.0,0.0,0.0,3.5092,3.5734,3.7518,3.7518,3.7958,3.8707,3.8707,3.8707,3.8652,3.8102,3.8212,3.8652,3.8083,3.7533,3.7074,3.7125,3.6042,3.4596,3.4601,3.4252,3.3807,3.3807,3.3807,3.3807,3.3807,3.3807,3.3807,3.3807,3.3807,3.3807,3.3807,3.3807,3.3807,3.3807,3.3807,3.3807,3.3807,3.3807,3.3807,3.3807,3.3807,3.3532,3.2729,0.0,0.0,0.0,0.0,0.0,0.0,2.6482,2.6571,0.0,2.7245,0.0,0.0,0.0,0.0,0.0,0.0,0.0,0.0,3.3084,0.0,3.4656,3.5776,3.5719,3.4584,3.3962,3.3437,3.3051,3.3288,3.3795,3.4532,3.5067,3.5946,3.6995,3.7718,3.8245,3.8661,3.9406,3.9631,3.9593,4.0151,4.0254,4.0096,4.3515,4.3515,4.3515,4.3515,4.3515,4.3515,4.3515,4.3515,4.3515,4.3515,4.3515,4.3515,4.3515,4.3515,0.0,4.3515,4.3515,4.3277,4.2782,4.2745,4.2396,4.1589,4.1075,4.0653,4.0359,0.0,0.0,3.9148,3.7845,3.7202,3.7202,3.7202,3.7734,3.8707,3.8707,3.8707,3.8707,3.8707,3.8707,3.867,3.8138,3.8248,3.8652,3.8138,3.7441,3.6831,3.7327,3.6101,3.4325,3.4839,3.4472,3.3807,3.3807,3.3807,3.3807,3.3807,3.3807,3.3807,3.3807,3.3807,3.3862,3.4192,3.4252,3.4252,3.4252,3.4504,3.4559,3.3935,3.4045,3.4174,3.3862,3.3807,3.3532,3.2729,0.0,3.1596,0.0,0.0,0.0,0.0,0.0,0.0,0.0,2.766,0.0,0.0,0.0,0.0,0.0,0.0,0.0,3.1775,3.4338,0.0,3.5896,3.6427,3.6237,3.5292,3.4772,3.4252,3.3829,3.4117,3.4489,3.4934,3.548,3.6168,3.6956,3.7664,3.8172,3.853,3.8827,3.9174,3.9506,3.9651,3.9859,4.0096,4.3515,4.3515,0.0,0.0,4.3515,0.0,4.3515,4.3515,4.3515,4.3515,4.3515,4.3515,4.3515,4.3515,4.3515,4.3515,0.0,0.0,0.0,4.3515,4.313,4.2341,4.2304,0.0,4.104,4.0286,3.9863,3.9808,3.9074,3.8707,3.8707,3.8707,3.8707,3.8707,3.8707,3.8707,3.8707,3.8707,3.8707,3.8707,3.8707,3.8707,3.8689,3.8634,3.8138,3.7492,3.7492,3.6468,3.5096,3.5151,3.4601,3.388,3.388,3.3844,3.3807,3.3807,3.3844,3.388,3.388,3.3935,3.4156,3.4894,3.5096,3.5096,3.5096,3.5665,3.5771,3.4284,3.4472,3.4711,3.4009,3.3788,3.3458,3.2638,3.2509,3.1819,2.9804,0.0,0.0,0.0,0.0,0.0,0.0,2.7781,2.8678,0.0,0.0,0.0,0.0,0.0,3.1786,3.3616,3.5136,3.5913,3.5929,3.5929,3.572,3.5302,3.4798,3.4573,3.459,3.5301,3.56,3.5644,3.6139,3.6371,3.6437,3.6993,3.7391,3.7633,3.7642,3.8277,3.9129,3.9097,3.952,4.0096,0.0,0.0,4.3515,4.3515,4.3515,4.3515,4.3515,4.3515,4.3515,4.3515,4.3515,4.3515,4.3515,4.3515,4.3515,4.3515,4.3515,4.3515,4.3515,4.3515,4.313,4.2341,4.2304,4.1644,4.0212,3.9992,3.9588,3.8982,3.8799,3.8707,3.8707,3.8707,3.8707,3.8707,3.8707,3.8707,3.8707,3.8707,3.8707,3.8707,3.8707,3.8707,3.8634,3.801,3.7676,3.7492,3.7492,3.6835,3.6083,3.6688,3.5936,3.4729,3.4729,3.4289,3.3807,3.3807,3.4215,3.4729,3.4729,3.5202,3.5752,3.5936,3.5991,3.5991,3.5991,3.5628,3.5371,3.5642,3.4835,3.4211,3.4637,3.3702,3.2632,3.1806,3.1678,3.0978,2.8977,2.9719,0.0,0.0,2.8818,2.892,2.892,2.8861,2.8757,0.0,0.0,0.0,0.0,0.0,3.3749,3.4429,3.5438,3.6066,3.6284,3.6284,3.6036,3.5533,3.5396,3.5329,3.5346,3.5515,3.56,3.56,3.5739,3.6028,3.6468,3.7189,3.8096,3.9057,3.9208,3.9738,4.0397,3.9982,3.996,4.0096,4.3515,4.3515,4.3515,4.3515,4.3515,4.3515,4.3515,4.3515,4.3515,4.3515,4.3515,4.3515,4.3515,4.3515,4.3515,4.3515,4.3515,4.3515,4.3515,4.3515,4.3296,4.2873,4.2837,4.2433,4.1568,4.1185,4.0414,3.9239,3.9239,3.9056,3.8707,3.8707,3.8707,3.8707,3.8707,3.8707,3.8707,3.8707,3.8707,3.8707,3.8707,3.8707,3.8652,3.8212,3.7823,3.7547,3.7933,3.7294,3.6413,3.7235,3.6652,3.5591,3.5591,3.5293,3.4945,3.4945,3.4968,3.5096,3.5481,3.5936,3.6376,3.6758,3.7129,3.7294,3.6927,3.678,3.6619,3.6358,3.5862,3.5385,3.5059,3.3995,3.2761,3.1599,3.1091,3.0332,2.8876,2.9626,0.0,2.9876,3.0159,3.045,3.0595,3.0898,3.0754,2.992,0.0,0.0,3.2294,3.5179,3.6361,3.5278,3.5868,3.6247,3.6395,3.6161,3.5898,3.56,3.56,3.56,3.56,3.56,3.56,3.56,3.56,3.5761,3.6067,3.6521,3.7094,3.7727,3.7833,3.8357,3.9031,3.9084,3.9292,3.9656,4.3515,4.3515,4.3515,4.3515,4.3515,4.3515,4.3515,4.3515,4.3515,4.3515,4.3515,4.3515,4.3515,4.3515,4.3515,4.3515,4.3515,4.3515,4.3515,4.3515,4.346,4.3331,4.3441,4.3404,4.313,4.247,4.1387,3.99,3.99,3.9478,3.8707,3.8707,3.8707,3.8707,3.8707,3.8707,3.8707,3.8707,3.8707,3.8707,3.8707,3.8707,3.8689,3.8579,3.8175,3.7749,3.8322,3.7716,3.6762,3.7456,3.7162,3.6468,3.6468,3.6395,3.6321,3.645,3.5973,3.5536,3.6285,3.656,3.6817,3.7511,3.8193,3.856,3.7988,3.8285,3.8358,3.7092,3.7199,3.7019,3.5392,3.4238,3.3062,3.1547,3.0631,2.9893,2.9269,0.0,3.0523,3.1257,3.1729,3.2105,3.24,3.3177,3.3265,3.2287,3.4853,0.0,0.0,3.746,3.8466,3.6209,3.6509,3.6579,3.6287,3.5832,3.56,3.56,3.56,3.56,3.56,3.56,3.56,3.56,3.56,3.56,3.56,3.56,3.5667,3.5769,3.5769,3.6265,3.7066,3.7787,3.8464,3.9106,4.3515,4.3515,4.3515,4.3515,4.3515,4.3515,4.3515,4.3515,4.3515,4.3515,4.3515,4.3515,4.3515,4.3515,4.3515,4.3515,4.3515,4.3515,4.3515,4.3515,4.3185,4.2525,4.313,4.2855,4.1515,4.1352,4.0836,3.99,3.99,3.9478,3.8707,3.8707,3.8707,3.8707,3.8707,3.8707,3.8707,3.8707,3.8707,3.8707,3.8707,3.8707,3.8634,3.7936,3.8028,3.8432,3.7896,3.7955,3.8358,3.8469,3.7973,3.7309,3.7309,3.685,3.6431,3.7107,3.7217,3.7144,3.729,3.7808,3.8358,3.8487,3.8615,3.8854,3.9386,3.9093,3.8817,3.9239,3.8374,3.7091,3.5753,3.3785,3.2049,3.1056,3.0233,2.9771,2.999,0.0,3.3433,3.4247,3.4835,3.5224,3.533,3.45,3.3982,3.4083,3.4657,3.5105,3.5279,3.6777,3.7506,3.7248,3.7797,3.7327,3.5739,3.5644,3.56,3.56,3.56,3.56,3.56,3.56,3.56,3.56,3.56,3.56,3.56,3.56,3.6011,3.6626,3.6626,3.706,3.7821,3.8548,3.8903,3.9106,4.3515,4.3515,4.3515,4.3515,4.3515,4.3515,4.3515,4.3515,4.3515,4.3515,4.3515,4.3515,4.3515,4.3515,4.3515,4.3515,4.3515,4.3515,4.3515,4.3515,4.3331,4.2947,4.3313,4.3149,4.2415,4.2396,4.1992,4.1185,4.0763,4.0139,3.9331,3.8909,3.8927,3.935,3.935,3.9588,3.9976,3.9976,3.9753,3.935,3.935,3.9093,3.867,3.8285,3.8377,3.8652,3.8267,3.8377,3.8707,3.8707,3.845,3.8138,3.8138,3.7881,3.7661,3.8028,3.8138,3.8138,3.8138,3.8414,3.8707,3.8707,3.8707,3.8719,3.8806,3.91,3.9168,3.8558,3.8625,3.8269,3.6495,3.4641,3.3199,3.276,3.1109,0.0,0.0,3.2947,3.4359,3.4992,3.6306,3.715,3.7032,3.6312,3.578,3.5497,3.5832,3.5859,3.5415,3.6941,3.7632,3.7158,3.7627,3.7178,3.5639,3.56,3.56,3.56,3.56,3.56,3.56,3.56,3.56,3.56,3.56,3.56,3.56,3.56,3.5802,3.6146,3.6146,3.662,3.7398,3.8142,3.865,3.9106,4.3515,4.3515,4.3515,4.3515,4.3515,4.3515,4.3515,4.3515,4.3515,4.3515,4.3515,4.3515,4.3515,4.3515,4.3515,4.3515,4.3515,4.3515,4.3515,4.3515,4.3515,4.3515,4.3515,4.3515,4.3515,4.3515,4.3112,4.2304,4.148,4.0689,3.9879,3.9074,3.9129,3.99,3.99,4.0359,4.1095,4.1095,4.0653,3.99,3.99,3.9423,3.8707,3.8707,3.8707,3.8707,3.8707,3.8707,3.8707,3.8707,3.8707,3.8707,3.8707,3.8707,3.8744,3.8927,3.9111,3.9184,3.8799,3.8707,3.8707,3.8707,3.8836,3.8891,3.8521,3.9379,3.9814,3.8302,3.896,3.9253,3.7431,3.5671,3.4501,3.4437,0.0,0.0,0.0,3.43,3.5483,3.6204,3.7785,3.8709,3.8372,3.8037,3.7524,3.6741,3.7102,3.6902,3.5872,3.723,3.7557,3.6564,3.7055,3.6781,3.56,3.5785,3.5785,3.56,3.5785,3.5769,3.56,3.56,3.56,3.56,3.56,3.56,3.56,3.56,3.56,3.56,3.56,3.6096,3.6897,3.7635,3.8362,3.9106,4.3515,4.3515,4.3515,4.3515,4.3515,4.3515,4.3515,4.3515,4.3515,4.3515,4.3515,4.3515,4.3515,4.3515,4.3515,4.3515,4.3515,4.3515,4.3515,4.3515,4.3515,4.3515,4.3515,4.3515,4.3515,4.3515,4.3112,4.2304,4.148,4.0689,3.9879,3.9074,3.9129,3.99,3.99,4.0359,4.1095,4.1095,4.0653,3.99,3.99,3.9423,3.8707,3.8707,3.8707,3.8707,3.8707,3.8707,3.8707,3.8707,3.8707,3.8707,3.8707,3.8707,3.8854,3.9588,4.0341,4.06,3.9111,3.8707,3.8707,3.8707,3.9258,3.9861,4.0004,4.069,4.11,4.0473,3.9904,3.9274,3.8438,3.6416,3.4835,3.4783,0.0,0.0,3.5078,3.6651,3.8184,3.9643,4.019,4.0246,3.9708,3.9187,3.8587,3.7835,3.7814,3.7797,3.7699,3.7193,3.6525,3.5701,3.6446,3.6446,3.56,3.6332,3.6332,3.56,3.6349,3.6315,3.56,3.56,3.56,3.56,3.56,3.56,3.56,3.56,3.56,3.56,3.56,3.6096,3.6897,3.7635,3.8362,3.9106,4.3515,4.3515,4.3515,4.3515,4.3515,4.3515,4.3515,4.3515,4.3515,4.3515,4.3515,4.3515,4.3515,4.3515,4.3515,4.3515,4.3515,4.3515,4.3515,4.3515,4.3515,4.3515,4.3515,4.3515,4.3515,4.3515,4.3349,4.3039,4.2249,4.1442,4.0634,3.9827,3.9606,3.9918,4.0414,4.1093,4.1882,4.2378,4.2121,4.1332,4.0855,4.0157,3.9386,3.8891,3.8707,3.8707,3.8707,3.8707,3.8707,3.8707,3.8707,3.8799,3.9294,3.9441,3.9606,4.0414,4.0857,4.0967,4.0343,4.0178,4.0178,4.0178,4.0432,4.0593,4.0311,4.1143,4.1579,4.0261,4.0356,4.0349,3.9288,3.7662,3.6651,3.7082,0.0,3.5931,3.7294,3.8615,3.9716,4.0435,4.1334,4.1532,4.0561,3.9882,3.9234,3.8623,3.8159,3.7905,3.7905,3.7218,3.666,3.6349,3.6163,3.591,3.56,3.591,3.591,3.56,3.591,3.6163,3.6332,3.6332,3.6332,3.6366,3.684,3.6479,3.5633,3.6146,3.6332,3.6332,3.6332,3.7077,3.8193,3.8481,3.9039,3.9723,4.3515,4.3515,4.3515,4.3515,4.3515,4.3515,4.3515,4.3515,4.3515,4.3515,4.3515,4.3515,4.3515,4.3515,4.3515,4.3515,4.3515,4.3515,4.3515,4.3515,4.3515,4.3515,4.3515,4.3515,4.3515,4.3515,4.3515,4.3515,4.269,4.2029,4.1462,4.0653,4.0414,4.0671,4.0983,4.1535,4.2341,4.2892,4.2506,4.1515,4.1205,4.0469,3.946,3.8909,3.8707,3.8707,3.8707,3.8707,3.8707,3.8707,3.8872,3.9166,3.9717,4.0249,4.0708,4.1003,4.1462,4.1809,4.1535,4.1645,4.1735,4.1224,4.1279,4.1344,4.0764,4.1578,4.2014,4.0584,4.077,4.1035,4.059,3.9345,3.8623,3.9378,3.8491,3.8126,3.9409,4.0262,4.0888,4.1272,4.2139,4.2241,4.1018,4.0435,3.9921,3.9376,3.887,3.8481,3.8261,3.7753,3.7286,3.6812,3.6265,3.5994,3.5994,3.6214,3.6073,3.56,3.6326,3.6705,3.6812,3.7049,3.7168,3.7161,3.7686,3.7178,3.6045,3.6823,3.7015,3.6829,3.7066,3.7905,3.8988,3.8988,3.9486,4.0096,4.3515,4.3515,4.3515,4.3515,4.3515,4.3515,4.3515,4.3515,4.3515,4.3515,4.3515,4.3515,4.3515,4.3515,4.3515,4.3515,4.3515,4.3515,4.3515,4.3515,4.3515,4.3515,4.3515,4.3515,4.3515,4.3515,4.3515,4.3515,4.269,4.2304,4.2286,4.148,4.1534,4.2268,4.1462,4.1535,4.2304,4.2304,4.1387,3.9992,4.0799,4.0141,3.8726,3.8707,3.8707,3.8726,3.8707,3.8707,3.8707,3.8726,3.9239,3.99,3.99,4.102,4.2158,4.1352,4.2249,4.3331,4.2525,4.2892,4.3112,4.1517,4.1735,4.2149,4.1541,4.2098,4.2539,4.1937,4.123,4.1131,4.2452,4.1395,4.0564,4.1378,4.0835,4.0601,4.1396,4.1504,4.1793,4.2603,4.2693,4.2203,4.1018,4.0903,4.0679,4.0146,4.0096,3.9791,3.9039,3.8988,3.8335,3.6863,3.6812,3.6812,3.6812,3.7533,3.7144,3.565,3.7905,3.8234,3.6846,3.7567,3.7922,3.7922,3.7922,3.7499,3.688,3.7601,3.7483,3.6897,3.7618,3.8362,3.9005,3.9005,3.9462,4.0096,4.3608,4.3515,4.3515,4.3515,4.3515,4.3515,4.3515,4.3515,4.3515,4.3515,4.3515,4.3515,4.3515,4.3515,4.3515,4.3515,4.3515,4.3515,4.3515,4.3515,4.3515,4.3515,4.3515,4.3515,4.3515,4.3515,4.3515,4.3515,4.3259,4.2837,4.2286,4.2047,4.1772,4.1462,4.1809,4.2084,4.2341,4.2892,4.2855,4.2413,4.2066,4.1662,4.1111,3.9974,3.99,4.0306,3.9735,3.9533,3.9625,4.0194,4.0175,4.01,4.1222,4.2286,4.3075,4.2837,4.3112,4.346,4.3221,4.3331,4.3386,4.2892,4.2947,4.3078,4.2902,4.3067,4.3214,4.3032,4.2533,4.223,4.2619,4.1968,4.1421,4.1673,4.151,4.1439,4.1691,4.1709,4.1795,4.2044,4.208,4.175,4.0972,4.0903,4.0679,4.0146,4.0096,4.0011,3.9791,3.9276,3.8785,3.8345,3.7838,3.7567,3.7567,3.7263,3.7161,3.7205,3.7905,3.8261,3.8345,3.8565,3.8667,3.87,3.9208,3.8717,3.7635,3.8362,3.8531,3.8362,3.8582,3.9106,3.9774,3.9774,3.991,4.0096,4.4544,4.4176,4.3975,4.3975,4.3699,4.3515,4.3515,4.3515,4.3515,4.3515,4.3515,4.3515,4.3515,4.3515,4.3515,4.3515,4.3515,4.3515,4.3515,4.3515,4.3515,4.3515,4.3515,4.3515,4.3515,4.3515,4.3515,4.3515,4.3515,4.324,4.2763,4.2763,4.2525,4.2066,4.2213,4.2304,4.2323,4.2818,4.2837,4.2543,4.2378,4.2121,4.1717,4.0744,4.0689,4.104,4.0561,4.0377,4.0451,4.093,4.1001,4.1075,4.2359,4.3112,4.3515,4.3515,4.3515,4.3515,4.3515,4.3515,4.3515,4.3515,4.3515,4.3515,4.3515,4.3515,4.3515,4.3515,4.3232,4.3014,4.3014,4.2715,4.2386,4.2183,4.2162,4.2062,4.1814,4.181,4.181,4.181,4.181,4.1556,4.0972,4.0903,4.0679,4.0146,4.0096,4.0096,4.0096,3.969,3.9317,3.9005,3.8565,3.8345,3.8345,3.7889,3.7736,3.7922,3.8481,3.8853,3.9005,3.9317,3.9453,3.9469,3.991,3.9436,3.8396,3.9123,3.9242,3.9022,3.9309,3.9723,4.0096,4.0096,4.0096,4.0096,4.5902,4.5259,4.4691,4.4691,4.403,4.3533,4.3606,4.3625,4.3643,4.3717,4.3662,4.3625,4.3625,4.3551,4.3515,4.3515,4.3515,4.3515,4.3515,4.3515,4.3515,4.3515,4.3515,4.3515,4.3515,4.3515,4.3515,4.3515,4.3515,4.3515,4.3515,4.3515,4.3515,4.3478,4.2727,4.2415,4.2415,4.2415,4.1992,4.137,4.2121,4.1974,4.1297,4.1224,4.1242,4.1297,4.1224,4.1205,4.1205,4.1205,4.1754,4.2543,4.3276,4.3515,4.3515,4.3515,4.3515,4.3515,4.3515,4.3515,4.3515,4.3515,4.3515,4.3515,4.3515,4.3515,4.3515,4.3515,4.3515,4.3515,4.3515,4.3515,4.3321,4.2788,4.2655,4.242,4.1793,4.1664,4.166,4.166,4.166,4.1424,4.088,4.0827,4.0625,4.0146,4.0096,4.0096,4.0096,4.0096,3.9791,3.9106,3.9089,3.9089,3.9089,3.9089,3.8751,3.8125,3.9469,3.9757,3.9106,3.9791,4.0096,4.0096,4.0096,3.9723,3.914,3.9825,3.9706,3.9157,3.9842,4.0096,4.0096,4.0096,4.0096,4.0096,4.6012,4.5259,4.4691,4.4691,4.403,4.3699,4.4342,4.4452,4.4672,4.5296,4.4837,4.4452,4.4452,4.3883,4.3515,4.3515,4.3515,4.3515,4.3515,4.3515,4.3515,4.3515,4.3515,4.3515,4.3515,4.3515,4.3515,4.3515,4.3515,4.3515,4.3515,4.3515,4.3515,4.3496,4.3331,4.3239,4.3239,4.3239,4.313,4.2983,4.3167,4.313,4.291,4.2286,4.2433,4.2892,4.2268,4.2047,4.2047,4.2047,4.2561,4.3276,4.346,4.3515,4.3515,4.3515,4.3515,4.3515,4.3515,4.3515,4.3515,4.3515,4.3515,4.3515,4.3515,4.3515,4.3515,4.3515,4.3515,4.3515,4.3515,4.3515,4.3321,4.2788,4.2302,4.1771,4.1178,4.0726,4.0466,4.0466,4.0466,4.0434,4.0286,4.0262,4.0229,4.0096,4.0096,4.0096,4.0096,4.0096,4.0028,3.9876,3.9859,3.9859,3.9859,3.9859,3.9791,3.9639,3.996,4.0028,3.9876,4.0028,4.0096,4.0096,4.0096,4.0011,3.9876,4.0028,4.0011,3.9893,4.0045,4.0096,4.0096,4.0096,4.0096,4.0096,4.7131,4.6416,4.5828,4.5828,4.5186,4.4782,4.5204,4.5278,4.5424,4.5847,4.5204,4.4691,4.4691,4.3975,4.3515,4.3515,4.3515,4.3515,4.3515,4.3515,4.3515,4.3515,4.3515,4.3515,4.3515,4.3515,4.3515,4.3515,4.3515,4.3515,4.3515,4.3515,4.3515,4.3515,4.3515,4.3515,4.3515,4.3515,4.3515,4.3515,4.3515,4.3515,4.346,4.302,4.313,4.3441,4.302,4.2873,4.2873,4.2873,4.3149,4.3515,4.3515,4.3515,4.3515,4.3515,4.3515,4.3515,4.3515,4.3515,4.3515,4.3515,4.3515,4.3515,4.3515,4.3515,4.3608,4.3993,4.4066,4.4195,4.4562,4.4635,4.4254,4.3032,4.2572,4.1934,4.07,4.0286,4.0096,4.0096,4.0096,4.0096,4.0096,4.0096,4.0096,4.0096,4.0096,4.0096,4.0096,4.0096,4.0096,4.0096,4.0096,4.0096,4.0096,4.0096,4.0096,4.0096,4.0096,4.0096,4.0096,4.0096,4.0096,4.0096,4.0096,4.0096,4.0096,4.0096,4.0096,4.0096,4.0096,4.0096,4.0096,4.0096,4.0096,4.0096,4.8306,4.7645,4.7094,4.7094,4.6434,4.5957,4.6085,4.6104,4.6159,4.6287,4.5608,4.5058,4.4929,4.4066,4.3515,4.3515,4.3515,4.3515,4.3515,4.3515,4.3515,4.3515,4.3515,4.3515,4.3515,4.3515,4.3515,4.3515,4.3515,4.3515,4.3515,4.3515,4.3515,4.3515,4.3515,4.3515,4.3515,4.3515,4.3444,4.3356,4.3356,4.3303,4.3214,4.3321,4.3303,4.3232,4.3427,4.3515,4.3515,4.3515,4.3515,4.3515,4.3515,4.3515,4.3515,4.3515,4.3515,4.3515,4.3515,4.3515,4.3515,4.3515,4.3606,4.3663,4.3533,4.3515,4.3718,4.4544,4.4691,4.4947,4.5755,4.581,4.5178,4.3479,4.3094,4.245,4.0713,4.0485,4.0434,4.0316,4.018,4.0096,4.0096,4.0096,4.0096,4.0096,4.0096,4.0096,4.0096,4.0096,4.0096,4.0096,4.0096,4.0096,4.0096,4.0096,4.0096,4.0096,4.0096,4.0096,4.0096,4.0096,4.0096,4.0096,4.0096,4.0096,4.0096,4.0096,4.0096,4.0096,4.0096,4.0096,4.0096,4.0096,4.0096,4.0096,4.8306,4.7645,4.7094,4.7094,4.6434,4.614,4.6819,4.6929,4.7186,4.7884,4.7259,4.6507,4.581,4.4397,4.3515,4.3515,4.3515,4.3515,4.3515,4.3515,4.3515,4.3515,4.3515,4.3515,4.3515,4.3515,4.3515,4.3515,4.3515,4.3515,4.3515,4.3515,4.3515,4.3515,4.3515,4.3515,4.3515,4.3515,4.3232,4.2807,4.2807,4.25,4.2083,4.2617,4.2482,4.2165,4.316,4.3515,4.3515,4.3515,4.3515,4.3515,4.3515,4.3515,4.3515,4.3515,4.3515,4.3515,4.3515,4.3515,4.3515,4.3515,4.4011,4.436,4.3644,4.3515,4.3718,4.4544,4.4691,4.4947,4.5755,4.5473,4.4865,4.4081,4.3512,4.2904,4.2104,4.1982,4.1762,4.1136,4.0476,4.0096,4.0096,4.0096,4.0096,4.0096,4.0096,4.0096,4.0096,4.0096,4.0096,4.0096,4.0096,4.0096,4.0096,4.0096,4.0096,4.0096,4.0096,4.0096,4.0096,4.0096,4.0096,4.0096,4.0096,4.0096,4.0096,4.0096,4.0096,4.0096,4.0096,4.0096,4.0096,4.0096,4.0096,4.0096,4.8306,4.8012,4.7755,4.7755,4.748,4.737,4.7718,4.7755,4.7901,4.8251,4.759,4.6947,4.6599,4.5131,4.4176,4.4176,4.3754,4.3515,4.3515,4.3515,4.3515,4.3515,4.3515,4.3515,4.3515,4.3515,4.3515,4.3515,4.3515,4.3515,4.3515,4.3515,4.3515,4.3515,4.3515,4.3515,4.3515,4.3515,4.3356,4.316,4.316,4.2808,4.2322,4.2596,4.2519,4.2402,4.3214,4.3322,4.3105,4.3392,4.3515,4.3515,4.3515,4.3286,4.3105,4.341,4.3286,4.3124,4.3427,4.3828,4.4176,4.4176,4.4782,4.5278,4.4911,4.4837,4.4929,4.5296,4.5369,4.5755,4.7021,4.6743,4.5986,4.4933,4.4253,4.3501,4.2443,4.2286,4.2168,4.1847,4.1153,4.0696,4.0696,4.035,4.0096,4.0096,4.0096,4.0096,4.0096,4.0096,4.0096,4.0096,4.0096,4.0096,4.0096,4.0096,4.0096,4.0096,4.0096,4.0096,4.0096,4.0096,4.0096,4.0096,4.0096,4.0096,4.0096,4.0096,4.0096,4.0096,4.0096,4.0096,4.0096,4.0096,4.0096,4.0096]}]]